     2              OBSERVATION DATA    GPS                 RINEX VERSION / TYPE
ASRINEXO V2.4.4 UX USGS 21-MAR-97 11:43                     PGM / RUN BY / DATE
                                                            COMMENT
Contact: kwendt@isdmnl.wr.usgs.gov (Ph: 415-329-4866)       COMMENT
Contact: kwendt@isdmnl.wr.usgs.gov (Ph: 415-329-4866)       COMMENT
Contact: kwendt@isdmnl.wr.usgs.gov (Ph: 415-329-4866)       COMMENT
Contact: kwendt@isdmnl.wr.usgs.gov (Ph: 415-329-4866)       COMMENT
Original Marker Name: hopp Hopper_1932_USC&GS               COMMENT
Campaign Name: USGS Parkfield                               COMMENT
4-Character Station Name: HOPP                              COMMENT
6-Character Antenna Code: ASHP12                            COMMENT
Vertical Measurement Point: EGP                             COMMENT
Vertical Offset to Rinex Ref. Point: 0.0593                 COMMENT
Radial Measurement Point: EGP                               COMMENT
Radial Offset to Rinex Ref. Point: 0.1425                   COMMENT
Antenna Height from Field Measurement: 1.6110 m             COMMENT
Additional Antenna Identification Info.:                    COMMENT
Ashtech L1/L2 Revision B (700228DE)                         COMMENT
Original XYZ: -2623672.2555 -4475318.3305 3699232.0263      COMMENT
New XYZ position is based on association with SCEC monument COMMENT
E1E9H9V6+0011. Position of that monument is believed to be  COMMENT
valid to within 1 m horizontally; vertical accuracy         COMMENT
should be no worse than 3-times this value.                 COMMENT
                                                            COMMENT
Revised Rinex header created by UCSD GPS archive for        COMMENT
GSAC on 08-Jul-2000 (2000:190) 01:43:08 GMT                 COMMENT
For assistance contact dagnew@ucsd.edu                      COMMENT
or anderson@python.ucsd.edu                                 COMMENT
                                                            COMMENT
HOPPER 1932                                                 MARKER NAME
CHS US GEOLOGICAL SURVEY                                    OBSERVER / AGENCY
582 ASHTECH Z-XII3 1E95                                     REC # / TYPE / VERS
068 ASHTECH GEODETIC P                                      ANT # / TYPE
 -2541493.2348 -4610456.8364  3591016.5171                  APPROX POSITION XYZ
        1.5454        0.0000        0.0000                  ANTENNA: DELTA H/E/N
     1     1     0                                          WAVELENGTH FACT L1/2
     5    C1    L1    L2    P1    P2                        # / TYPES OF OBSERV
    30                                                      INTERVAL
  1997     3    19    18    10   30.000000                  TIME OF FIRST OBS
  1997     3    19    23    58   60.000000                  TIME OF LAST OBS
                                                            END OF HEADER
 97  3 19 18 10 30.0000000  0  6 31  2 27 19 18  7
  23008172.616       75071.35549     51044.66649  23008171.8944   23008178.7164
  21682896.530     -317938.51849   -231967.02249  21682896.0434   21682902.9674
  20585116.991     -263261.72249   -192691.12049  20585116.6804   20585122.8434
  21448716.322       -1479.61449                  21448715.623    21448724.5984
  23305914.581      196703.16349    143109.87949  23305913.3224   23305921.2084
  23778537.975     -404142.99449   -278754.39449  23778537.1514   23778546.9044
 97  3 19 18 11  0.0000000  0  7 31  2 27 19 18  7 10
  23012035.754       95371.83449     66863.20849  23012035.4994   23012041.7754
  21666326.574     -405014.52649   -299818.43349  21666326.1554   21666332.8234
  20570490.653     -340124.22649   -252583.97949  20570490.0764   20570496.5404
  21446925.061      -36970.05449     -8814.53949  21446925.0234   21446931.4914
  23316261.077      251076.83249    185478.92449  23316260.9884   23316267.9534
  23748370.159     -562673.04249   -402284.21549  23748370.3854   23748379.2324
  24225919.429       -6801.38149     -5152.62049  24225921.6634   24225929.9804
 97  3 19 18 11 30.0000000  0  7 31  2 27 19 18  7 10
  23015833.015      115325.71649     82411.65849  23015833.0304   23015838.4384
  21649648.801     -492657.12749   -368111.34349  21649648.2504   21649655.2844
  20555765.697     -417504.35749   -312880.18149  20555765.3204   20555771.5394
  21445032.931      -46913.44649    -16562.66049  21445032.5834   21445039.8054
  23326484.220      304801.54149    227342.27149  23326483.5814   23326491.0294
  23718065.425     -721925.93249   -526377.29449  23718064.6664   23718074.7074
  24225291.196      -10121.80849     -7740.02649  24225288.2924   24225297.6814
 97  3 19 18 12  0.0000000  0  7 31  2 27 19 18  7 10
  23019574.445      134986.24449     97731.53749  23019573.8414   23019580.8474
  21632872.485     -580817.17149   -436807.46049  21632871.9244   21632878.9544
  20540951.510     -495353.47249   -373541.81949  20540950.8964   20540957.3074
  21443049.979      -57333.84849    -24682.46749  21443049.9654   21443056.5274
  23336596.034      357939.42049    268748.36349  23336595.1314   23336603.4984
  23687635.105     -881839.33749   -650985.05149  23687634.3824   23687643.7554
  24224575.612      -13877.95649    -10666.88949  24224573.7374   24224583.4824
 97  3 19 18 12 30.0000000  0  7 31  2 27 19 18  7 10
  23023275.996      154437.81249    112888.58449  23023275.9484   23023281.6174
  21616012.449     -669416.99849   -505846.26849  21616011.6864   21616018.9814
  20526064.298     -573586.19449   -434502.37549  20526063.9524   20526070.1324
  21440991.445      -68151.40349    -33111.75749  21440991.1414   21440998.1754
  23346614.309      410585.92549    309771.56249  23346613.9554   23346622.0304
  23657098.366    -1042310.80649   -776027.65049  23657098.3324   23657106.8404
  24223791.808      -17996.13849    -13875.89549  24223790.7094   24223799.7974
 97  3 19 18 13  0.0000000  0  7 31  2 27 19 18  7 10
  23026934.282      173662.04949    127868.48949  23026933.3264   23026940.2054
  21599066.074     -758470.94149   -575238.92649  21599065.7084   21599072.6074
  20511100.549     -652221.19149   -495776.38949  20511100.0214   20511106.4344
  21438853.699      -79385.62249    -41865.70549  21438853.6504   21438860.4274
  23356541.531      462753.45649    350421.53949  23356541.1334   23356549.0004
  23626454.625    -1203344.66849   -901508.48249  23626453.7264   23626461.9274
  24222937.374      -22485.78749    -17374.36749  24222936.3904   24222946.3894
 97  3 19 18 13 30.0000000  0  8 31  2 26 27 19 18  7 10
  23030556.235      192695.50949    142699.72349  23030555.0594   23030562.9304
  21582047.020     -847907.13749   -644929.44649  21582046.6704   21582053.3374
  24959111.470    -1285601.26849   -613534.77049  24959110.9174   24959118.0544
  20496068.785     -731213.55649   -557328.87249  20496068.6374   20496074.8124
  21436642.655      -91005.13649    -50919.89949  21436642.8014   21436649.6144
  23366385.263      514482.30249    390729.67049  23366385.0584   23366392.8384
  23595709.983    -1364908.84649  -1027402.54149  23595709.7104   23595718.2694
  24222020.384      -27304.47149    -21129.20949  24222020.5844   24222028.4584
 97  3 19 18 14  0.0000000  0  8 31  2 26 27 19 18  7 10
  23034151.625      211589.28049    157422.12849  23034151.2794   23034158.3264
  21564967.745     -937659.79749   -714866.56249  21564967.4944   21564973.8824
  24930052.883    -1438304.86349   -732524.56149  24930052.6644   24930059.0094
  20480977.796     -810517.30849   -619124.00049  20480977.6244   20480983.8134
  21434368.245     -102957.48149    -60233.44249  21434368.2164   21434374.9664
  23376152.286      565808.30849    430723.91349  23376152.2674   23376160.3064
  23564873.042    -1526957.98949  -1153674.50249  23564872.7884   23564881.1414
  24221047.899      -32414.63949    -25111.20249  24221047.1584   24221056.5344
 97  3 19 18 14 30.0000000  0  8 31  2 26 27 19 18  7 10
  23037710.413      230290.33449    171994.35949  23037709.8754   23037716.2594
  21547821.573    -1027763.97549   -785077.58449  21547821.2244   21547827.6144
  24900909.408    -1591454.76349   -851862.11249  24900908.4904   24900916.8784
  20465820.168     -890171.37949   -681192.10349  20465819.9984   20465826.0464
  21432024.188     -115275.76549    -69832.12849  21432024.1084   21432030.7854
  23385832.379      616677.30349    470362.02049  23385831.9354   23385839.9574
  23533935.935    -1689533.35149  -1280356.49549  23533935.8854   23533944.5884
  24220015.634      -37838.76649    -29337.83649  24220015.0324   24220024.1524
 97  3 19 18 15  0.0000000  0  8 31  2 26 27 19 18  7 10
  23041232.033      248796.13449    186414.41049  23041231.3574   23041238.3384
  21530611.666    -1118202.94249   -855549.48149  21530610.8284   21530617.5574
  24871685.785    -1745025.97749   -971527.98149  24871685.7704   24871693.4684
  20450596.260     -970173.79649   -743531.64949  20450595.9674   20450601.8924
  21429616.092     -127930.56149    -79693.03149  21429615.9664   21429622.8854
  23395424.814      667085.68949    509641.22049  23395425.0844   23395432.1814
  23502898.000    -1852639.07949  -1407451.78249  23502897.7724   23502905.9514
  24218926.206      -43564.30049    -33799.30649  24218924.7774   24218935.9604
 97  3 19 18 15 30.0000000  0  8 31  2 26 27 19 18  7 10
  23044714.885      267098.23749    200675.75649  23044714.3464   23044721.1454
  21513338.780    -1208972.29849   -926278.83349  21513337.8364   21513344.8624
  24842383.512    -1899010.52249  -1091515.91149  24842384.0254   24842390.3934
  20435306.713    -1050521.05549   -806139.90349  20435306.4024   20435312.5544
  21427146.688     -140907.75949    -89805.16149  21427146.7554   21427153.2704
  23404925.721      717012.95049    548545.53949  23404925.7474   23404933.2014
  23471757.776    -2016281.92749  -1534965.59149  23471757.0414   23471765.9174
  24217777.310      -49600.58649    -38502.93549  24217776.3324   24217786.3734
 97  3 19 18 16  0.0000000  0  8 31  2 26 27 19 18  7 10
  23048160.767      285206.04249    214785.70849  23048160.7904   23048166.8534
  21496000.041    -1300087.80649   -997277.90649  21495999.3094   21496006.2084
  24813002.280    -2053409.77949  -1211827.00049  24813001.8764   24813008.3144
  20419952.229    -1131209.60249   -869014.08749  20419951.9614   20419957.8954
  21424616.763     -154202.89249   -100165.03449  21424616.3574   21424623.7664
  23414337.083      766469.51749    587083.07549  23414336.7424   23414344.7944
  23440519.012    -2180442.56249  -1662882.87349  23440518.2174   23440528.0634
  24216569.940      -55946.20049    -43447.61349  24216569.3384   24216578.8084
 97  3 19 18 16 30.0000000  0  8 31  2 26 27 19 18  7 10
  23051573.810      303141.56249    228761.40349  23051573.3284   23051580.5044
  21478596.916    -1391541.83349  -1068540.76349  21478596.1774   21478603.4404
  24783542.029    -2208224.54349  -1332461.86749  24783541.5714   24783547.9234
  20404536.476    -1212219.86749   -932138.96249  20404536.0944   20404542.1014
  21422026.752     -167813.51749   -110770.75349  21422026.4504   21422033.7454
  23423664.927      815486.84149    625278.33649  23423664.7844   23423672.4004
  23409187.678    -2345089.71549  -1791179.24449  23409187.0574   23409195.8284
  24215308.457      -62575.95249    -48613.68549  24215307.6314   24215316.0994
 97  3 19 18 17  0.0000000  0  8 31  2 26 27 19 18  7 10
  23054958.321      320927.14949    242620.28049  23054957.6554   23054965.0774
  21461130.540    -1483328.32249  -1140062.67949  21461129.7594   21461136.7684
  24754003.834    -2363448.94349  -1453415.92849  24754003.5004   24754010.1484
  20389065.271    -1293521.73249   -995491.05849  20389064.8844   20389071.0084
  21419378.455     -181730.56249   -121615.23049  21419378.4434   21419385.5234
  23432912.388      864082.21649    663144.80549  23432912.3324   23432919.1764
  23377770.851    -2510186.15549  -1919825.71749  23377769.9774   23377779.6574
  24213993.683      -69484.91249    -53997.34249  24213993.7014   24214001.9924
 97  3 19 18 17 30.0000000  0  8 31  2 26 27 19 18  7 10
  23058321.668      338601.47149    256392.44349  23058321.4764   23058328.0674
  21443603.912    -1575431.39349  -1211831.28749  21443603.2924   21443610.2184
  24724393.043    -2519054.85749  -1574667.26549  24724393.2394   24724399.5634
  20373546.976    -1375070.84349  -1059035.81649  20373546.5774   20373552.8434
  21416674.404     -195940.58249   -132687.99249  21416674.3154   21416681.2314
  23442084.314      912280.26749    700701.67649  23442084.3934   23442091.6054
  23346278.905    -2675677.04149  -2048779.55549  23346278.5184   23346287.1394
  24212632.617      -76637.03649    -59570.45149  24212631.0244   24212641.2364
 97  3 19 18 18  0.0000000  0  8 31  2 26 27 19 18  7 10
  23061666.017      356176.08449    270086.92549  23061665.6914   23061671.6494
  21426021.484    -1667827.96649  -1283828.59249  21426020.8244   21426027.6154
  24694712.952    -2675024.97549  -1696202.39749  24694713.5764   24694719.5284
  20357986.279    -1456842.87549  -1122754.27549  20357986.0604   20357992.3114
  21413917.781     -210426.92549   -143976.07149  21413917.6034   21413924.5634
  23451184.816      960103.06949    737966.13349  23451184.7434   23451192.3664
  23314719.285    -2841523.91949  -2178010.75949  23314719.1564   23314726.8154
  24211230.771      -84004.10949    -65311.05249  24211230.4844   24211238.9634
 97  3 19 18 18 30.0000000  0  8 31  2 26 27 19 18  7 10
  23064993.096      373659.58149    283710.39349  23064992.5784   23064999.5244
  21408389.262    -1760485.88649  -1356029.54949  21408388.3814   21408395.1594
  24664969.537    -2831327.70949  -1817996.72549  24664969.4274   24664976.1124
  20342388.386    -1538810.59249  -1186625.22449  20342387.8884   20342394.2344
  21411113.203     -225164.97349   -155460.28849  21411112.8954   21411120.0524
  23460214.692     1007554.88749    774941.51749  23460214.8214   23460222.2884
  23283096.462    -3007703.05649  -2307500.88749  23283096.1484   23283104.9924
  24209792.505      -91562.94349    -71201.07649  24209791.5104   24209802.1294
 97  3 19 18 19  0.0000000  0  8 31  2 26 27 19 18  7 10
  23068305.747      391067.31849    297274.84549  23068305.4344   23068312.0684
  21390711.525    -1853383.13349  -1428416.99249  21390710.9394   21390718.0274
  24635170.541    -2987922.68649  -1940018.74549  24635170.3864   24635177.4984
  20326759.383    -1620941.96849  -1250623.69149  20326759.1374   20326765.5664
  21408266.762     -240123.07949   -167115.98349  21408266.3364   21408273.8444
  23469176.332     1054648.32949    811637.66249  23469176.3674   23469184.5514
  23251414.123    -3174194.78849  -2437234.60049  23251413.3314   23251422.4144
  24208318.677      -99308.83049    -77236.87449  24208318.4804   24208327.4004
 97  3 19 18 19 30.0000000  0  8 31  2 26 27 19 18  7 10
  23071612.960      408446.22749    310816.82449  23071612.2654   23071619.5404
  21372997.878    -1946469.09149  -1500951.48549  21372997.1624   21373004.5644
  24605325.185    -3144761.36849  -2062230.68449  24605325.1184   24605332.3184
  20311107.099    -1703195.38649  -1314717.26249  20311106.6734   20311113.4624
  21405386.900     -255257.04449   -178908.70449  21405386.5294   21405394.7624
  23478076.407     1101418.23749    848081.68149  23478076.5164   23478083.8614
  23219677.882    -3340969.90549  -2567189.12949  23219677.1824   23219686.6674
  24206815.604     -107208.45449    -83392.44649  24206815.0814   24206824.2944
 97  3 19 18 20  0.0000000  0  8 31  2 26 27 19 18  7 10
  23074923.493      425842.82249    324372.58949  23074922.8134   23074929.9604
  21355258.947    -2039687.84049  -1573589.45049  21355257.9934   21355265.3234
  24575439.237    -3301813.35649  -2184608.80549  24575439.4974   24575446.1334
  20295442.626    -1785512.92549  -1378860.80149  20295442.3084   20295449.0424
  21402483.469     -270514.93249   -190797.98449  21402483.5794   21402490.5844
  23486926.871     1147927.20549    884322.38749  23486926.7494   23486934.6664
  23187894.193    -3507994.35449  -2697337.95049  23187893.6054   23187901.4054
  24205288.625     -115233.69049    -89645.91849  24205287.9684   24205297.0684
 97  3 19 18 20 29.9990000  0  8 31  2 26 27 19 18  7 10
  23078247.884      443312.17749    337985.06149  23078247.8714   23078253.9124
  21337502.559    -2132998.16549  -1646298.78249  21337501.7654   21337508.9414
  24545524.306    -3459017.59749  -2307105.57249  24545524.5874   24545531.8114
  20279776.062    -1867841.53949  -1443012.96349  20279775.6934   20279781.9884
  21399565.640     -285848.76949   -202746.44849  21399565.2194   21399573.0804
  23495737.229     1194225.80149    920399.14749  23495737.0504   23495745.5094
  23156071.268    -3675224.78249  -2827647.27249  23156070.7864   23156079.7494
  24203744.921     -123346.15749    -95967.37249  24203743.7374   24203753.7034
 97  3 19 18 20 59.9990000  0  8 31  2 26 27 19 18  7 10
  23081594.076      460896.08049    351686.77549  23081594.1254   23081600.1874
  21319734.506    -2226369.68849  -1719055.79649  21319733.5464   21319741.0164
  24515585.295    -3616348.62649  -2429701.14949  24515585.5434   24515592.5994
  20264114.429    -1950144.17349  -1507144.88249  20264113.7564   20264120.2844
  21396641.980     -301213.00949   -214718.60749  21396641.6434   21396649.0984
  23504515.799     1240357.38349    956345.78749  23504515.0334   23504524.4214
  23124212.345    -3842644.21549  -2958103.88049  23124211.5714   23124220.3964
  24202191.699     -131508.66149   -102327.78849  24202190.5724   24202199.3164
 97  3 19 18 21 29.9990000  0  8 31  2 26 27 19 18  7 10
  23084965.184      478611.05849    365490.62749  23084964.6024   23084970.4034
  21301961.050    -2319769.56749  -1791834.91449  21301960.1704   21301967.4614
  24485627.069    -3773780.18749  -2552375.05049  24485626.7734   24485634.6594
  20248460.157    -2032408.04449  -1571246.60349  20248459.6434   20248466.0324
  21393717.236     -316582.68249   -226695.00249  21393716.9584   21393724.3394
  23513269.275     1286356.92749    992189.53049  23513268.7034   23513277.2564
  23092322.341    -4010227.20149  -3088687.93649  23092322.1384   23092329.9294
  24200636.429     -139682.14949   -108696.75049  24200636.1784   24200643.6494
 97  3 19 18 21 59.9990000  0  8 31  2 26 27 19 18  7 10
  23088362.474      496463.80849    379401.84749  23088361.8204   23088368.4354
  21284187.162    -2413172.12849  -1864616.11649  21284186.7044   21284193.4314
  24455656.447    -3931276.98749  -2675099.79949  24455656.5514   24455663.3324
  20232814.081    -2114628.81149  -1635314.73449  20232813.5354   20232819.9154
  21390795.495     -331936.68549   -238659.17449  21390795.6604   21390802.7834
  23522002.571     1332250.49449   1027950.68949  23522002.4074   23522010.1754
  23060405.498    -4177950.97949  -3219381.69449  23060404.7944   23060412.2594
  24199085.189     -147834.50749   -115049.28349  24199084.1834   24199092.5894
 97  3 19 18 22 29.9990000  0  8 31  2 26 27 19 18  7 10
  23091787.390      514461.79549    393426.22749  23091786.8594   23091793.2204
  21266415.672    -2506562.40349  -1937387.74549  21266415.0674   21266421.9604
  24425681.929    -4088794.56749  -2797840.73149  24425682.3724   24425689.2074
  20217174.503    -2196815.57549  -1699356.36849  20217174.0524   20217180.2614
  21387879.654     -347259.75649   -250599.25649  21387879.7294   21387886.5094
  23530713.928     1378028.92849   1063622.13149  23530713.7764   23530722.2554
  23028465.405    -4345796.77049  -3350170.53349  23028464.5764   23028472.2074
  24197541.189     -155948.25949   -121371.70749  24197541.0014   24197549.0494
 97  3 19 18 22 59.9990000  0  8 31  2 26 27 19 18  7 10
  23095244.062      532626.55749    407580.56249  23095243.2564   23095250.1334
  21248649.581    -2599924.19749  -2010137.18249  21248648.8564   21248655.6804
  24395708.452    -4246306.51049  -2920577.28249  24395707.8634   24395716.1994
  20201544.921    -2278949.60949  -1763356.90849  20201544.5524   20201550.8614
  21384974.270     -362527.85849   -262496.50149  21384973.8414   21384981.1864
  23539408.394     1423718.32149   1099224.18149  23539408.0274   23539415.8464
  22996507.385    -4513736.64749  -3481032.68949  22996505.9504   22996514.9564
  24196009.079     -163999.90549   -127645.73249  24196008.5224   24196017.5384
 97  3 19 18 23 29.9990000  0  8 31  2 26 27 19 18  7 10
  23098733.210      550961.90249    421867.82449  23098732.3604   23098739.0294
  21230889.784    -2693252.65849  -2082860.65049  21230889.1514   21230895.8594
  24365738.550    -4403799.30449  -3043298.89849  24365738.2104   24365745.4604
  20185925.178    -2361032.09849  -1827317.28649  20185924.7654   20185930.5924
  21382079.933     -377737.93049   -274348.52949  21382079.2854   21382086.8904
  23548088.072     1469329.66649   1134765.44049  23548088.1884   23548095.5334
  22964537.121    -4681740.97549  -3611945.08149  22964537.0124   22964545.0654
  24194488.972     -171988.69849   -133870.79049  24194488.7544   24194497.3214
 97  3 19 18 23 59.9990000  0  8 31  2 26 27 19 18  7 10
  23102261.006      569500.53549    436313.49049  23102260.3784   23102266.7384
  21213140.988    -2786523.35449  -2155539.10749  21213140.4784   21213147.1844
  24335777.492    -4561245.53249  -3165984.23849  24335777.1324   24335785.1284
  20170323.482    -2443019.85449  -1891203.84949  20170322.9664   20170329.0694
  21379202.399     -392859.82049   -286131.84049  21379202.2364   21379209.2214
  23556754.301     1514870.04349   1170251.37949  23556754.4384   23556761.5844
  22932562.660    -4849767.80449  -3742875.00349  22932561.9884   22932569.7244
  24192982.499     -179905.68049   -140039.88949  24192981.9074   24192990.4524
 97  3 19 18 24 29.9990000  0  8 31  2 26 27 19 18  7 10
  23105831.094      588261.39949    450932.32049  23105830.7864   23105836.4654
  21195405.553    -2879723.73449  -2228162.77449  21195404.8474   21195411.6284
  24305827.738    -4718632.45749  -3288623.36749  24305827.8364   24305835.0394
  20154746.189    -2524879.24049  -1954990.38549  20154745.7804   20154751.6854
  21376344.823     -407876.62149   -297833.26249  21376344.7644   21376351.5544
  23565409.549     1560352.80249   1205692.42349  23565409.8964   23565416.7954
  22900590.501    -5017782.33949  -3873795.35149  22900589.9314   22900598.3244
  24191490.895     -187744.86449   -146148.36749  24191490.6204   24191499.2224
 97  3 19 18 24 59.9990000  0  8 31  2 26 27 19 18  7 10
  23109442.501      607239.40949    465720.34549  23109441.6664   23109448.0724
  21177686.574    -2972837.60649  -2300719.03149  21177685.7634   21177692.6474
  24275887.166    -4875970.92349  -3411224.74049  24275886.8434   24275894.6394
  20139197.980    -2606585.91049  -2018657.91749  20139197.5544   20139203.6954
  21373507.760     -422785.50849   -309450.59749  21373507.6494   21373515.1224
  23574055.485     1605786.74449   1241095.43149  23574055.4614   23574062.8484
  22868622.971    -5185772.59449  -4004696.78249  22868622.0124   22868630.3324
  24190016.440     -195493.62349   -152186.38449  24190015.7914   24190024.9074
 97  3 19 18 25 29.9990000  0  8 31  2 26 27 19 18  7 10
  23113093.819      626427.09649    480671.76449  23113093.5284   23113100.1954
  21159990.028    -3065833.62049  -2373183.45449  21159989.2244   21159995.8034
  24245956.772    -5033256.10649  -3533784.60049  24245957.0034   24245963.9104
  20123682.579    -2688120.05049  -2082191.01649  20123682.1254   20123687.9844
  21370691.591     -437584.69849   -320982.45949  21370691.0384   21370698.4264
  23582690.893     1651165.50549   1276455.43149  23582691.2534   23582698.3704
  22836661.901    -5353729.16849  -4135571.96049  22836660.8094   22836669.4184
  24188560.116     -203147.14549   -158150.19049  24188559.2194   24188567.5304
 97  3 19 18 25 59.9990000  0  8 31  2 26 27 19 18  7 10
  23116785.626      645827.55149    495788.98149  23116784.7234   23116791.6664
  21142316.617    -3158708.02449  -2445553.11349  21142315.8594   21142322.4724
  24216040.073    -5190469.15149  -3656288.23849  24216039.6354   24216046.7074
  20108205.252    -2769454.05349  -2145568.16549  20108204.8294   20108210.8754
  21367898.489     -452262.65849   -332419.85549  21367897.9924   21367905.6324
  23591316.217     1696491.63149   1311774.42749  23591316.2224   23591323.2154
  22804708.204    -5521646.39449  -4266416.48149  22804707.4004   22804715.3644
  24187123.448     -210697.34249   -164033.48749  24187122.1044   24187131.7514
 97  3 19 18 26 29.9990000  0  8 31  2 26 27 19 18  7 10
  23120511.355      665406.25749    511045.07749  23120511.2934   23120517.0544
  21124660.643    -3251490.85949  -2517851.41949  21124660.1524   21124666.6244
  24186134.414    -5347624.24349  -3778746.72349  24186135.0974   24186141.4274
  20092762.245    -2850607.71749  -2208804.78849  20092761.7404   20092767.7554
  21365124.712     -466839.22649   -343778.24049  21365124.1624   21365131.3794
  23599930.263     1741758.05849   1347046.91049  23599929.8894   23599937.3514
  22772757.082    -5689550.42349  -4397250.72049  22772756.2094   22772765.1834
  24185704.754     -218152.33849   -169842.59749  24185702.8864   24185713.0144
 97  3 19 18 26 59.9990000  0  8 31  2 26 27 19 18  7 10
  23124273.098      685174.05849    526448.53049  23124272.7894   23124279.0044
  21107022.877    -3344177.96249  -2590075.12549  21107022.2534   21107028.9234
  24156241.342    -5504712.85649  -3901153.40049  24156240.7534   24156248.3904
  20077357.847    -2931558.43949  -2271883.27249  20077357.4754   20077363.3814
  21362372.993     -481299.75949   -355046.20949  21362372.6074   21362380.0684
  23608535.793     1786980.29849   1382284.94449  23608535.8514   23608542.7504
  22740807.267    -5857447.96249  -4528079.90649  22740806.5174   22740814.3114
  24184305.218     -225506.86249   -175573.41949  24184303.7254   24184312.7584
 97  3 19 18 27 29.9990000  0  8 31  2 26 27 19 18  7 10
  23128073.421      705144.25649    542009.69349  23128073.1684   23128079.6354
  21089399.310    -3436790.57249  -2662240.78649  21089398.5034   21089405.0424
  24126363.833    -5661719.98849  -4023496.59249  24126364.8454   24126370.2224
  20061990.595    -3012314.11949  -2334809.77749  20061990.2934   20061996.3194
  21359645.677     -495632.01549   -366214.22149  21359645.5154   21359652.7334
  23617132.580     1832156.46849   1417487.09149  23617133.0594   23617140.0424
  22708859.839    -6025332.78049  -4658899.18049  22708858.5044   22708867.2664
  24182921.355     -232779.00549   -181240.06549  24182920.7224   24182929.0754
 97  3 19 18 27 59.9990000  0  8 31  2 26 27 19 18  7 10
  23131913.442      725323.35349    557733.64249  23131913.0304   23131919.3274
  21071786.012    -3529349.06449  -2734364.27749  21071785.2774   21071791.8284
  24096501.508    -5818647.38549  -4145777.64149  24096500.9004   24096508.2894
  20046657.825    -3092888.60749  -2397595.10149  20046657.3784   20046663.2124
  21356943.120     -509834.12449   -377280.82349  21356943.0364   21356949.9824
  23625720.313     1877285.13649   1452652.22649  23625719.9244   23625727.7394
  22676915.011    -6193203.84149  -4789707.74249  22676914.5994   22676922.7494
  24181550.950     -239980.79649   -186851.88049  24181549.1124   24181558.2684
 97  3 19 18 28 29.9990000  0  8 31  2 26 27 19 18  7 10
  23135799.481      745744.32149    573646.04949  23135799.0904   23135805.7634
  21054191.933    -3621806.65749  -2806409.14049  21054191.2074   21054197.7944
  24066657.480    -5975478.73249  -4267983.85149  24066656.8004   24066663.7154
  20031361.953    -3173269.01449  -2460229.18549  20031361.4574   20031367.7654
  21354269.004     -523887.12449   -388231.23549  21354268.7374   21354275.8754
  23634304.520     1922395.03349   1487802.73149  23634304.7814   23634313.4114
  22644977.280    -6361037.62449  -4920487.25449  22644976.4494   22644984.8024
  24180197.192     -247095.05349   -192395.48649  24180195.6394   24180205.1194
 97  3 19 18 28 59.9990000  0  8 31  2 26 27 19 18  7 10
  23139736.675      766434.33749    589768.10849  23139735.5144   23139741.7474
  21036623.062    -3714131.56149  -2878350.60349  21036622.2294   21036629.0454
  24036834.156    -6132201.33749  -4390105.33149  24036833.6264   24036840.0634
  20016103.284    -3253453.79749  -2522710.83649  20016102.8004   20016108.9514
  21351624.923     -537782.06549   -399058.49049  21351624.8384   21351631.4814
  23642885.684     1967489.05649   1522940.86649  23642884.9914   23642892.6834
  22613051.490    -6528808.43149  -5051217.69049  22613050.8614   22613058.9054
  24178860.833     -254117.82149   -197867.79349  24178860.1234   24178869.4254
 97  3 19 18 29 29.9990000  0  8 31  2 26 27 19 18  7 10
  23143728.336      787410.60849    606113.23349  23143727.1914   23143734.8364
  21019084.398    -3806297.60749  -2950168.29249  21019083.5314   21019090.4244
  24007035.669    -6288793.65649  -4512125.28349  24007035.9354   24007041.6904
  20000882.769    -3333438.32949  -2585036.45349  20000882.3074   20000888.2214
  21349014.204     -551501.76249   -409749.19149  21349013.9454   21349020.9724
  23651464.259     2012569.28949   1558068.26349  23651464.0624   23651471.5284
  22581145.178    -6696477.01449  -5181868.49549  22581143.8594   22581151.9394
  24177547.088     -261022.11149   -203247.78649  24177546.2534   24177555.4814
 97  3 19 18 29 59.9990000  0  8 31  2 26 27 19 18  7 10
  23147763.171      808614.03049    622635.34849  23147762.0084   23147769.2194
  21001566.783    -3898353.05549  -3021899.80249  21001565.9084   21001572.4904
  23977252.833    -6445303.81449  -4634081.22049  23977253.2034   23977259.3754
  19985693.462    -3413259.01949  -2647234.39949  19985693.4124   19985698.9544
  21346424.972     -565108.64749   -420351.98849  21346424.6984   21346431.6524
  23660032.447     2057595.44849   1593153.50649  23660031.0514   23660040.9364
  22549250.038    -6864087.51549  -5312474.04249  22549249.5094   22549256.7344
  24176246.720     -267855.65949   -208572.67149  24176246.2334   24176254.2384
 97  3 19 18 30 29.9990000  0  8 31  2 26 27 19 18  7 10
  23151847.088      830075.55149    639358.58349  23151846.2904   23151852.9034
  20984077.107    -3990262.05449  -3093517.18149  20984076.2864   20984083.0494
  23947494.353    -6601685.78449  -4755937.27049  23947493.9754   23947501.4664
  19970543.432    -3492873.08649  -2709271.33449  19970542.9814   19970548.8094
  21343864.147     -578566.10849   -430838.34449  21343864.0504   21343870.8624
  23668595.282     2102593.07549   1628216.52549  23668595.4624   23668603.1174
  22517372.350    -7031605.87249  -5443007.78249  22517371.6484   22517379.1984
  24174966.845     -274581.29749   -213813.45049  24174965.8794   24174974.6474
 97  3 19 18 30 59.9990000  0  8 31  2 26 27 19 18  7 10
  23155980.622      851797.44749    656284.70449  23155980.4584   23155987.2294
  20966614.557    -4082028.24649  -3165023.29849  20966613.7054   20966620.4614
  23917764.460    -6757917.45649  -4877676.20949  23917764.2164   23917770.2564
  19955435.508    -3572265.72749  -2771135.73449  19955434.7904   19955440.9714
  21341336.665     -591848.14549   -441188.00949  21341336.0214   21341343.3684
  23677152.709     2147562.16349   1663257.29549  23677152.0194   23677160.9964
  22485515.895    -7199012.61449  -5573454.55549  22485515.5814   22485522.5984
  24173710.526     -281183.38449   -218957.95849  24173709.3594   24173718.2734
 97  3 19 18 31 29.9990000  0  8 31  2 26 27 19 18  7 10
  23160153.315      873724.81949    673370.94449  23160153.0604   23160160.3554
  20949167.020    -4173715.58149  -3236467.96149  20949166.2644   20949173.0364
  23888056.032    -6914036.02249  -4999326.99849  23888055.9834   23888063.1964
  19940363.573    -3651469.14149  -2832852.68049  19940362.9344   19940368.9754
  21338835.875     -604990.17549   -451428.58849  21338835.4824   21338842.2344
  23685694.516     2192449.47049   1698234.34349  23685695.0554   23685702.3244
  22453670.872    -7366359.34949  -5703854.57049  22453670.9074   22453677.5304
  24172468.231     -287711.84949   -224045.10649  24172467.7094   24172475.7224
 97  3 19 18 31 59.9990000  0  8 31  2 26 27 19 18  7 10
  23164374.102      895904.96849    690654.15049  23164373.1484   23164380.0064
  20931746.797    -4265259.60049  -3307800.95049  20931745.9244   20931753.1974
  23858381.482    -7069976.81549  -5120839.26049  23858381.8964   23858388.2724
  19925338.157    -3730428.07049  -2894379.11849  19925337.5764   19925343.8144
  21336372.313     -617936.53449   -461516.67749  21336372.1474   21336379.3324
  23694233.535     2237322.00749   1733199.88149  23694232.8444   23694240.4104
  22421845.862    -7533600.67349  -5834172.44549  22421845.1204   22421852.9084
  24171250.540     -294111.32049   -229031.72649  24171249.1124   24171257.6994
 97  3 19 18 32 29.9980000  0  8 31  2 26 27 19 18  7 10
  23168638.462      918314.10249    708115.78149  23168637.8464   23168644.0024
  20914354.170    -4356658.40449  -3379020.78849  20914353.3744   20914360.1814
  23828736.718    -7225761.02149  -5242229.52249  23828735.7504   23828743.3604
  19910354.711    -3809166.64749  -2955733.85149  19910354.3684   19910360.2594
  21333942.684     -630704.62749   -471465.86749  21333942.8694   21333949.2874
  23702763.620     2282147.64149   1768128.87449  23702763.4984   23702771.6914
  22390037.777    -7700753.26449  -5964421.16249  22390036.8704   22390045.3544
  24170055.408     -300391.97749   -233925.77849  24170054.7394   24170063.0984
 97  3 19 18 32 59.9980000  0  8 31  2 26 27 19 18  7 10
  23172951.562      940979.27049    725776.93149  23172951.9494   23172958.5014
  20896992.150    -4447896.61049  -3450115.48449  20896991.2244   20896998.0744
  23799124.240    -7381375.66049  -5363487.63849  23799123.7794   23799130.5944
  19895417.285    -3887663.57349  -3016900.28849  19895417.0594   19895422.9274
  21331551.475     -643270.74749   -481257.68149  21331550.7654   21331558.3164
  23711292.678     2326968.03849   1803053.78349  23711292.3844   23711299.9994
  22358250.586    -7867795.79649  -6094584.13049  22358249.3064   22358257.6264
  24168889.677     -306517.92249   -238699.27249  24168888.3974   24168897.6284
 97  3 19 18 33 29.9980000  0  8 31  2 26 27 19 18  7 10
  23177305.507      963858.75349    743605.08149  23177305.1464   23177312.0744
  20879655.290    -4539002.35149  -3521106.96749  20879654.4964   20879661.0854
  23769540.169    -7536840.86649  -5484629.31549  23769539.4804   23769547.4114
  19880521.023    -3965944.21849  -3077898.19449  19880520.4924   19880526.5944
  21329190.459     -655677.89349   -490925.61049  21329190.6494   21329197.3134
  23719816.876     2371762.79349   1837958.70849  23719816.9224   23719824.1464
  22326479.606    -8034753.10349  -6224680.68849  22326478.5314   22326485.8014
  24167745.623     -312529.73149   -243383.82049  24167744.9284   24167752.5884
 97  3 19 18 33 59.9980000  0  8 31  2 26 27 19 18  7 10
  23181706.029      986983.15949    761624.07949  23181705.4394   23181712.1514
  20862352.600    -4629928.53949  -3591958.52949  20862351.8544   20862358.6414
  23739992.402    -7692115.30149  -5605622.35049  23739991.9964   23739998.9664
  19865674.254    -4043964.63649  -3138693.32949  19865673.8404   19865679.7564
  21326864.365     -667901.85149   -500450.80049  21326863.8094   21326870.5644
  23728344.460     2416575.43449   1872877.57249  23728344.8494   23728351.9114
  22294733.884    -8201578.08749  -6354674.12149  22294733.1174   22294740.1874
  24166628.880     -318398.11549   -247956.61449  24166628.0224   24166637.0284
 97  3 19 18 34 29.9980000  0  8 31  2 26 27 19 18  7 10
  23186153.218     1010352.66849    779834.06449  23186152.5614   23186159.4154
  20845079.557    -4720699.04149  -3662688.78349  20845078.8924   20845085.6144
  23710482.526    -7847190.88449  -5726460.41049  23710482.1054   23710489.1534
  19850878.789    -4121715.61949  -3199278.51349  19850878.2734   19850884.4364
  21324573.259     -679941.95149   -509832.72449  21324572.8554   21324579.5944
  23736872.296     2461389.45649   1907797.49749  23736871.7564   23736880.5084
  22263013.656    -8368269.19849  -6484563.24049  22263013.3674   22263020.0514
  24165536.189     -324139.95149   -252430.80949  24165534.3494   24165542.6594
 97  3 19 18 34 59.9980000  0  8 31  2 26 27 19 18  7 10
  23190645.370     1033958.82249    798228.44849  23190644.3514   23190651.1934
  20827833.047    -4811330.25249  -3733310.49649  20827832.2524   20827839.0514
  23681011.344    -8002063.06249  -5847139.99549  23681010.7074   23681018.3044
  19836134.431    -4199197.82949  -3259654.26449  19836134.0304   19836140.0134
  21322316.515     -691801.34849   -519073.83649  21322315.9284   21322323.0234
  23745399.266     2506198.34549   1942713.44849  23745399.5024   23745407.0934
  22231317.083    -8534835.90149  -6614355.42349  22231316.2804   22231323.4034
  24164463.367     -329777.83049   -256823.99049  24164462.7114   24164468.7284
 97  3 19 18 35 29.9980000  0  8 31  2 26 27 19 18  7 10
  23195185.067     1057814.57349    816817.32349  23195184.2884   23195190.4184
  20810618.869    -4901791.40249  -3803799.70149  20810618.1994   20810624.8534
  23651582.682    -8156711.82049  -5967645.48449  23651582.7804   23651589.4414
  19821447.251    -4276379.37849  -3319795.73349  19821446.7784   19821452.7744
  21320097.920     -703460.51749   -528158.93149  21320097.7934   21320104.8994
  23753928.001     2551017.12549   1977637.09649  23753928.7474   23753936.3184
  22199649.485    -8701250.29549  -6744028.92149  22199648.6634   22199656.2244
  24163409.887     -335313.93249   -261137.87249  24163408.5804   24163417.4384
 97  3 19 18 35 59.9980000  0  8 31  2 26 27 19 18  7 10
  23199764.693     1081880.35449    835569.84849  23199763.6484   23199770.6904
  20793428.104    -4992129.46249  -3874192.99349  20793427.5304   20793433.8664
  23622184.766    -8311198.94049  -6088025.01249  23622184.8624   23622191.3414
  19806807.870    -4353309.79649  -3379741.52149  19806807.6124   19806813.2404
  21317910.291     -714956.80649   -537117.10949  21317909.9984   21317917.0494
  23762445.962     2595778.67749   2012516.14449  23762445.5214   23762454.0174
  22168002.295    -8867557.03449  -6873618.52549  22168001.0724   22168009.1654
  24162367.375     -340792.46649   -265406.90149  24162364.8834   24162373.2604
 97  3 19 18 36 29.9980000  0  8 31  2 26 27 19 18  7 10
  23204396.592     1106220.99849    854536.57149  23204395.7414   23204402.3284
  20776272.378    -5082283.51049  -3944442.89649  20776271.7264   20776278.3584
  23592828.393    -8465467.42049  -6208234.18549  23592828.0154   23592835.4544
  19792225.638    -4429940.01049  -3439453.38549  19792225.1984   19792231.2024
  21315768.539     -726211.94949   -545887.37549  21315768.3114   21315774.6254
  23770963.811     2640539.66849   2047394.76549  23770963.9444   23770970.9784
  22136388.352    -9033689.04649  -7003071.97049  22136386.8484   22136395.4184
  24161348.557     -346145.94649   -269578.48549  24161347.3574   24161355.9994
 97  3 19 18 36 59.9980000  0  8 31  2 26 27 19 18  7 10
  23209068.716     1130773.15749    873668.09649  23209068.1864   23209073.7534
  20759143.165    -5172298.27549  -4014584.26349  20759142.4854   20759149.0364
  23563498.344    -8619597.46249  -6328335.47449  23563498.5094   23563504.4714
  19777687.806    -4506336.80449  -3498983.35749  19777687.4524   19777693.3584
  21313662.612     -737278.77049   -554510.89549  21313662.3894   21313669.8574
  23779470.526     2685242.13849   2082227.78549  23779470.5254   23779478.3624
  22104799.446    -9199689.46249  -7132422.86849  22104799.1564   22104806.2024
  24160342.158     -351434.25349   -273699.28349  24160341.3444   24160350.7924
 97  3 19 18 37 29.9980000  0  8 31  2 26 27 19 18  7 10
  23213788.981     1155578.16349    892996.63649  23213787.9994   23213794.4634
  20742049.994    -5262123.65349  -4084578.05549  20742049.3684   20742055.7294
  23534202.948    -8773545.72349  -6448295.11549  23534202.1614   23534209.6264
  19763202.547    -4582457.86149  -3558298.47149  19763202.2604   19763207.9274
  21311602.317     -748105.76049   -562947.53749  21311601.7954   21311608.5514
  23787972.323     2729919.12649   2117040.95749  23787971.5304   23787979.9964
  22073246.634    -9365500.59649  -7261626.28249  22073245.7604   22073252.7304
  24159358.441     -356603.19949   -277727.07249  24159356.7654   24159364.0934
 97  3 19 18 37 59.9980000  0  8 31  2 26 27 19 18  7 10
  23218553.812     1180617.73749    912507.96349  23218552.9604   23218559.9204
  20724988.638    -5351781.84849  -4154441.57349  20724987.9394   20724994.3264
  23504941.787    -8927314.01449  -6568114.53149  23504941.1284   23504948.2154
  19748765.702    -4658324.21149  -3617415.12049  19748765.3644   19748771.2784
  21309584.589     -758708.71349   -571209.61049  21309583.9524   21309590.7534
  23796463.380     2774539.99649   2151810.38849  23796463.0014   23796471.8394
  22041725.227    -9531146.24249  -7390700.73349  22041724.8014   22041731.3864
  24158397.321     -361654.24349   -281662.97549  24158397.4594   24158404.7864
 97  3 19 18 38 29.9980000  0  8 31  2 26 27 19 18  7 10
  23223359.222     1205870.44149    932185.37349  23223358.9034   23223365.3664
  20707954.465    -5441297.00249  -4224193.63349  20707953.8824   20707960.3904
  23475715.149    -9080900.99649  -6687792.65549  23475714.3914   23475721.0414
  19734375.109    -4733947.30849  -3676342.21549  19734374.5174   19734380.5584
  21307602.546     -769124.40249   -579325.75749  21307602.2344   21307608.5094
  23804941.774     2819093.89649   2186527.63849  23804940.8924   23804949.8644
  22010231.235    -9696648.03349  -7519663.09149  22010230.5844   22010237.6394
  24157455.855     -366602.74849   -285518.98749  24157456.3214   24157465.3964
 97  3 19 18 38 59.9980000  0  8 31  2 26 27 19 18  7 10
  23228208.726     1231354.66349    952043.17249  23228208.2264   23228214.7894
  20690951.419    -5530648.65949  -4293818.28849  20690950.8234   20690957.0914
  23446529.372    -9234273.19849  -6807303.42349  23446528.9064   23446535.2854
  19720036.760    -4809296.13549  -3735055.59449  19720036.2234   19720041.9624
  21305657.287     -779346.77749   -587291.26349  21305657.1204   21305663.7974
  23813412.785     2863608.90049   2221214.58149  23813412.1884   23813420.5494
  21978766.968    -9861993.73649  -7648503.81649  21978766.9464   21978773.5164
  24156537.906     -371427.10449   -289278.24449  24156537.6674   24156545.6624
 97  3 19 18 39 29.9980000  0  8 31  2 26 27 19 18  7 10
  23233103.195     1257075.31949    972085.21149  23233102.0384   23233109.1944
  20673979.609    -5619836.20249  -4363315.06249  20673978.8524   20673985.4064
  23417391.055    -9387395.97749  -6926619.84049  23417391.5974   23417396.8444
  19705755.161    -4884346.28249  -3793536.23249  19705754.4404   19705760.4054
  21303746.922     -789385.91949   -595114.00049  21303746.6934   21303753.7104
  23821880.432     2908106.37949   2255887.85549  23821880.0064   23821887.8954
  21947331.733   -10027186.55549  -7777225.40849  21947330.9494   21947338.3744
  24155645.754     -376116.37849   -292932.24449  24155645.9944   24155654.1564
 97  3 19 18 39 59.9980000  0  8 31  2 26 27 19 18  7 10
  23238042.400     1283030.88449    992310.29949  23238041.8084   23238048.7304
  20657035.367    -5708878.46449  -4432698.62949  20657034.4334   20657040.9474
  23388302.390    -9540257.58749  -7045732.74849  23388303.0954   23388308.8884
  19691528.933    -4959105.42949  -3851790.11849  19691528.3594   19691534.4104
  21301870.178     -799248.79749   -602799.38749  21301870.3524   21301877.3764
  23830345.964     2952592.87649   2290552.57949  23830345.8454   23830354.0414
  21915925.051   -10192229.45949  -7905830.18349  21915924.4214   21915931.8434
  24154776.842     -380683.62849   -296491.17349  24154775.4274   24154785.9084
 97  3 19 18 40 29.9980000  0  8 31  2 26 27 19 18  7 10
  23243020.229     1309189.55649   1012693.65049  23243019.5324   23243026.2954
  20640114.540    -5797797.87849  -4501986.46649  20640113.6374   20640120.4164
  23359256.787    -9692893.43049  -7164669.73449  23359257.6124   23359262.6974
  19677352.320    -5033604.18149  -3909841.09549  19677351.5934   19677357.6224
  21300024.489     -808948.23049   -610357.42249  21300024.2604   21300030.7044
  23838808.107     2997061.64949   2325203.49849  23838807.8774   23838816.5144
  21884544.923   -10357133.11649  -8034326.46349  21884543.6764   21884551.8964
  24153922.825     -385171.78549   -299988.47649  24153921.7084   24153930.4854
 97  3 19 18 40 59.9980000  0  8 31  2 26 27 19 18  7 10
  23248036.836     1335551.90049   1033235.71649  23248036.1394   23248043.1084
  20623220.565    -5886576.15049  -4571164.32549  20623219.7324   20623226.4984
  23330253.675    -9845306.12349  -7283432.83849  23330253.3524   23330259.7944
  19663228.541    -5107825.22149  -3967675.67549  19663228.0704   19663233.9994
  21298213.900     -818462.87849   -617771.45949  21298213.8134   21298220.5544
  23847268.562     3041521.39749   2359847.37549  23847268.4104   23847276.5504
  21853196.359   -10521870.89049  -8162693.48849  21853195.6674   21853202.1604
  24153082.469     -389588.50449   -303430.08949  24153081.8994   24153090.9744
 97  3 19 18 41 29.9980000  0  8 31  2 26 27 19 18  7 10
  23253098.946     1362153.18949   1053963.96849  23253097.7154   23253105.6934
  20606359.745    -5975180.29649  -4640206.50549  20606359.0154   20606365.4784
  23301298.791    -9997465.15149  -7401998.28149  23301299.0364   23301304.8744
  19649163.241    -5181738.87349  -4025270.73149  19649162.7384   19649168.6704
  21296446.172     -827752.32349   -625010.01949  21296445.6974   21296452.4844
  23855728.455     3085978.07349   2394488.85949  23855728.5234   23855735.9854
  21821888.593   -10686394.30749  -8290893.48649  21821887.5624   21821894.5774
  24152260.397     -393909.08449   -306796.82049  24152258.7294   24152269.2804
 97  3 19 18 41 59.9980000  0  8 31  2 26 27 19 18  7 10
  23258202.556     1388972.83249   1074862.35949  23258201.9524   23258208.4714
  20589529.273    -6063624.96949  -4709124.41449  20589528.2164   20589535.0604
  23272385.686   -10149404.15849  -7520392.26349  23272385.2534   23272391.3894
  19635151.397    -5255371.64449  -4082646.91549  19635151.0084   19635156.8524
  21294719.135     -836827.77749   -632081.82849  21294718.6834   21294726.2184
  23864180.288     3130392.35049   2429097.30649  23864179.7024   23864188.3874
  21790618.010   -10850722.21149  -8418941.14349  21790616.5404   21790624.1354
  24151450.236     -398166.78949   -310114.53149  24151448.7204   24151458.3204
 97  3 19 18 42 29.9980000  0  8 31  2 26 27 19 18  7 10
  23263345.231     1415997.65149   1095920.62549  23263345.1914   23263351.6404
  20572730.442    -6151903.42049  -4777912.80449  20572729.5864   20572736.1934
  23243510.659   -10301143.25949  -7638630.48649  23243509.9934   23243515.9794
  19621196.217    -5328706.82949  -4139791.21749  19621195.9394   19621201.6014
  21293030.094     -845703.89949   -638998.32349  21293029.6524   21293037.0284
  23872619.947     3174742.76549   2463655.98749  23872620.6894   23872627.4474
  21759383.343   -11014860.99049  -8546841.42549  21759382.8434   21759389.8024
  24150649.826     -402373.61649   -313392.60849  24150649.0844   24150657.8414
 97  3 19 18 42 59.9980000  0  8 31  2 26 27 19 18  7 10
  23268531.371     1443251.03649   1117156.99849  23268530.4924   23268537.5194
  20555964.912    -6240006.90849  -4846564.85949  20555964.3524   20555970.7044
  23214678.764   -10452655.63949  -7756692.03449  23214678.0234   23214685.0644
  19607302.864    -5401717.04149  -4196682.29249  19607302.4474   19607308.3804
  21291381.410     -854368.27749   -645749.81149  21291380.8244   21291388.3594
  23881048.580     3219035.26349   2498169.54749  23881047.7954   23881056.9074
  21728186.755   -11178799.92849  -8674585.99149  21728186.9194   21728193.1574
  24149863.729     -406505.07049   -316611.96349  24149862.5484   24149872.6344
 97  3 19 18 43 29.9980000  0  7 31  2 26 27 19 18  7
  23273758.234     1470718.14549   1138559.91349  23273757.7334   23273764.0844
  20539230.650    -6327946.04849  -4915088.84949  20539229.8474   20539236.6394
  23185892.241   -10603929.57449  -7874567.78949  23185891.6514   23185898.0054
  19593469.331    -5474412.83249  -4253328.36849  19593468.8544   19593474.9444
  21289772.729     -862822.12549   -652337.25649  21289772.5274   21289779.3664
  23889463.426     3263255.47349   2532626.77649  23889463.2394   23889471.5924
  21697022.784   -11342567.64549  -8802197.15149  21697021.3054   21697029.2014
 97  3 19 18 43 59.9970000  0  7 31  2 26 27 19 18  7
  23279020.286     1498370.40049   1160107.10349  23279020.3804   23279026.5584
  20522523.927    -6415740.29349  -4983499.93349  20522523.1934   20522529.7354
  23157148.883   -10754976.86949  -7992266.93449  23157148.9894   23157155.0694
  19579694.991    -5546797.67349  -4309732.14449  19579694.5304   19579700.3884
  21288202.238     -871075.20149   -658768.25449  21288201.4654   21288208.6714
  23897865.629     3307408.77249   2567031.87549  23897865.8224   23897874.1184
  21665889.888   -11506172.09449  -8929681.08349  21665889.2374   21665896.3284
 97  3 19 18 44 29.9970000  0  7 31  2 26 27 19 18  7
  23284321.883     1526230.26649   1181816.06149  23284321.5804   23284328.2964
  20505846.169    -6503382.42249  -5051792.48649  20505845.3494   20505851.9644
  23128450.898   -10905785.76049  -8109780.30949  23128449.9174   23128457.8274
  19565980.118    -5618869.80449  -4365892.24449  19565979.5344   19565985.4214
  21286674.448     -879104.15949   -665024.61749  21286673.9024   21286680.9254
  23906260.613     3351524.29449   2601407.53049  23906260.5204   23906269.1424
  21634790.500   -11669600.25049  -9057027.64949  21634789.8474   21634797.0024
 97  3 19 18 44 59.9970000  0  7 31  2 26 27 19 18  7
  23289658.096     1554272.18549   1203666.88449  23289658.1254   23289663.9504
  20489192.310    -6590899.07549  -5119987.27149  20489191.4884   20489198.3324
  23099795.492   -11056371.03449  -8227119.44349  23099794.9754   23099801.8454
  19552315.581    -5690677.32549  -4421846.15649  19552315.1444   19552321.0784
  21285184.190     -886935.76349   -671127.19649  21285183.8144   21285191.2644
  23914642.210     3395569.50349   2635728.40249  23914641.6384   23914650.0894
  21603720.110   -11832876.10149  -9184255.53749  21603719.2064   21603726.3324
 97  3 19 18 45 29.9970000  0  7 31  2 26 27 19 18  7
  23295036.315     1582535.00249   1225689.83049  23295035.4734   23295041.6164
  20472570.778    -6678245.71649  -5188049.57549  20472569.9154   20472576.5254
  23071190.205   -11206692.88749  -8344253.31049  23071189.7684   23071196.2614
  19538707.898    -5762186.17349  -4477567.34049  19538707.4744   19538713.1874
  21283736.396     -894544.06949   -677055.77749  21283736.2064   21283743.1914
  23923017.173     3439579.76049   2670022.03549  23923016.1914   23923024.6074
  21572688.233   -11995949.39849  -9311325.59649  21572687.2694   21572694.6934
 97  3 19 18 45 59.9970000  0  7 31  2 26 27 19 18  7
  23300453.493     1611002.38949   1247872.19149  23300452.9924   23300459.7624
  20455974.884    -6765457.65649  -5256006.91949  20455974.0044   20455980.6904
  23042628.295   -11356786.57549  -8461209.39649  23042628.0314   23042634.7594
  19525149.372    -5833436.50949  -4533087.08249  19525148.9114   19525154.8004
  21282323.852     -901967.19149   -682840.05749  21282323.3444   21282331.2544
  23931381.219     3483532.68049   2704270.99449  23931381.1504   23931389.4654
  21541694.231   -12158823.40849  -9438240.36649  21541693.3764   21541700.7904
 97  3 19 18 46 29.9970000  0  7 31  2 26 27 19 18  7
  23305916.848     1639712.72149   1270243.85449  23305916.0504   23305922.7104
  20439414.979    -6852480.43749  -5323816.86649  20439414.3084   20439421.0484
  23014121.968   -11506588.12649  -8577937.83249  23014120.7364   23014127.3404
  19511647.456    -5904389.34349  -4588375.00749  19511646.7984   19511652.7704
  21280953.283     -909169.80649   -688452.51949  21280953.1434   21280960.5034
  23939740.515     3527460.21149   2738500.16649  23939740.9224   23939748.8014
  21510745.970   -12321457.28549  -9564968.01949  21510744.7214   21510752.2634
 97  3 19 18 46 59.9970000  0  7 31  2 26 27 19 18  7
  23311418.467     1668624.09949   1292772.18749  23311418.2014   23311424.4984
  20422884.287    -6939349.43349  -5391506.98349  20422883.4524   20422890.0984
  22985666.938   -11656120.10649  -8694456.21749  22985666.4744   22985673.2934
  19498199.609    -5975058.25549  -4643441.68949  19498199.3674   19498205.1814
  21279616.075     -916197.00749   -693928.29649  21279616.0084   21279623.3514
  23948086.857     3571319.88449   2772676.46249  23948086.5754   23948095.5294
  21479840.344   -12483866.81949  -9691520.85549  21479840.2564   21479846.6664
 97  3 19 18 47 29.9970000  0  7 31  2 26 27 19 18  7
  23316958.101     1697735.22149   1315456.15149  23316958.0964   23316964.8504
  20406382.527    -7026066.72349  -5459078.88749  20406381.8264   20406388.3324
  22957264.086   -11805377.90749  -8810760.97749  22957263.8374   22957270.0344
  19484808.835    -6045427.25149  -4698274.67949  19484808.2084   19484814.3194
  21278312.531     -923047.19349   -699266.12949  21278312.6614   21278320.0464
  23956422.785     3615125.04149   2806810.28049  23956422.6644   23956430.4574
  21448979.194   -12646043.15549  -9817891.98149  21448978.4214   21448986.2074
 97  3 19 18 47 59.9970000  0  7 31  2 26 27 19 18  7
  23322527.874     1727004.37749   1338263.25549  23322527.1304   23322534.1374
  20389905.861    -7112652.14749  -5526548.03749  20389905.0524   20389911.9654
  22928909.093   -11954384.19449  -8926869.72849  22928908.9274   22928914.8474
  19471471.329    -6115516.26649  -4752889.49049  19471470.7114   19471476.8254
  21277038.569     -929742.44449   -704483.24349  21277038.2434   21277045.8624
  23964743.086     3658847.90549   2840879.98049  23964742.9244   23964751.7244
  21418156.197   -12808019.26749  -9944107.08249  21418154.9004   21418162.6844
 97  3 19 18 48 29.9970000  0  7 31  2 26 27 19 18  7
  23328139.762     1756494.76549   1361242.75849  23328139.5154   23328146.5494
  20373471.983    -7199012.92949  -5593842.15149  20373471.2994   20373477.9264
  22900616.486   -12103062.87049  -9042723.22349  22900616.5234   22900622.3534
  19458205.326    -6185229.71349  -4807211.66749  19458204.9554   19458210.7704
  21275810.797     -936194.42149   -709510.78649  21275810.7434   21275817.1974
  23973060.829     3702557.74349   2874939.51249  23973060.0364   23973067.9954
  21387383.683   -12969729.78349 -10070115.22749  21387382.8234   21387389.9724
 97  3 19 18 48 59.9970000  0  7 31  2 26 27 19 18  7
  23333776.218     1786114.06949   1384322.72249  23333776.0034   23333782.7144
  20357062.403    -7285245.96949  -5661036.71349  20357061.7994   20357068.4064
  22872365.582   -12251522.27049  -9158405.83949  22872365.8214   22872371.8414
  19444993.994    -6254655.73949  -4861309.86549  19444993.5214   19444999.4854
  21274613.996     -942484.07449   -714411.85349  21274613.8214   21274620.6994
  23981359.390     3746166.43449   2908920.25549  23981359.1014   23981368.1144
  21356644.154   -13131267.09049 -10195988.39749  21356643.3034   21356650.0594
 97  3 19 18 49 29.9970000  0  8 31  2 26 27 19 18  7 15
  23339443.216     1815894.10149   1407527.91849  23339442.7104   23339449.8724
  20340688.258    -7371292.72549  -5728086.12749  20340687.6154   20340694.3744
  22844164.591   -12399719.57449  -9273884.22749  22844164.4044   22844170.8194
  19431845.133    -6323753.41649  -4915152.21449  19431844.5644   19431850.8424
  21273461.622     -948540.00849   -719130.79349  21273461.0294   21273469.0004
  23989648.185     3789723.89149   2942861.04149  23989647.6134   23989656.1334
  21325942.634   -13292604.54549 -10321705.84349  21325941.8284   21325948.1214
  23756550.175    -6314421.26949  -3269892.25549  23756548.6044   23756559.6454
 97  3 19 18 49 59.9970000  0  8 31  2 26 27 19 18  7 15
  23345135.396     1845806.58549   1430836.34649  23345134.7794   23345141.7184
  20324348.511    -7457158.65849  -5794994.63749  20324347.8174   20324354.3704
  22816012.344   -12547660.46549  -9389162.80849  22816012.3634   22816019.0244
  19418757.191    -6392531.16949  -4968745.26549  19418756.9144   19418762.8214
  21272355.568     -954352.33349   -723659.90349  21272355.1554   21272362.3494
  23997922.173     3833203.82549   2976741.44849  23997921.9744   23997930.6634
  21295277.922   -13453748.50649 -10447272.51349  21295277.6764   21295283.7594
  23731774.157    -6444620.43849  -3371346.07749  23731773.2754   23731781.7454
 97  3 19 18 50 29.9970000  0  7 31  2 26 27 19  7 15
  23350853.310     1875854.44149   1454250.25249  23350852.4214   23350859.9454
  20308037.505    -7542873.67449  -5861785.55049  20308037.0094   20308043.4634
  22787907.185   -12695353.94349  -9504248.59849  22787906.5814   22787913.6894
  19405727.897    -6461000.69049  -5022098.14149  19405727.2154   19405733.2304
  21271295.091     -959925.18649   -728002.41349  21271294.7294   21271301.8254
  21264649.911   -13614699.40549 -10572688.74349  21264649.2004   21264655.8934
  23707040.242    -6574598.66249  -3472627.75049  23707039.2284   23707048.6854
 97  3 19 18 50 59.9970000  0  7 31  2 26 27 19  7 15
  23356601.379     1906060.61949   1477787.53349  23356600.7624   23356607.6254
  20291754.288    -7628442.71349  -5928462.71949  20291753.4814   20291760.2404
  22759853.243   -12842778.04449  -9619124.48849  22759853.2314   22759859.1704
  19392759.434    -6529150.43849  -5075201.83649  19392758.9424   19392765.1494
  21270282.061     -965249.02749   -732150.88049  21270281.8204   21270289.4904
  21234063.349   -13775432.57549 -10697935.32049  21234062.4544   21234069.8234
  23682350.844    -6704342.71549  -3573726.94749  23682349.4014   23682358.5354
 97  3 19 18 51 29.9970000  0  7 31  2 26 27 19  7 15
  23362381.774     1936436.70449   1501457.20149  23362381.0304   23362387.7334
  20275501.460    -7713851.99249  -5995015.39949  20275500.8034   20275507.4944
  22731854.927   -12989910.08549  -9733772.80149  22731854.8044   22731861.6114
  19379853.785    -6596970.08949  -5128048.31949  19379853.1774   19379859.4664
  21269314.938     -970331.23549   -736111.08149  21269314.4204   21269321.9464
  21203521.724   -13935929.82849 -10822998.05949  21203521.5474   21203528.3194
  23657708.271    -6833840.20849  -3674634.02149  23657708.2294   23657716.1924
 97  3 19 18 51 59.9970000  0  7 31  2 26 27 19  7 15
  23368197.752     1966999.62049   1525272.45749  23368197.0644   23368204.1664
  20259274.879    -7799123.48849  -6061460.71649  20259274.0564   20259280.6104
  22703912.087   -13136750.61849  -9848193.96649  22703910.9994   22703918.4854
  19367009.291    -6664468.31449  -5180644.33449  19367008.7194   19367014.7554
  21268387.296     -975206.37549   -739909.91249  21268387.0724   21268394.4264
  21173028.673   -14096172.04549 -10947862.07649  21173028.1584   21173035.2344
  23633111.470    -6963097.09949  -3775353.63149  23633110.3484   23633119.0154
 97  3 19 18 52 29.9970000  0  7 31  2 26 27 19  7 15
  23374043.913     1997721.44849   1549211.57049  23374043.0174   23374051.0944
  20243065.360    -7884305.21849  -6127836.08449  20243064.9684   20243071.3914
  22676016.575   -13283342.37649  -9962421.27349  22676016.5704   22676022.9844
  19354215.507    -6731700.27749  -5233032.88049  19354214.8664   19354220.9064
  21267486.700     -979939.20349   -743597.86349  21267486.7054   21267493.0144
  21142576.570   -14256198.99249 -11072558.36149  21142575.7194   21142582.5584
  23608551.898    -7092157.97349  -3875920.49649  23608550.5414   23608559.3404
 97  3 19 18 52 59.9970000  0  7 31  2 26 27 19  7 15
  23379933.794     2028672.79149   1573329.49949  23379933.0694   23379939.2024
  20226893.076    -7969291.25949  -6194058.96349  20226892.2444   20226898.9224
  22648184.244   -13429602.18249 -10076389.92249  22648184.5584   22648191.0654
  19341486.843    -6798589.63249  -5285154.45449  19341486.1884   19341492.4894
  21266626.546     -984459.77049   -747120.40349  21266626.4814   21266633.4924
  21112179.171   -14415938.44349 -11197030.61149  21112178.8934   21112185.6844
  23584045.297    -7220940.42549  -3976270.41749  23584045.0254   23584054.0354
 97  3 19 18 53 29.9970000  0  7 31  2 26 27 19  7 15
  23385861.573     2059823.35649   1597602.65049  23385860.5964   23385867.6044
  20210754.241    -8054101.09849  -6260144.54649  20210753.3374   20210759.9004
  22620410.987   -13575551.52949 -10190116.65949  22620411.3354   22620417.0844
  19328818.166    -6865163.94049  -5337030.54149  19328817.7084   19328823.6464
  21265800.320     -988801.56149   -750503.65449  21265799.8334   21265806.4434
  21081831.991   -14575413.79549 -11321297.08149  21081831.1424   21081838.1874
  23559587.355    -7349467.21849  -4076421.13249  23559585.9484   23559595.2714
 97  3 19 18 53 59.9970000  0  7 31  2 26 27 19  7 15
  23391826.302     2091168.26749   1622027.27149  23391825.2664   23391832.3714
  20194644.943    -8138755.86249  -6326109.28149  20194644.0194   20194650.5284
  22592695.792   -13721195.56949 -10303605.47749  22592695.8524   22592701.6194
  19316207.767    -6931432.18449  -5388668.12749  19316207.2384   19316213.1104
  21265010.135     -992954.21649   -753739.51149  21265009.5204   21265016.8234
  21051532.499   -14734638.44249 -11445368.19449  21051531.9884   21051538.6114
  23535176.810    -7477745.29849  -4176378.05449  23535176.2174   23535184.4314
 97  3 19 18 54 29.9970000  0  7 31  2 26 27 19  7 15
  23397829.631     2122715.92449   1646609.85949  23397828.2814   23397836.3374
  20178569.639    -8223232.13249  -6391934.94049  20178568.8174   20178575.6254
  22565044.515   -13866503.91049 -10416832.72549  22565044.9444   22565050.4194
  19303663.272    -6997354.04649  -5440035.81049  19303662.7824   19303668.9034
  21264262.485     -996883.38949   -756801.22749  21264262.5574   21264269.4704
  21021280.006   -14893616.00149 -11569246.77949  21021278.8814   21021286.5224
  23510819.186    -7605745.40049  -4276118.36549  23510818.7394   23510828.1104
 97  3 19 18 54 59.9960000  0  7 31  2 26 27 19  7 15
  23403864.845     2154431.15249   1671323.01249  23403864.5124   23403871.2244
  20162524.015    -8307552.60749  -6457639.20249  20162523.3564   20162529.8594
  22537455.512   -14011485.10449 -10529805.06149  22537454.6554   22537462.0444
  19291184.921    -7062928.34949  -5491132.66549  19291184.3414   19291190.4054
  21263555.662    -1000597.76949   -759695.57549  21263555.8274   21263562.8114
  20991070.609   -15052367.08649 -11692948.88749  20991070.0554   20991076.8014
  23486512.275    -7733479.12749  -4375651.11749  23486511.2674   23486520.1964
 97  3 19 18 55 29.9960000  0  7 31  2 26 27 19  7 15
  23409923.955     2186272.08449   1696134.12849  23409923.1374   23409930.8864
  20146496.324    -8391778.72849  -6523269.93549  20146495.6114   20146501.8824
  22509921.881   -14156175.23749 -10642550.58349  22509921.5064   22509926.9514
  19278768.685    -7128176.17449  -5541975.12649  19278768.4064   19278774.1124
  21262886.646    -1004113.54949   -762435.18149  21262886.1504   21262893.7664
  20960899.009   -15210919.59749 -11816496.26249  20960898.3724   20960905.1794
  23462249.453    -7860981.37449  -4475003.51549  23462248.5534   23462256.9504
 97  3 19 18 55 59.9960000  0  7 31  2 26 27 19  7 15
  23416005.426     2218230.51849   1721036.80849  23416004.9974   23416012.1364
  20130486.549    -8475910.71449  -6588827.31049  20130485.7054   20130492.3134
  22482444.550   -14300569.79949 -10755065.78949  22482444.4184   22482450.1564
  19266415.302    -7193093.56649  -5592560.10549  19266414.7694   19266420.5084
  21262258.462    -1007415.09649   -765007.84849  21262258.8944   21262265.5384
  20930766.621   -15369266.20849 -11939883.20649  20930765.6624   20930773.1704
  23438033.177    -7988238.34449  -4574164.78549  23438032.0684   23438041.0644
 97  3 19 18 56 29.9960000  0  7 31  2 26 27 19  7 15
  23422111.891     2250320.27849   1746041.79849  23422110.9904   23422117.6544
  20114502.816    -8559905.72749  -6654277.95449  20114502.0604   20114508.5654
  22455027.653   -14444646.50949 -10867333.32749  22455027.6784   22455033.2514
  19254131.385    -7257646.03049  -5642860.72849  19254130.7434   19254136.7264
  21261674.733    -1010482.53149   -767398.08649  21261674.4494   21261681.3754
  20900683.490   -15527354.13849 -12063068.57149  20900682.7184   20900690.1124
  23413869.893    -8115216.88949  -4673109.10949  23413869.4854   23413877.5604
 97  3 19 18 56 59.9960000  0  7 31  2 26 27 19  7 15
  23428244.000     2282544.80349   1771151.80249  23428243.4554   23428250.6984
  20098549.467    -8643741.16249  -6719604.24949  20098548.6044   20098555.2454
  22427672.244   -14588399.79949 -10979348.83249  22427671.6764   22427677.3444
  19241918.077    -7321827.50749  -5692872.26849  19241917.4684   19241923.4904
  21261139.227    -1013296.35549   -769590.70549  21261138.6904   21261145.6494
  20870659.105   -15685133.25749 -12186013.31549  20870658.5944   20870665.6854
  23389761.980    -8241905.01949  -4771827.12649  23389761.3454   23389769.7674
 97  3 19 18 57 29.9960000  0  7 31  2 26 27 19  7 15
  23434400.932     2314899.43049   1796363.20449  23434401.2524   23434407.2704
  20082626.535    -8727416.72549  -6784805.96449  20082625.8474   20082632.2834
  22400376.474   -14731839.79849 -11091120.22649  22400375.6034   22400382.5494
  19229771.141    -7385660.06749  -5742611.92349  19229770.6574   19229776.4534
  21260648.733    -1015874.08349   -771599.35549  21260647.9904   21260655.5304
  20840695.359   -15842593.71849 -12308709.74949  20840694.8774   20840701.2624
  23365708.440    -8368307.39749  -4870322.48749  23365708.0974   23365716.6234
 97  3 19 18 57 59.9960000  0  7 31  2 26 27 19  7 15
  23440579.470     2347367.47949   1821662.97349  23440578.8354   23440585.0274
  20066732.168    -8810942.27949  -6849890.79849  20066731.4214   20066737.6904
  22373134.141   -14874998.80249 -11202672.65149  22373133.7924   22373140.3284
  19217684.935    -7449173.60049  -5792102.99349  19217684.4344   19217690.5334
  21260194.950    -1018258.90949   -773457.69949  21260194.2844   21260201.5894
  20810787.789   -15999759.07449 -12431176.24349  20810786.7724   20810794.2644
  23341704.666    -8494448.00949  -4968613.86049  23341703.5354   23341712.6894
 97  3 19 18 58 29.9960000  0  7 31  2 26 27 19  7 15
  23446774.403     2379921.84749   1847030.00849  23446773.8064   23446780.6154
  20050865.545    -8894321.82749  -6914861.85649  20050864.7854   20050871.0704
  22345941.252   -15017898.10249 -11314022.72149  22345940.9074   22345946.7204
  19205656.614    -7512383.02949  -5841357.09649  19205656.1614   19205661.8664
  21259769.648    -1020493.83349   -775199.22849  21259769.1184   21259776.2404
  20780930.775   -16156658.36249 -12553435.40049  20780929.8124   20780936.8904
  23317746.294    -8620350.73549  -5066719.88449  23317745.8004   23317754.0594
 97  3 19 18 58 59.9960000  0  7 31  2 26 27 19  7 15
  23452995.560     2412613.76049   1872504.21949  23452995.3994   23453001.1214
  20035035.969    -8977506.69349  -6979681.21849  20035035.1744   20035041.4504
  22318810.065   -15160473.03849 -11425120.03549  22318809.7504   22318816.2694
  19193694.718    -7575243.26349  -5890339.09749  19193694.2024   19193700.1894
  21259381.312    -1022534.69149   -776789.54849  21259381.5764   21259387.6034
  20751130.696   -16313258.56849 -12675461.50749  20751129.9024   20751136.6004
  23293843.976    -8745958.30949  -5164595.91049  23293842.8384   23293851.4614
 97  3 19 18 59 29.9960000  0  7 31  2 26 27 19  7 15
  23459245.140     2445455.30349   1898095.02549  23459244.2734   23459250.6134
  20019242.734    -9060500.32749  -7044351.57049  20019241.8974   20019248.3134
  22291740.907   -15302722.37649 -11535963.64449  22291740.2894   22291746.5544
  19181798.414    -7637758.76649  -5939052.47849  19181797.8684   19181803.8214
  21259028.273    -1024390.11149   -778235.37349  21259027.5514   21259034.8764
  20721383.117   -16469582.97149 -12797272.70949  20721382.7254   20721389.3684
  23269999.502    -8871261.50249  -5262234.75049  23269998.0364   23270006.5484
 97  3 19 18 59 59.9960000  0  6  2 26 27 19  7 15
  20003488.405    -9143289.67449  -7108862.73249  20003487.5944   20003494.2274
  22264738.464   -15444621.06649 -11646534.01349  22264738.5524   22264744.5904
  19169973.629    -7699898.63049  -5987473.15249  19169973.0044   19169979.0494
  21258715.022    -1026036.70549   -779518.46149  21258714.8984   21258722.1404
  20691689.379   -16625624.57049 -12918863.53149  20691688.7924   20691695.8204
  23246217.731    -8996234.54249  -5359616.32849  23246216.3994   23246225.1284
 97  3 19 19  0 29.9960000  0  6  2 26 27 19  7 15
  19987766.366    -9225909.60149  -7173241.88449  19987765.7584   19987772.2814
  22237801.639   -15586175.15049 -11756835.86249  22237801.2714   22237807.0494
  19158215.366    -7761688.68349  -6035621.24649  19158214.8744   19158220.8664
  21258439.776    -1027483.33849   -780645.74349  21258438.5794   21258446.2884
  20662045.224   -16781405.60049 -13040251.32149  20662044.5644   20662051.7194
  23222495.742    -9120894.30849  -5456753.79749  23222494.6314   23222504.4794
 97  3 19 19  0 59.9960000  0  6  2 26 27 19  7 15
  19972071.592    -9308386.44749  -7237509.54449  19972071.0834   19972077.3874
  22210932.362   -15727373.82749 -11866860.77149  22210931.9524   22210937.8434
  19146522.954    -7823132.57349  -6083499.60749  19146522.2184   19146528.2344
  21258206.621    -1028708.63349   -781600.55949  21258205.9104   21258213.5154
  20632454.751   -16936904.83049 -13161419.52949  20632454.2994   20632461.1844
  23198835.421    -9245230.49649  -5553639.12749  23198834.7114   23198844.0324
 97  3 19 19  1 29.9960000  0  6  2 26 27 19  7 15
  19956398.919    -9390746.94549  -7301686.54849  19956398.1134   19956404.9214
  22184128.568   -15868228.57849 -11976617.68149  22184128.1084   22184133.5314
  19134894.827    -7884238.82849  -6131114.87649  19134894.0194   19134900.0934
  21258013.831    -1029721.69949   -782390.00049  21258013.7434   21258020.7744
  20602916.071   -17092131.81449 -13282375.60249  20602915.3884   20602921.9064
  23175232.577    -9369264.70949  -5650289.15049  23175231.8714   23175240.0324
 97  3 19 19  1 59.9960000  0  6  2 26 27 19  7 15
  19940743.486    -9473016.70349  -7365792.84449  19940742.6514   19940749.4834
  22157385.619   -16008763.27249 -12086125.21149  22157385.2714   22157391.0364
  19123326.294    -7945031.76049  -6178485.99649  19123326.0174   19123331.6464
  21257856.434    -1030548.92949   -783034.62549  21257856.1124   21257863.5844
  20573425.231   -17247107.01649 -13403135.47049  20573424.6844   20573431.5064
  23151680.321    -9493032.66649  -5746731.69049  23151679.6664   23151687.8284
 97  3 19 19  2 29.9960000  0  6  2 26 27 19  7 15
  19925113.525    -9555152.57949  -7429794.81649  19925112.7614   19925119.3224
  22130710.090   -16148943.83549 -12195356.78949  22130709.7984   22130716.1414
  19111823.753    -8005477.98249  -6225586.95449  19111823.4604   19111829.4324
  21257742.826    -1031146.09349   -783499.97349  21257743.3314   21257749.9224
  20543989.813   -17401791.42249 -13523668.75449  20543989.2324   20543995.7204
  23128185.003    -9616501.58049  -5842941.20349  23128183.0724   23128193.1044
 97  3 19 19  2 59.9960000  0  6  2 26 27 19  7 15
  19909515.403    -9637121.18449  -7493666.45249  19909514.1704   19909520.8194
  22104104.792   -16288755.69749 -12304301.06949  22104104.7174   22104111.2024
  19100391.272    -8065556.26049  -6272401.20049  19100391.0544   19100396.7534
  21257675.681    -1031499.09649   -783775.07849  21257674.9784   21257682.8624
  20514612.903   -17556168.22949 -13643962.34149  20514612.4494   20514618.9954
  23104749.869    -9739653.96649  -5938904.08849  23104749.3154   23104757.6684
 97  3 19 19  3 29.9960000  0  6  2 26 27 19  7 15
  19893956.358    -9718884.39049  -7557378.03749  19893955.6314   19893962.1364
  22077568.652   -16428204.06249 -12412962.09449  22077568.9474   22077573.8014
  19089031.199    -8125253.93849  -6318918.86949  19089030.6594   19089036.7404
  21257655.391    -1031606.05649   -783858.43149  21257654.9524   21257662.3994
  20485294.154   -17710239.35849 -13764017.74349  20485293.3764   20485300.3344
  23081375.791    -9862485.13449  -6034616.66849  23081374.8574   23081382.9064
 97  3 19 19  3 59.9960000  0  6  2 26 27 19  7 15
  19878435.930    -9800444.49549  -7620931.36149  19878435.2864   19878441.7824
  22051096.532   -16567316.27249 -12521361.17549  22051096.3144   22051103.1154
  19077741.673    -8184580.78749  -6365147.58149  19077741.3154   19077747.1874
  21257679.161    -1031481.18649   -783761.18749  21257678.2764   21257686.7224
  20456031.659   -17864014.85849 -13883842.78549  20456031.0844   20456037.6774
  23058062.739    -9984995.93649  -6130079.60749  23058062.7554   23058070.0494
 97  3 19 19  4 29.9960000  0  6  2 26 27 19  7 15
  19862953.420    -9881805.86049  -7684329.82149  19862952.6844   19862959.2134
  22024688.642   -16706090.40649 -12629496.83949  22024688.1064   22024693.6644
  19066522.666    -8243537.03049  -6411087.51549  19066522.0614   19066528.0934
  21257746.890    -1031125.60849   -783484.13549  21257746.5384   21257753.7094
  20426827.488   -18017483.89149 -14003429.01749  20426827.0724   20426833.8034
  23034812.962   -10107174.65849  -6225283.80049  23034811.0024   23034820.5564
 97  3 19 19  4 59.9960000  0  6  2 26 27 19  7 15
  19847500.292    -9963012.56049  -7747607.76649  19847499.5224   19847506.2234
  21998339.678   -16844555.03049 -12737391.31849  21998339.7664   21998345.7474
  19055367.257    -8302159.01049  -6456766.98649  19055366.6044   19055372.6654
  21257849.161    -1030588.47849   -783065.61349  21257848.6184   21257856.2684
  20397678.217   -18170664.31949 -14122790.36449  20397677.7724   20397683.7574
  23011621.365   -10229047.59249  -6320249.70649  23011620.8564   23011629.5224
 97  3 19 19  5 29.9960000  0  6  2 26 27 19  7 15
  19832074.373   -10044076.27949  -7810774.29849  19832073.6714   19832080.2044
  21972050.820   -16982703.96449 -12845039.81849  21972050.6964   21972056.8604
  19044277.082    -8360437.95949  -6502179.15449  19044276.3524   19044282.4804
  21257987.344    -1029862.21849   -782499.73049  21257986.9424   21257994.2944
  20368586.299   -18323543.42849 -14241916.91749  20368585.5824   20368591.7484
  22988490.362   -10350601.51649  -6414967.02049  22988489.8004   22988498.3484
 97  3 19 19  5 59.9950000  0  6  2 26 27 19  7 15
  19816692.470   -10124908.89149  -7873760.74549  19816691.8604   19816698.3424
  21945849.020   -17120395.36749 -12952331.78449  21945849.0154   21945855.6574
  19033274.727    -8418255.65849  -6547231.90649  19033274.3584   19033280.3764
  21258182.957    -1028834.69849   -781699.09649  21258182.1374   21258189.5494
  20339575.128   -18475997.82449 -14360712.51949  20339573.8564   20339580.4384
  22965443.839   -10471712.15449  -6509338.91649  22965442.7754   22965452.2404
 97  3 19 19  6 29.9950000  0  6  2 26 27 19  7 15
  19801346.828   -10205550.74549  -7936598.55049  19801346.2334   19801352.3804
  21919732.584   -17257638.08949 -13059274.13849  21919732.8654   21919738.7514
  19022353.348    -8475648.07249  -6591953.27149  19022352.7094   19022358.8324
  21258430.684    -1027532.94949   -780684.76849  21258430.8154   21258436.6634
  20310638.061   -18628062.77849 -14479204.65749  20310637.4084   20310643.7524
  22942474.898   -10592414.79049  -6603392.90649  22942474.8054   22942482.2214
 97  3 19 19  6 59.9950000  0  6  2 26 27 19  7 15
  19786045.920   -10285957.66349  -7999253.28549  19786045.2764   19786051.6014
  21893712.343   -17394375.50849 -13165822.75149  21893712.4084   21893718.8034
  19011523.708    -8532558.36049  -6636298.95449  19011523.2164   19011529.2274
  21258739.503    -1025910.39149   -779420.47349  21258739.9014   21258746.0714
  20281781.721   -18779703.51249 -14597366.24349  20281781.0054   20281787.4064
  22919592.721   -10712661.78049  -6697091.84049  22919591.4074   22919600.7704
 97  3 19 19  7 29.9950000  0  6  2 26 27 19  7 15
  19770778.450   -10366188.91849  -8061771.14049  19770777.8354   19770783.9384
  21867774.378   -17530680.38749 -13272034.31749  21867773.6154   21867780.2664
  19000774.214    -8589047.49049  -6680316.46549  19000773.7084   19000779.7424
  21259097.957    -1024026.93549   -777952.87249  21259097.1634   21259104.8684
  20252990.157   -18931004.00349 -14715262.69549  20252989.3274   20252996.1094
  22896783.304   -10832526.04949  -6790492.54249  22896782.9274   22896790.7554
 97  3 19 19  7 59.9950000  0  6  2 26 27 19  7 15
  19755546.346   -10446234.15249  -8124144.04049  19755545.4404   19755551.9684
  21841919.140   -17666550.55849 -13377907.14849  21841918.7644   21841924.9534
  18990104.783    -8645115.82449  -6724006.07949  18990104.4244   18990110.2724
  21259503.846    -1021893.88249   -776290.78649  21259503.6224   21259510.8544
  20224263.172   -19081965.24549 -14832894.79549  20224262.6144   20224269.0754
  22874046.803   -10952007.17149  -6883594.69249  22874046.2174   22874053.1354
 97  3 19 19  8 29.9950000  0  6  2 26 27 19  7 15
  19740340.194   -10526142.70949  -8186410.44149  19740339.3374   19740345.7734
  21816131.563   -17802065.39249 -13483503.09949  21816131.1874   21816137.2064
  18979498.999    -8700849.55149  -6767434.96049  18979498.6374   18979504.3674
  21259943.572    -1019583.22449   -774490.30249  21259942.9984   21259950.6034
  20195588.404   -19232651.81749 -14950312.87449  20195587.4964   20195594.2814
  22851369.834   -11071175.43149  -6976453.04049  22851368.8674   22851376.4074
 97  3 19 19  8 59.9950000  0  6  2 26 27 19  7 15
  19725164.992   -10605888.89849  -8248550.32549  19725164.0234   19725170.4684
  21790411.722   -17937223.60549 -13588821.15749  21790411.8724   21790418.0504
  18968961.591    -8756224.17849  -6810584.02449  18968961.0224   18968967.2034
  21260422.651    -1017065.78849   -772528.68949  21260422.8764   21260430.1184
  20166972.833   -19383027.56749 -15067488.74849  20166971.8264   20166978.7084
  22828757.459   -11190004.13849  -7069046.82049  22828756.6314   22828764.5794
 97  3 19 19  9 29.9950000  0  6  2 26 27 19  7 15
  19710019.732   -10685477.76549  -8310567.61549  19710019.1984   19710025.6234
  21764759.263   -18072027.97549 -13693863.49949  21764758.9014   21764764.5924
  18958487.906    -8811263.68949  -6853471.95749  18958487.2324   18958493.2354
  21260939.526    -1014349.93949   -770412.48349  21260939.6884   21260946.2224
  20138417.807   -19533085.05649 -15184416.62549  20138417.0444   20138423.7854
  22806209.363   -11308495.15549  -7161377.43749  22806208.7004   22806216.1124
 97  3 19 19  9 59.9950000  0  6  2 26 27 19  7 15
  19694899.608   -10764934.55849  -8372481.99249  19694898.8954   19694905.4944
  21739173.523   -18206481.43349 -13798632.39249  21739173.5334   21739179.9294
  18948072.664    -8865996.09349  -6896120.58749  18948072.3524   18948078.2844
  21261491.476    -1011449.60849   -768152.51449  21261491.8754   21261498.7594
  20109920.812   -19682837.47849 -15301106.78849  20109920.1224   20109926.9284
  22783723.495   -11426658.78449  -7253452.96349  22783721.9584   22783730.4714
 97  3 19 19 10 29.9950000  0  6  2 26 27 19  7 15
  19679805.760   -10844253.32749  -8434288.82049  19679805.1244   19679811.1794
  21713656.023   -18340576.72149 -13903122.20049  21713656.3394   21713662.3744
  18937721.212    -8920393.30449  -6938508.03349  18937720.7594   18937726.7494
  21262082.991    -1008341.37049   -765730.55149  21262081.9874   21262089.5314
  20081483.359   -19832277.12149 -15417553.22849  20081482.6494   20081488.9884
  22761302.376   -11544482.45749  -7345263.57349  22761300.7794   22761309.8514
 97  3 19 19 10 59.9950000  0  6  2 26 27 19  7 15
  19664733.442   -10923458.77949  -8496007.34849  19664732.7294   19664738.7714
  21688203.523   -18474330.33649 -14007345.76449  21688203.5094   21688209.6204
  18927435.884    -8974443.32249  -6980624.93749  18927435.3894   18927441.0164
  21262712.372    -1005034.01849   -763153.42449  21262712.5404   21262720.1254
  20053102.789   -19981417.63049 -15533766.57649  20053102.0764   20053108.9084
  22738944.916   -11661971.41749  -7436813.36649  22738944.3864   22738952.9114
 97  3 19 19 11 29.9950000  0  6  2 26 27 19  7 15
  19649687.134   -11002527.70349  -8557619.48649  19649686.3854   19649692.6564
  21662820.148   -18607720.98449 -14111286.50449  21662819.9024   21662826.0964
  18917219.395    -9028131.37249  -7022459.78749  18917218.7324   18917224.5724
  21263379.347    -1001529.10349   -760422.34649  21263378.7094   21263386.7884
  20024779.292   -20130258.50149 -15649746.44249  20024778.6144   20024785.1904
  22716654.113   -11779110.45849  -7528090.52449  22716653.1684   22716661.3634
 97  3 19 19 11 59.9950000  0  6  2 26 27 19  7 15
  19634664.117   -11081474.06049  -8619136.11849  19634663.3354   19634669.8834
  21637503.439   -18740761.34449 -14214954.28049  21637502.6694   21637509.6934
  18907074.456    -9081443.28649  -7064001.54749  18907074.1754   18907079.9864
  21264081.089     -997841.37249   -757548.81249  21264080.9734   21264088.0504
  19996512.129   -20278803.15049 -15765495.47849  19996511.6334   19996518.0564
  22694429.479   -11895901.54149  -7619096.51049  22694428.5944   22694436.6834
 97  3 19 19 12 29.9950000  0  6  2 26 27 19  7 15
  19619668.731   -11160275.37849  -8680539.72749  19619667.9574   19619674.2004
  21612256.816   -18873433.24149 -14318334.94849  21612256.9664   21612262.6244
  18897007.655    -9134344.77749  -7105223.49549  18897007.2344   18897013.0994
  21264817.647     -993970.82549   -754532.84449  21264817.2334   21264824.9374
  19968308.695   -20427013.25549 -15880983.83849  19968308.0884   19968314.6594
  22672276.283   -12012316.97649  -7709809.81249  22672275.4904   22672283.2744
 97  3 19 19 12 59.9950000  0  6  2 26 27 19  7 15
  19604703.302   -11238919.22549  -8741820.64049  19604702.5574   19604708.9554
  21587085.195   -19005710.77749 -14421408.33349  21587085.4924   21587090.1374
  18887016.879    -9186846.49949  -7146133.93349  18887016.4714   18887022.2264
  21265590.147     -989911.26049   -751369.56149  21265590.3384   21265597.5244
  19940173.319   -20574865.75849 -15996193.53949  19940172.7464   19940179.7154
  22650197.496   -12128341.57649  -7800218.54049  22650196.8854   22650204.6894
 97  3 19 19 13 29.9950000  0  6  2 26 27 19  7 15
  19589768.784   -11317400.60149  -8802974.95249  19589768.1264   19589774.5394
  21561994.739   -19137562.15749 -14524149.61949  21561994.4524   21562000.2344
  18877103.449    -9238941.84649  -7186727.71449  18877103.0834   18877108.9614
  21266400.275     -985654.19449   -748052.40249  21266400.3774   21266407.6584
  19912108.193   -20722349.01849 -16111115.51549  19912107.3154   19912113.9634
  22628194.656   -12243967.41249  -7890316.56049  22628193.8874   22628201.9504
 97  3 19 19 13 59.9950000  0  6  2 26 27 19  7 15
  19574857.868   -11395757.98049  -8864032.64049  19574857.2884   19574863.4374
  21536981.740   -19269006.06749 -14626573.41849  21536981.2984   21536988.0674
  18867264.567    -9290645.73149  -7227016.46349  18867264.0454   18867270.0584
  21267246.134     -981209.44349   -744588.99849  21267245.1334   21267252.4814
  19884111.186   -20869474.02949 -16225758.34349  19884110.2074   19884117.3524
  22606263.084   -12359218.38149  -7980122.47149  22606261.9114   22606270.4394
 97  3 19 19 14 29.9950000  0  6  2 26 27 19  7 15
  19559977.543   -11473954.72349  -8924965.15949  19559976.9704   19559983.0564
  21512051.271   -19400016.17249 -14728659.17049  21512050.3774   21512057.2684
  18857502.373    -9341946.38349  -7266991.00149  18857501.6934   18857507.6684
  21268136.440     -976531.01449   -740943.51149  21268136.8354   21268143.4524
  19856186.291   -21016219.84349 -16340105.69449  19856185.0794   19856192.1504
  22584407.318   -12474071.30749  -8069618.22649  22584406.4714   22584415.3184
 97  3 19 19 14 59.9950000  0  6  2 26 27 19  7 15
  19545136.592   -11551944.40149  -8985736.32849  19545135.9244   19545142.2304
  21487212.390   -19530544.69049 -14830369.67049  21487212.0034   21487218.6274
  18847825.492    -9392798.64949  -7306616.15049  18847825.2324   18847830.9484
  21269086.426     -971538.88049   -737053.56249  21269086.5184   21269092.7294
  19828342.693   -21162538.58249 -16454120.25849  19828342.1544   19828348.8144
  22562637.684   -12588471.23449  -8158761.00049  22562636.6524   22562644.0664
 97  3 19 19 15 29.9950000  0  6  2 26 27 19  7 15
  19530333.911   -11629732.87949  -9046350.71649  19530333.1624   19530339.6024
  21462464.336   -19660595.98849 -14931708.31649  21462464.1354   21462470.7114
  18838233.372    -9443205.69849  -7345894.37449  18838233.1334   18838238.9764
  21270093.523     -966246.47149   -732929.65249  21270093.0114   21270101.1004
  19800580.383   -21308430.35449 -16567802.12549  19800579.6944   19800586.4734
  22540954.442   -12702417.06949  -8247549.92949  22540953.5934   22540962.1174
 97  3 19 19 15 59.9950000  0  6  2 26 27 19  7 15
  19515564.101   -11707348.51649  -9106830.42549  19515563.5274   19515569.8804
  21437797.955   -19790218.11549 -15032712.53249  21437797.7814   21437803.5164
  18828716.273    -9493218.69949  -7384865.55349  18828715.8014   18828721.5154
  21271151.060     -960689.26149   -728599.38749  21271151.0094   21271157.6804
  19772891.120   -21453938.56349 -16681185.11449  19772890.5034   19772897.1034
  22519351.556   -12815941.04149  -8336010.14049  22519350.3684   22519358.8134
 97  3 19 19 16 29.9940000  0  6  2 26 27 19  7 15
  19500833.037   -11784760.83749  -9167151.70149  19500832.1754   19500838.5234
  21413221.433   -19919368.27449 -15133348.99849  21413221.3354   21413227.4074
  18819277.870    -9542817.93149  -7423514.30849  18819277.5254   18819283.2484
  21272263.283     -954844.89049   -724045.37749  21272263.0894   21272270.4004
  19745279.362   -21599039.17449 -16794250.48749  19745278.4184   19745285.1124
  22497835.498   -12929008.21949  -8424114.38949  22497833.7844   22497843.1584
 97  3 19 19 16 59.9940000  0  6  2 26 27 19  7 15
  19486133.573   -11862007.11849  -9227343.59449  19486132.9614   19486139.0964
  21388731.997   -20048061.17249 -15233629.14549  21388731.7394   21388738.5154
  18809914.598    -9592022.36849  -7461855.42949  18809914.1374   18809919.9694
  21273420.707     -948762.94949   -719306.22349  21273420.4974   21273427.1044
  19717739.390   -21743762.56949 -16907021.93049  19717738.6744   19717745.1994
  22476400.995   -13041646.85649  -8511884.71449  22476400.1224   22476407.9734
 97  3 19 19 17 29.9940000  0  6  2 26 27 19  7 15
  19471464.852   -11939091.99549  -9287409.71849  19471464.2364   19471470.1104
  21364326.105   -20176314.91049 -15333567.09649  21364326.3854   21364332.0954
  18800623.139    -9640849.43649  -7499902.49949  18800622.8504   18800628.8244
  21274616.041     -942481.47349   -714411.60349  21274616.1004   21274623.2524
  19690266.820   -21888131.61449 -17019517.25649  19690266.1124   19690272.5884
  22455043.240   -13153882.71549  -8599341.20149  22455042.3084   22455048.9584
 97  3 19 19 17 59.9940000  0  6  2 26 27 19  7 15
  19456829.856   -12015999.30349  -9347337.48249  19456829.2374   19456835.4684
  21340004.008   -20304128.58849 -15433162.14349  21340003.5934   21340010.7194
  18791407.452    -9689278.18049  -7537639.18649  18791406.9604   18791412.8854
  21275854.194     -935975.05949   -709341.70349  21275853.9134   21275861.4674
  19662862.091   -22032144.40149 -17131734.97749  19662861.6644   19662868.0664
  22433763.379   -13265709.50649  -8686478.92449  22433762.2004   22433770.7094
 97  3 19 19 18 29.9940000  0  6  2 26 27 19  7 15
  19442230.123   -12092721.44349  -9407120.95949  19442229.5554   19442236.0274
  21315768.043   -20431489.70349 -15532404.55749  21315767.8314   21315773.7674
  18782272.951    -9737280.25049  -7575043.40249  18782272.4634   18782278.2644
  21277134.494     -929247.06149   -704099.14549  21277134.4464   21277142.2714
  19635529.283   -22175779.15949 -17243658.13349  19635528.3574   19635535.0754
  22412563.778   -13377113.86049  -8773287.47149  22412561.8364   22412570.5364
 97  3 19 19 18 59.9940000  0  6  2 26 27 19  7 15
  19427675.488   -12169206.55749  -9466719.73949  19427674.6614   19427680.9454
  21291622.808   -20558373.76349 -15631275.22749  21291622.0674   21291629.3224
  18773228.453    -9784809.49649  -7612079.17949  18773228.1754   18773233.7494
  21278463.739     -922261.86249   -698656.17349  21278463.6064   21278471.2244
  19608277.457   -22318988.39849 -17355249.70549  19608276.7724   19608282.9194
  22391453.609   -13488047.99149  -8859729.61249  22391453.8994   22391459.9664
 97  3 19 19 19 29.9940000  0  6  2 26 27 19  7 15
  19413170.409   -12245431.08349  -9526115.47149  19413169.8024   19413175.9824
  21267569.142   -20684776.63349 -15729770.95649  21267569.3284   21267574.8074
  18764277.878    -9831845.23149  -7648730.41249  18764277.5414   18764283.0524
  21279848.259     -914986.27749   -692986.93049  21279848.7074   21279855.5364
  19581111.644   -22461745.53149 -17466488.99549  19581110.9594   19581117.3214
  22370438.122   -13598484.94749  -8945784.35049  22370436.5594   22370444.7084
 97  3 19 19 19 59.9940000  0  6  2 26 27 19  7 15
  19398691.997   -12321515.54449  -9585402.06049  19398691.2654   19398697.4764
  21243590.364   -20810785.97949 -15827960.03849  21243590.4584   21243596.5924
  18755401.548    -9878490.38549  -7685077.28749  18755400.7764   18755406.8484
  21281268.179     -907524.56849   -687172.64449  21281267.2354   21281275.3904
  19554013.648   -22604146.40249 -17577450.68149  19554012.9294   19554019.1894
  22349499.848   -13708515.76849  -9031522.60249  22349499.4734   22349507.9924
 97  3 19 19 20 29.9940000  0  6  2 26 27 19  7 15
  19384251.573   -12397400.53449  -9644533.22449  19384250.5634   19384257.3114
  21219699.680   -20936332.42049 -15925788.42649  21219699.2784   21219705.2674
  18746611.384    -9924682.77649  -7721071.36149  18746610.8014   18746616.6744
  21282733.844     -899822.05249   -681170.73849  21282733.5804   21282740.7874
  19526999.133   -22746108.53449 -17688070.49549  19526998.3004   19527005.0424
  22328652.859   -13818067.67149  -9116887.67549  22328652.3564   22328660.5314
 97  3 19 19 20 59.9940000  0  6  2 26 27 19  7 15
  19369831.399   -12473179.09749  -9703581.45749  19369830.7554   19369837.1514
  21195879.131   -21061510.18949 -16023329.53449  21195879.8084   21195884.5414
  18737886.463    -9970532.26049  -7756798.23749  18737886.1214   18737891.8974
  21284229.712     -891961.01749   -675045.31649  21284229.5744   21284237.4944
  19500050.667   -22887723.46849 -17798419.76549  19500049.9264   19500056.4354
  22307878.357   -13927238.99149  -9201956.19849  22307877.7884   22307885.1184
 97  3 19 19 21 29.9940000  0  6  2 26 27 19  7 15
  19355446.290   -12548773.32749  -9762486.05549  19355445.6344   19355451.7624
  21172148.346   -21186216.21449 -16120503.04149  21172148.8064   21172153.7864
  18729243.152   -10015953.21849  -7792191.19449  18729242.7754   18729248.4544
  21285774.453     -883843.51249   -668720.02749  21285774.2254   21285781.7064
  19473186.056   -23028898.23149 -17908426.04249  19473185.6444   19473191.5834
  22287191.864   -14035947.06049  -9286663.73949  22287190.5194   22287198.6354
 97  3 19 19 21 59.9940000  0  6  2 26 27 19  7 15
  19341086.680   -12624233.64149  -9821286.30349  19341085.9354   19341092.2434
  21148498.920   -21310494.76949 -16217343.45149  21148498.8394   21148504.5604
  18720671.668   -10060996.93749  -7827290.19749  18720671.1394   18720677.2864
  21287358.292     -875520.73849   -662234.80149  21287357.2494   21287365.2824
  19446394.297   -23169689.99249 -18018133.88049  19446393.9424   19446400.0464
  22266583.038   -14144246.87249  -9371053.15049  22266582.6364   22266590.6624
 97  3 19 19 22 29.9940000  0  6  2 26 27 19  7 15
  19326763.164   -12699504.21949  -9879938.70449  19326762.4214   19326768.7304
  21124938.636   -21434305.33249 -16313819.19649  21124937.9704   21124943.9574
  18712182.619   -10105607.16349  -7862051.41449  18712182.6064   18712188.3874
  21288990.302     -866944.47149   -655552.03749  21288990.2494   21288998.5664
  19419684.284   -23310052.14849 -18127506.95549  19419683.6034   19419690.0184
  22246060.791   -14252091.78849  -9455088.09849  22246059.7134   22246068.2684
 97  3 19 19 22 59.9940000  0  6  2 26 27 19  7 15
  19312477.039   -12774578.17849  -9938437.89749  19312476.3814   19312482.5264
  21101469.745   -21557635.41249 -16409920.54149  21101470.3664   21101475.3104
  18703777.009   -10149779.18249  -7896471.17749  18703776.6654   18703782.4974
  21290671.823     -858108.41149   -648666.84649  21290672.1744   21290679.2344
  19393054.403   -23449992.80149 -18236551.58549  19393053.4584   19393060.0844
  22225626.021   -14359477.13249  -9538764.93449  22225624.4804   22225633.5824
 97  3 19 19 23 29.9940000  0  6  2 26 27 19  7 15
  19298217.102   -12849514.74349  -9996830.03049  19298216.3634   19298222.4854
  21078081.047   -21680543.74949 -16505693.26149  21078081.0384   21078086.6234
  18695445.013   -10193564.08649  -7930589.28649  18695444.5334   18695450.2004
  21292388.526     -849087.62349   -641637.71649  21292388.4564   21292395.5754
  19366492.277   -23589577.63049 -18345318.95949  19366491.8174   19366497.9824
  22205269.485   -14466451.10249  -9622121.22849  22205268.9024   22205275.4474
 97  3 19 19 23 59.9940000  0  6  2 26 27 19  7 15
  19283992.736   -12924264.18049 -10055076.35149  19283992.2004   19283998.4344
  21054780.847   -21802987.05849 -16601103.61149  21054780.5394   21054786.2584
  18687195.723   -10236914.50949  -7964368.84349  18687195.1444   18687201.3964
  21294147.193     -839846.16749   -634436.62849  21294147.0694   21294155.2124
  19340006.685   -23728760.03449 -18453772.74949  19340005.8734   19340012.4994
  22185002.670   -14572953.95949  -9705110.40049  22185001.8834   22185010.2134
 97  3 19 19 24 29.9940000  0  6  2 26 27 19  7 15
  19269808.013   -12998805.78249 -10113160.71849  19269807.5204   19269813.6954
  21031575.096   -21924933.97049 -16696127.16149  21031574.7744   21031580.8424
  18679033.497   -10279807.32249  -7997791.82049  18679032.9054   18679039.2244
  21295951.618     -830364.30349   -627048.20849  21295951.2804   21295959.4814
  19313603.337   -23867510.28049 -18561889.79949  19313602.5514   19313608.9774
  22164830.876   -14678957.20749  -9787710.26049  22164829.8084   22164837.6674
 97  3 19 19 24 59.9940000  0  6  2 26 27 19  7 15
  19255653.461   -13073188.62149 -10171121.37249  19255652.6694   19255658.8814
  21008456.717   -22046421.80249 -16790792.99049  21008456.7284   21008461.9014
  18670947.585   -10322298.93249  -8030902.17549  18670946.8124   18670953.0074
  21297792.557     -820690.29249   -619510.07749  21297792.2454   21297800.1094
  19287273.191   -24005876.17249 -18669707.35449  19287272.4994   19287278.7074
  22144745.842   -14784504.54749  -9869954.87449  22144744.6724   22144753.3074
 97  3 19 19 25 29.9940000  0  6  2 26 27 19  7 15
  19241531.411   -13147400.78849 -10228949.03749  19241530.7354   19241536.7314
  20985429.723   -22167429.57649 -16885084.74749  20985429.4594   20985435.4134
  18662941.969   -10364368.46349  -8063683.63949  18662941.3354   18662947.5694
  21299673.666     -810805.56249   -611807.75049  21299673.2334   21299680.1624
  19261020.386   -24143835.79149 -18777208.33549  19261019.9434   19261025.8894
  22124751.388   -14889576.52249  -9951829.10049  22124750.2844   22124757.6134
 97  3 19 19 25 59.9940000  0  6  2 26 27 19  7 15
  19227439.144   -13221456.09449 -10286654.46749  19227438.4214   19227444.6184
  20962495.086   -22287951.98649 -16978998.29949  20962494.8574   20962500.6324
  18655016.658   -10406016.11649  -8096136.36749  18655016.3814   18655022.1924
  21301596.766     -800699.94849   -603933.29549  21301595.9824   21301603.5584
  19234845.091   -24281387.91149 -18884391.77349  19234844.6144   19234850.3544
  22104844.697   -14994186.33449 -10033343.18649  22104843.5854   22104852.4704
 97  3 19 19 26 29.9940000  0  6  2 26 27 19  7 15
  19213381.339   -13295330.30949 -10344218.79149  19213380.7634   19213387.0714
  20939658.264   -22407960.42949 -17072511.35849  20939658.5564   20939664.4264
  18647178.023   -10447208.39649  -8128234.26349  18647177.5584   18647183.8584
  21303566.643     -790348.36349   -595867.17649  21303566.5484   21303573.1024
  19208751.522   -24418510.65349 -18991240.64449  19208750.7994   19208757.1104
  22085028.907   -15098318.60049 -10114485.16349  22085027.8734   22085035.9104
 97  3 19 19 26 59.9940000  0  6  2 26 27 19  7 15
  19199352.214   -13369053.89649 -10401665.73149  19199351.3764   19199357.5324
  20916913.327   -22527485.77349 -17165647.97049  20916912.8534   20916919.3624
  18639419.971   -10487977.60549  -8160002.48649  18639419.8584   18639425.6154
  21305576.734     -779785.67649   -587636.56749  21305576.4464   21305583.8194
  19182734.639   -24555229.95949 -19097775.14449  19182733.7004   19182740.0834
  22065298.792   -15202001.06849 -10195276.66249  22065298.4724   22065305.4934
 97  3 19 19 27 29.9930000  0  6  2 26 27 19  7 15
  19185350.666   -13442632.59849 -10458999.77449  19185349.9894   19185355.9824
  20894257.203   -22646544.44249 -17258420.93749  20894257.4174   20894262.8404
  18631740.305   -10528334.62049  -8191449.51849  18631739.6554   18631745.6704
  21307627.693     -769008.14249   -579238.54249  21307627.8664   21307634.7874
  19156794.923   -24691543.86149 -19203993.74249  19156794.3974   19156800.4534
  22045652.928   -15305240.17449 -10275722.69449  22045651.5434   22045659.9044
 97  3 19 19 27 59.9930000  0  6  2 26 27 19  7 15
  19171383.824   -13516028.90049 -10516191.69049  19171382.9884   19171389.1014
  20871694.797   -22765110.72349 -17350810.23449  20871694.8864   20871700.5164
  18624146.176   -10568242.01549  -8222546.20549  18624145.8824   18624151.6944
  21309728.221     -757969.96649   -570637.41649  21309727.5534   21309735.6964
  19130938.765   -24827418.72549 -19309870.24449  19130938.1074   19130944.5824
  22026098.784   -15407997.53449 -10355793.31749  22026097.9104   22026106.1624
 97  3 19 19 28 29.9930000  0  6  2 26 27 19  7 15
  19157444.258   -13589281.50949 -10573271.64049  19157443.5684   19157449.7294
  20849216.897   -22883232.65049 -17442853.28049  20849217.1674   20849222.3964
  18616626.827   -10607756.60849  -8253336.81049  18616626.3684   18616632.3654
  21311867.143     -746729.97849   -561879.04149  21311867.2914   21311873.6584
  19105158.292   -24962896.04449 -19415436.96249  19105157.3354   19105163.7234
  22006630.851   -15510302.43749 -10435511.38449  22006629.9574   22006638.7084
 97  3 19 19 28 59.9930000  0  6  2 26 27 19  7 15
  19143532.137   -13662390.26649 -10630239.49549  19143531.3994   19143537.7174
  20826824.137   -23000907.36549 -17534547.84749  20826823.9904   20826829.4294
  18609180.927   -10646885.21049  -8283826.64349  18609180.4524   18609186.2704
  21314046.621     -735276.63349   -552954.40449  21314045.7934   21314053.4384
  19079454.960   -25097967.94249 -19520687.77249  19079454.2994   19079460.3904
  21987251.637   -15612140.73449 -10514865.87349  21987251.3734   21987258.8724
 97  3 19 19 29 29.9930000  0  6  2 26 27 19  7 15
  19129662.345   -13735276.59749 -10687034.03349  19129661.5914   19129667.5854
  20804531.856   -23118053.87449 -17625830.81949  20804531.9624   20804537.4794
  18601827.751   -10685526.34449  -8313936.62949  18601827.4434   18601833.1814
  21316284.444     -723516.29749   -543790.56049  21316284.4634   21316292.1024
  19053846.270   -25232542.28649 -19625550.88049  19053845.3374   19053851.6734
  21967978.766   -15713420.25849 -10593784.95549  21967977.8654   21967985.7084
 97  3 19 19 29 59.9930000  0  6  2 26 27 19  7 15
  19115813.047   -13808055.14749 -10743744.58649  19115812.4984   19115818.4794
  20782321.445   -23234770.42249 -17716778.76549  20782320.8794   20782327.1164
  18594548.343   -10723780.03849  -8343744.71449  18594548.2424   18594553.8774
  21318554.412     -711587.42149   -534495.39749  21318553.3534   21318561.7444
  19028311.778   -25366726.66649 -19730110.11649  19028310.6354   19028316.9064
  21948792.179   -15814246.35049 -10672350.70049  21948791.8084   21948798.8874
 97  3 19 19 30 29.9930000  0  6  2 26 27 19  7 15
  19101987.761   -13880707.63649 -10800356.90749  19101987.1194   19101993.0544
  20760196.854   -23351035.99749 -17807375.29949  20760196.4954   20760202.8314
  18587344.549   -10761636.19049  -8373243.03549  18587344.1994   18587350.1274
  21320857.156     -699486.60349   -525066.25349  21320856.9584   21320864.2014
  19002855.011   -25500502.61649 -19834351.09849  19002854.2684   19002860.6704
  21929694.333   -15914605.91649 -10750552.92549  21929694.1894   21929701.3754
 97  3 19 19 30 59.9930000  0  6  2 26 27 19  7 15
  19088184.642   -13953243.53049 -10856878.37649  19088184.0154   19088190.1324
  20738156.085   -23466860.78049 -17897628.35949  20738156.2934   20738162.4254
  18580216.614   -10799093.70149  -8402430.71949  18580216.0044   18580221.9954
  21323191.789     -687218.13249   -515506.47149  21323190.9924   21323199.7224
  18977474.981   -25633875.62849 -19938278.10449  18977474.7384   18977480.7034
  21910682.003   -16014516.69549 -10828405.44449  21910681.3214   21910689.3974
 97  3 19 19 31 29.9930000  0  6  2 26 27 19  7 15
  19074408.632   -14025636.90649 -10913288.79449  19074408.0724   19074414.1244
  20716202.372   -23582228.30649 -17987525.11149  20716201.9824   20716207.8004
  18573168.595   -10836131.33749  -8431291.22849  18573168.2734   18573174.2644
  21325560.600     -674770.04149   -505806.71649  21325560.7914   21325568.4574
  18952176.239   -25766821.52149 -20041872.29349  18952175.1324   18952181.6234
  21891757.998   -16113963.14049 -10905896.14149  21891757.0424   21891765.1954
 97  3 19 19 31 59.9930000  0  6  2 26 27 19  7 15
  19060675.274   -14097806.24649 -10969524.63949  19060674.4904   19060680.6494
  20694350.339   -23697061.59449 -18077005.58449  20694349.7204   20694356.3954
  18566209.562   -10872701.62749  -8459787.56849  18566209.1914   18566214.9414
  21327974.731     -662083.43449   -495921.11149  21327974.3014   21327981.8234
  18926969.541   -25899283.45649 -20145089.36949  18926968.8524   18926975.0784
  21872933.652   -16212884.49549 -10982977.65749  21872932.9244   21872941.2244
 97  3 19 19 32 29.9930000  0  6  2 26 27 19  7 15
  19046988.361   -14169731.37049 -11025570.19349  19046987.4054   19046993.8364
  20672600.712   -23811356.37349 -18166066.43049  20672600.8264   20672606.5524
  18559340.390   -10908799.48149  -8487915.78449  18559340.0164   18559345.8724
  21330440.622     -649125.24549   -485823.88349  21330440.4834   21330448.4684
  18901856.608   -26031252.80849 -20247922.61649  18901855.9574   18901862.1714
  21854211.981   -16311266.96049 -11059639.26349  21854211.5144   21854219.5504
 97  3 19 19 32 59.9930000  0  6  2 26 27 19  7 15
  19033324.082   -14241537.54549 -11081523.05449  19033323.1054   19033329.4914
  20650931.659   -23925228.00349 -18254797.55249  20650931.7674   20650937.7944
  18552540.547   -10944533.11449  -8515760.18949  18552540.2444   18552546.2244
  21332936.608     -636009.12549   -475603.59549  21332936.6454   21332943.8594
  18876814.048   -26162852.46549 -20350467.78449  18876813.4244   18876819.1764
  21835571.322   -16409224.75949 -11135969.96249  21835570.4194   21835578.0754
 97  3 19 19 33 29.9930000  0  6  2 26 27 19  7 15
  19019685.972   -14313206.42149 -11137368.93549  19019685.2464   19019691.3464
  20629347.428   -24038653.75349 -18343181.25049  20629346.9804   20629353.3934
  18545811.921   -10979892.25049  -8543312.77949  18545811.5824   18545817.5724
  21335465.145     -622721.80149   -465249.90449  21335464.3154   21335472.3194
  18851843.124   -26294075.37849 -20452719.39649  18851842.2114   18851848.7034
  21817015.883   -16506734.80449 -11211951.76849  21817015.5444   21817022.2614
 97  3 19 19 33 59.9930000  0  6  2 26 27 19  7 15
  19006078.704   -14384713.19749 -11193088.50049  19006077.9364   19006084.0314
  20607855.353   -24151595.14249 -18431187.51349  20607855.1894   20607861.8954
  18539159.695   -11014849.90449  -8570552.52549  18539159.3074   18539165.3244
  21338030.374     -609241.60949   -454745.91649  21338029.8794   21338037.9664
  18826946.410   -26424908.35649 -20554667.15049  18826945.5574   18826951.7554
  21798551.235   -16603767.01649 -11287561.23649  21798550.5474   21798557.6564
 97  3 19 19 34 29.9930000  0  6  2 26 27 19  7 15
  18992505.366   -14456041.59049 -11248669.06749  18992504.8924   18992510.8574
  20586458.018   -24264038.71849 -18518805.87049  20586458.1324   20586464.4204
  18532590.054   -11049373.63449  -8597454.14849  18532589.5354   18532595.6854
  21340638.500     -595536.06449   -444066.32349  21340638.0744   21340645.6054
  18802128.754   -26555326.02149 -20656291.28849  18802127.9284   18802134.3044
  21780183.539   -16700289.80849 -11362773.77149  21780182.2944   21780190.0564
 97  3 19 19 34 59.9930000  0  6  2 26 27 19  7 15
  18978956.635   -14527240.82149 -11304148.98749  18978956.0124   18978962.0874
  20565147.640   -24376025.35949 -18606068.17849  20565147.7144   20565153.0784
  18526096.485   -11083497.55549  -8624044.22849  18526096.0014   18526101.9124
  21343280.155     -581654.43549   -433249.53049  21343280.2654   21343288.2534
  18777383.233   -26685364.66749 -20757620.08749  18777382.3394   18777388.7654
  21761904.892   -16796344.13949 -11437621.26549  21761903.8574   21761911.3214
 97  3 19 19 35 29.9930000  0  6  2 26 27 19  7 15
  18965445.998   -14598239.76049 -11359472.83849  18965445.2654   18965451.3144
  20543934.568   -24487500.57149 -18692931.97349  20543934.9104   20543940.3524
  18519689.095   -11117168.64149  -8650281.45749  18519688.8964   18519694.8534
  21345966.567     -567537.71749   -422249.54149  21345966.9454   21345973.9564
  18752725.879   -26814939.77849 -20858587.69449  18752724.9794   18752731.5424
  21743728.127   -16891863.42249 -11512051.84049  21743727.1414   21743734.6704
 97  3 19 19 35 59.9930000  0  6  2 26 27 19  7 15
  18951957.548   -14669121.86849 -11414705.64849  18951956.5244   18951962.8014
  20522803.434   -24598545.48449 -18779460.46349  20522803.5894   20522809.9124
  18513354.893   -11150455.30949  -8676219.13349  18513354.4014   18513360.6254
  21348684.598     -553255.08649   -411120.28349  21348683.9944   21348692.0064
  18728146.749   -26944103.83949 -20959234.99049  18728146.1944   18728152.4074
  21725639.081   -16986922.04549 -11586123.47649  21725637.7844   21725645.0464
 97  3 19 19 36 29.9930000  0  6  2 26 27 19  7 15
  18938492.468   -14739881.11249 -11469842.72049  18938491.7054   18938498.0884
  20501756.249   -24709149.16649 -18865645.15049  20501755.4904   20501761.9694
  18507098.339   -11183334.01749  -8701838.92149  18507097.9134   18507103.8754
  21351437.321     -538789.54649   -399848.49549  21351436.5984   21351445.2474
  18703653.224   -27072818.04149 -21059531.75849  18703652.3714   18703658.7184
  21707641.033   -17081501.80649 -11659821.96349  21707640.1034   21707647.7394
 97  3 19 19 36 59.9930000  0  6  2 26 27 19  7 15
  18925037.538   -14810587.42949 -11524938.54749  18925036.7804   18925042.6954
  20480785.077   -24819353.29749 -18951518.48649  20480784.9784   20480790.7364
  18500906.848   -11215870.55249  -8727192.08149  18500906.4194   18500912.4134
  21354210.816     -524215.16049   -388491.89449  21354211.3574   21354218.3614
  18679234.563   -27201138.94449 -21159522.05549  18679233.6764   18679240.0964
  21689721.649   -17175668.81549 -11733198.83049  21689721.2984   21689728.7484
 97  3 19 19 37 29.9930000  0  6  2 26 27 19  7 15
  18911599.879   -14881202.92349 -11579963.60349  18911599.1824   18911605.2264
  20459901.479   -24929097.34249 -19037033.30849  20459901.4954   20459907.3404
  18494787.525   -11248027.90349  -8752249.77349  18494787.2054   18494793.1674
  21357012.175     -509494.55749   -377021.34049  21357012.2884   21357019.7784
  18654896.897   -27329034.23149 -21259180.70049  18654896.1944   18654902.4994
  21671888.391   -17269382.88749 -11806222.75349  21671887.6344   21671895.0904
 97  3 19 19 37 59.9920000  0  6  2 26 27 19  7 15
  18898184.264   -14951702.27249 -11634898.15549  18898183.5004   18898189.5664
  20439114.630   -25038332.98249 -19122151.98549  20439114.8454   20439119.5454
  18488747.633   -11279767.79949  -8776982.17849  18488746.8974   18488753.2704
  21359846.672     -494599.97449   -365415.22949  21359846.6464   21359854.3544
  18630640.215   -27456504.12449 -21358507.87649  18630639.5074   18630645.8554
  21654146.288   -17362618.54549 -11878873.89849  21654145.6474   21654153.3794
 97  3 19 19 38 29.9920000  0  6  2 26 27 19  7 15
  18884799.431   -15022039.89749 -11689706.69849  18884798.6664   18884804.5834
  20418435.986   -25147000.04149 -19206827.60649  20418435.6114   20418441.6844
  18482795.767   -11311045.13549  -8801354.14849  18482795.2374   18482801.2754
  21362723.083     -479485.02149   -353637.40249  21362722.7054   21362730.9964
  18606469.434   -27583522.26049 -21457483.03349  18606468.8904   18606474.9124
  21636504.152   -17455329.00349 -11951115.78749  21636502.8314   21636511.4794
 97  3 19 19 38 59.9920000  0  6  2 26 27 19  7 15
  18871431.257   -15092290.25949 -11744447.23749  18871430.4114   18871436.8144
  20397849.278   -25255184.00649 -19291126.79149  20397849.0434   20397854.9374
  18476913.669   -11341955.71449  -8825440.32949  18476913.2494   18476919.2454
  21365624.274     -464239.67749   -341757.97449  21365624.3364   21365631.0244
  18582365.654   -27710188.75349 -21556184.18149  18582364.8864   18582371.1704
  21618945.533   -17547600.06549 -12023015.29849  21618944.3764   21618952.8864
 97  3 19 19 39 29.9920000  0  6  2 26 27 19  7 15
  18858078.076   -15162461.62649 -11799126.22449  18858077.5354   18858083.2554
  20377348.490   -25362916.44949 -19375074.13949  20377348.3654   20377353.8404
  18471098.958   -11372512.28649  -8849250.66749  18471098.6844   18471104.4784
  21368547.548     -448878.20549   -329788.05349  21368547.8824   21368555.2404
  18558325.827   -27836518.99749 -21654623.31349  18558324.7994   18558331.2304
  21601468.117   -17639443.84349 -12094581.86249  21601467.3754   21601474.7284
 97  3 19 19 39 59.9920000  0  6  2 26 27 19  7 15
  18844762.229   -15232436.94749 -11853652.45349  18844761.5634   18844767.6324
  20356950.331   -25470109.55249 -19458601.23349  20356950.8464   20356956.0594
  18465370.299   -11402616.59649  -8872708.59449  18465369.6514   18465376.2384
  21371514.480     -433286.86149   -317639.02349  21371513.8494   21371522.4184
  18534372.443   -27962394.82649 -21752708.36249  18534371.7714   18534378.1274
  21584093.997   -17730745.23849 -12165725.78149  21584092.9634   21584100.6564
 97  3 19 19 40 29.9920000  0  6  2 26 27 19  7 15
  18831476.191   -15302255.74349 -11908056.70949  18831475.6614   18831481.5854
  20336643.694   -25576821.84149 -19541753.66449  20336643.2654   20336649.3834
  18459718.376   -11432317.47949  -8895852.16149  18459718.1434   18459723.9364
  21374516.550     -417510.70649   -305345.98049  21374516.4504   21374524.9474
  18510500.927   -28087840.43349 -21850458.17049  18510500.2874   18510506.2964
  21566816.578   -17821538.75449 -12236473.95449  21566815.5044   21566823.2114
 97  3 19 19 40 59.9920000  0  6  2 26 27 19  7 15
  18818205.266   -15371995.01849 -11962399.00249  18818204.6884   18818210.5824
  20316408.278   -25683159.59449 -19624614.24749  20316408.4134   20316414.1614
  18454126.850   -11461701.24349  -8918748.62849  18454126.5044   18454132.5074
  21377535.708     -401644.81249   -292983.00249  21377535.7204   21377543.7324
  18486695.277   -28212939.95749 -21947938.30849  18486694.5484   18486701.0374
  21549619.130   -17911911.64649 -12306894.35849  21549618.8694   21549626.4014
 97  3 19 19 41 29.9920000  0  6  2 26 27 19  7 15
  18804956.537   -15441617.55949 -12016650.33349  18804955.7504   18804961.8304
  20296254.321   -25789069.32849 -19707141.30849  20296254.2064   20296259.9234
  18448604.250   -11490723.04849  -8941363.04349  18448603.6974   18448609.7804
  21380580.629     -385643.86649   -280514.79149  21380580.2024   21380588.5554
  18462965.336   -28337641.74949 -22045108.51949  18462964.5364   18462970.7444
  21532511.215   -18001814.03049 -12376948.13449  21532510.1334   21532518.3114
 97  3 19 19 41 59.9920000  0  6  2 26 27 19  7 15
  18791733.045   -15511107.46349 -12070798.30649  18791732.1754   18791738.3444
  20276185.743   -25894530.34349 -19789318.71949  20276185.4994   20276191.8104
  18443154.474   -11519361.91949  -8963679.06449  18443154.2804   18443160.2154
  21383653.876     -369494.14349   -267930.64849  21383654.0644   21383660.9944
  18439312.867   -28461936.38349 -22141961.46849  18439311.9304   18439318.1364
  21515497.038   -18091224.22549 -12446618.38149  21515495.8924   21515502.8884
 97  3 19 19 42 29.9920000  0  6  2 26 27 19  7 15
  18778530.891   -15580485.19949 -12124858.87749  18778530.0344   18778536.1824
  20256205.005   -25999529.83749 -19871136.49449  20256205.2014   20256210.0644
  18437778.941   -11547610.91349  -8985691.28549  18437778.7614   18437784.4554
  21386752.667     -353210.09349   -255241.84549  21386752.0304   21386759.6844
  18415736.167   -28585832.79649 -22238504.11349  18415735.2624   18415741.4254
  21498574.635   -18180152.18349 -12515912.86349  21498573.4774   21498581.6374
 97  3 19 19 42 59.9920000  0  6  2 26 27 19  7 15
  18765351.691   -15649742.46249 -12178825.57649  18765351.2184   18765357.2244
  20236318.170   -26104036.18849 -19952570.01949  20236317.6294   20236323.7004
  18432479.170   -11575461.82349  -9007393.32049  18432478.7314   18432484.6834
  21389881.001     -336770.68849   -242431.96249  21389880.6344   21389887.9924
  18392238.601   -28709313.09449 -22334722.51249  18392237.6794   18392244.1794
  21481747.142   -18268581.18549 -12584818.54949  21481746.7264   21481754.2954
 97  3 19 19 43 29.9920000  0  6  2 26 27 19  7 15
  18752197.415   -15718868.65049 -12232690.13549  18752196.4454   18752202.8134
  20216530.142   -26208022.99949 -20033598.70349  20216530.2474   20216536.2524
  18427257.711   -11602900.98349  -9028774.50849  18427257.3954   18427263.3344
  21393044.081     -320148.72549   -229479.83949  21393044.5834   21393051.9244
  18368823.321   -28832361.04749 -22430604.02149  18368822.5394   18368828.5564
  21465018.146   -18356492.64449 -12653320.94749  21465016.9884   21465025.4944
 97  3 19 19 43 59.9920000  0  6  2 26 27 19  7 15
  18739069.097   -15787858.30649 -12286448.30549  18739068.2634   18739074.6704
  20196839.521   -26311497.75649 -20114228.37049  20196840.0894   20196844.8664
  18422115.426   -11629923.66249  -9049831.16749  18422114.8754   18422120.8944
  21396244.054     -303333.18049   -216376.86949  21396243.2494   21396251.3404
  18345492.346   -28954966.04049 -22526140.36149  18345491.5504   18345497.7764
  21448387.901   -18443885.06349 -12721418.88849  21448387.2304   21448395.1334
 97  3 19 19 44 29.9920000  0  6  2 26 27 19  7 15
  18725972.771   -15856679.66249 -12340075.33349  18725971.9494   18725978.3104
  20177251.462   -26414433.54349 -20194438.06949  20177250.8404   20177257.2594
  18417058.081   -11656500.44349  -9070540.37049  18417057.7064   18417063.4104
  21399486.481     -286294.36649   -203099.91949  21399486.0144   21399494.7134
  18322255.187   -29077077.92449 -22621292.46549  18322254.4574   18322260.6224
  21431861.643   -18530730.63849 -12789090.72749  21431860.7224   21431869.0224
 97  3 19 19 44 59.9920000  0  6  2 26 27 19  7 15
  18712905.325   -15925349.59649 -12393584.37449  18712904.8364   18712910.5094
  20157756.941   -26516877.83249 -20274264.79449  20157756.5364   20157762.8474
  18412079.580   -11682662.70749  -9090926.57349  18412079.2334   18412084.9894
  21402765.948     -269060.90349   -189671.30449  21402765.1444   21402773.7684
  18299107.035   -29198722.06249 -22716080.08849  18299105.9534   18299112.4304
  21415434.907   -18617053.45349 -12856355.22749  21415434.0444   21415441.7404
 97  3 19 19 45 29.9920000  0  6  2 26 27 19  7 15
  18699866.283   -15993870.43549 -12446977.23349  18699865.7224   18699871.8024
  20138354.040   -26618840.69649 -20353716.36949  20138353.4584   20138359.4594
  18407181.881   -11708400.37749  -9110981.92249  18407181.7034   18407187.4994
  21406079.913     -251646.24149   -176101.51349  21406079.7694   21406087.4964
  18276047.013   -29319903.10449 -22810506.86149  18276046.0974   18276052.4664
  21399106.246   -18702862.05249 -12923219.02549  21399105.5774   21399113.7094
 97  3 19 19 45 59.9920000  0  6  2 26 27 19  7 15
  18686855.006   -16062245.31549 -12500256.35849  18686854.3704   18686860.3244
  20119042.103   -26720325.52749 -20432795.45649  20119042.0874   20119048.1594
  18402365.574   -11733710.43349  -9130704.06749  18402365.2084   18402371.1194
  21409425.391     -234066.05949   -162402.73349  21409424.7644   21409433.4484
  18253075.771   -29440617.54549 -22904570.04349  18253074.7694   18253081.1224
  21382874.387   -18788160.91649 -12989685.64049  21382873.1654   21382881.3564
 97  3 19 19 46 29.9920000  0  6  2 26 27 19  7 15
  18673871.679   -16130473.09949 -12553420.86149  18673870.9584   18673877.0334
  20099824.292   -26821315.91849 -20511489.26049  20099824.2514   20099830.6604
  18397631.226   -11758589.66949  -9150090.50749  18397630.6454   18397636.8794
  21412802.180     -216321.27249   -148575.70749  21412802.1664   21412810.9624
  18230193.063   -29560866.92749 -22998270.84349  18230192.1814   18230198.4594
  21366740.746   -18872944.64749 -13055750.86649  21366739.4744   21366747.2234
 97  3 19 19 46 59.9920000  0  6  2 26 27 19  7 15
  18660917.505   -16198547.85349 -12606466.12049  18660916.9264   18660923.1314
  20080705.567   -26921785.32949 -20589777.11749  20080704.9874   20080711.7334
  18392977.393   -11783045.69949  -9169147.17449  18392976.8174   18392982.8314
  21416214.175     -198390.85649   -134604.01849  21416213.3244   21416221.8984
  18207399.609   -29680647.49249 -23091606.33249  18207398.9904   18207405.2284
  21350707.834   -18957198.14949 -13121402.91749  21350706.6034   21350713.9224
 97  3 19 19 47 29.9920000  0  6  2 26 27 19  7 15
  18647991.076   -16266476.95049 -12659397.87549  18647990.3554   18647996.3564
  20061686.956   -27021728.88049 -20667655.20749  20061687.5934   20061693.1294
  18388401.938   -11807089.92049  -9187882.95549  18388401.4754   18388407.5214
  21419660.578     -180279.33949   -120491.22149  21419659.8284   21419668.5884
  18184696.037   -29799955.43849 -23184573.54849  18184695.4074   18184701.7104
  21334774.807   -19040926.29749 -13186645.60449  21334774.1934   21334781.2724
 97  3 19 19 47 59.9920000  0  6  2 26 27 19  7 15
  18635086.807   -16334289.37349 -12712238.71349  18635086.2384   18635092.0174
  20042760.661   -27121187.37549 -20745155.33549  20042760.5864   20042766.8564
  18383895.422   -11830771.54449  -9206336.19349  18383894.6954   18383901.2174
  21423134.525     -162023.39649   -106265.88149  21423133.6434   21423141.0714
  18162075.032   -29918829.50549 -23277202.67349  18162074.1484   18162080.2584
  21318936.272   -19124157.61149 -13251501.15649  21318934.9884   21318943.4784
 97  3 19 19 48 29.9910000  0  6  2 26 27 19  7 15
  18622205.442   -16401981.68849 -12764985.96249  18622204.7264   18622210.7784
  20023929.424   -27220146.27349 -20822266.16549  20023929.6924   20023935.5694
  18379457.969   -11854090.38649  -9224506.73849  18379457.4364   18379463.8374
  21426637.259     -143616.13549    -91922.63049  21426637.1684   21426645.7404
  18139537.171   -30037266.72349 -23369491.39849  18139536.2904   18139542.7234
  21303195.219   -19206877.34849 -13315958.07849  21303193.7564   21303200.8494
 97  3 19 19 48 59.9910000  0  6  2 26 27 19  7 15
  18609349.952   -16469537.69549 -12817627.00249  18609349.3264   18609355.2434
  20005193.347   -27318605.05649 -20898987.29549  20005193.3534   20005199.2714
  18375092.389   -11877031.48749  -9242382.94349  18375092.0094   18375098.3574
  21430168.276     -125060.50249    -77463.77149  21430167.4344   21430175.8474
  18117083.916   -30155259.31549 -23461433.66149  18117083.1244   18117089.5034
  21287553.415   -19289075.31349 -13380008.41649  21287552.4444   21287560.5494
 97  3 19 19 49 29.9910000  0  6  2 26 27 19  7 15
  18596523.088   -16536943.32249 -12870150.85749  18596522.2864   18596528.3004
  19986550.953   -27416571.70449 -20975324.94049  19986551.1494   19986556.8694
  18370805.709   -11899558.42849  -9259936.42049  18370805.2764   18370811.6424
  21433724.765     -106371.65349    -62901.10149  21433725.0114   21433732.6304
  18094715.534   -30272806.03949 -23553028.49749  18094714.6204   18094721.1254
  21272011.289   -19370748.12049 -13443649.53449  21272010.5444   21272018.1704
 97  3 19 19 49 59.9910000  0  6  2 26 27 19  7 15
  18583725.328   -16604195.87249 -12922555.44149  18583724.3854   18583730.3584
  19968004.390   -27514034.54749 -21051270.01849  19968004.8184   19968010.3934
  18366599.901   -11921660.08549  -9277158.51149  18366599.3984   18366605.9234
  21437307.785      -87543.51349    -48229.89749  21437307.6214   21437315.7794
  18072429.790   -30389918.21049 -23644284.72049  18072429.0084   18072434.9924
  21256569.922   -19451892.89049 -13506879.19249  21256568.9844   21256576.9844
 97  3 19 19 50 29.9910000  0  6  2 26 27 19  7 15
  18570962.658   -16671264.11149 -12974816.40449  18570961.8614   18570967.8044
  19949561.708   -27610951.02749 -21126789.35749  19949561.2564   19949567.1934
  18362482.559   -11943297.05949  -9294018.50749  18362481.8984   18362488.4014
  21440923.699      -68542.62149    -33424.07349  21440923.7774   21440930.9954
  18050235.038   -30506552.40349 -23735168.49249  18050234.4134   18050240.0904
  21241235.172   -19532477.71649 -13569672.53449  21241234.7794   21241242.3334
 97  3 19 19 50 59.9910000  0  6  2 26 27 19  7 15
  18558228.354   -16738183.15749 -13026961.11549  18558227.8464   18558233.5784
  19931215.273   -27707362.01949 -21201914.80549  19931215.2474   19931221.2414
  18358445.250   -11964513.45349  -9310550.77649  18358444.9534   18358450.8624
  21444566.499      -49400.66249    -18508.32449  21444567.5454   21444574.0074
  18028125.987   -30622736.23449 -23825701.33149  18028125.3794   18028131.2834
  21225999.388   -19612542.37549 -13632060.55749  21225998.9674   21226006.8444
 97  3 19 19 51 29.9910000  0  6  2 26 27 19  7 15
  18545518.300   -16804975.10049 -13079006.77649  18545517.8754   18545523.7284
  19912963.545   -27803275.80149 -21276652.81649  19912963.4324   19912969.1294
  18354483.794   -11985331.15249  -9326772.38349  18354483.2564   18354489.3924
  21448236.762      -30114.09749     -3479.90449  21448237.2444   21448243.6444
  18006098.825   -30738490.03549 -23915899.08249  18006098.0384   18006104.1574
  21210860.392   -19692098.91849 -13694052.64949  21210859.8674   21210867.6604
 97  3 19 19 51 59.9910000  0  6  2 26 27 19  7 15
  18532835.340   -16871624.44049 -13130941.33049  18532834.3464   18532840.5044
  19894812.814   -27898658.63349 -21350977.10649  19894812.6484   19894818.5564
  18350600.122   -12005740.20949  -9342675.56549  18350599.6544   18350605.6044
  21451942.766      -10639.70849     11694.88149  21451942.4694   21451950.9234
  17984160.650   -30853775.79149 -24005732.12449  17984159.7054   17984165.8724
  21195825.196   -19771110.28049 -13755619.93249  21195823.6274   21195831.2874
 97  3 19 19 52 29.9910000  0  6  2 26 27 19  7 15
  18520170.857   -16938176.72049 -13182800.25149  18520170.0634   18520176.2994
  19876753.946   -27993558.83649 -21424925.32349  19876753.6604   19876759.8154
  18346786.991   -12025778.39849  -9358289.75749  18346786.2644   18346792.4294
  21455677.720        8987.18449     26988.49749  21455677.6134   21455685.7014
  17962306.530   -30968619.98849 -24095221.09749  17962305.8544   17962311.9854
  21180887.655   -19849607.55849 -13816786.64349  21180886.9474   21180894.4274
 97  3 19 19 52 59.9910000  0  6  2 26 27 19  7 15
  18507521.059   -17004652.01949 -13234599.18549  18507520.2604   18507526.3384
  19858782.485   -28087999.66649 -21498515.58449  19858782.0614   19858787.6904
  18343043.186   -12045452.09949  -9373619.92549  18343042.9964   18343048.8594
  21459438.847       28751.53749     42389.22149  21459438.4204   21459447.4064
  17940530.185   -31083055.58049 -24184391.66849  17940529.2604   17940535.3634
  21166044.166   -19927610.52149 -13877568.16249  21166043.1134   21166050.5004
 97  3 19 19 53 29.9910000  0  6  2 26 27 19  7 15
  18494903.108   -17070959.76149 -13286267.55849  18494902.4154   18494908.5134
  19840914.625   -28181895.90249 -21571681.48849  19840914.1614   19840920.8974
  18339388.366   -12064658.33149  -9388585.83549  18339388.2264   18339394.0054
  21463241.495       48734.80849     57960.52649  21463241.0174   21463250.1244
  17918846.314   -31197005.23849 -24273183.59549  17918845.5414   17918851.5334
  21151310.940   -20005033.72549 -13937897.91749  21151310.0534   21151317.5374
 97  3 19 19 53 59.9910000  0  6  2 26 27 19  7 15
  18482330.664   -17137028.34549 -13337749.57549  18482329.9894   18482335.8874
  19823162.850   -28275182.15349 -21644372.08249  19823162.7604   19823168.7564
  18335835.722   -12083327.90949  -9403133.57649  18335835.4454   18335841.3874
  21467096.185       68990.74249     73744.30449  21467096.2294   21467104.2394
  17897269.067   -31310394.46249 -24361538.82449  17897268.5194   17897274.3164
  21136700.194   -20081813.12949 -13997726.01649  21136699.0984   21136706.9454
 97  3 19 19 54 29.9910000  0  6  2 26 27 19  7 15
  18469783.001   -17202967.05549 -13389130.39149  18469782.2964   18469788.2434
  19805506.447   -28367967.07549 -21716672.03749  19805506.3034   19805512.3304
  18332360.721   -12101589.43349  -9417363.34949  18332360.4314   18332366.4774
  21470976.965       89384.09849     89635.15149  21470976.2924   21470984.7544
  17875774.702   -31423348.37849 -24449554.85049  17875773.8494   17875779.8274
  21122187.248   -20158078.51449 -14057153.57549  21122186.5944   21122193.8374
 97  3 19 19 54 59.9910000  0  6  2 26 27 19  7 15
  18457276.785   -17268687.72949 -13440341.30949  18457275.9744   18457282.0214
  19787961.390   -28460167.06649 -21788516.18549  19787961.3394   19787966.4274
  18328977.537   -12119368.34549  -9431217.06749  18328977.2134   18328983.4494
  21474897.670      109988.09949    105690.15749  21474897.4584   21474905.3444
  17854378.401   -31535786.62049 -24537169.05149  17854377.7224   17854383.4364
  21107786.558   -20233755.01349 -14116122.27549  21107786.3944   21107793.5414
 97  3 19 19 55 29.9910000  0  6  2 26 27 19  7 15
  18444796.867   -17334269.94949 -13491444.34149  18444795.9734   18444801.8714
  19770514.990   -28551848.32649 -21859956.13349  19770515.1274   19770520.6734
  18325668.004   -12136760.15549  -9444769.14249  18325667.6544   18325673.6344
  21478843.520      130723.40349    121847.45949  21478842.7274   21478851.3754
  17833068.595   -31647770.25649 -24624429.01349  17833067.7244   17833073.6294
  21093484.453   -20308913.39149 -14174687.23949  21093483.5654   21093490.6134
 97  3 19 19 55 59.9910000  0  6  2 26 27 19  7 15
  18432346.992   -17399694.43849 -13542424.46649  18432346.2524   18432352.3374
  19753175.915   -28642966.11349 -21930957.00849  19753176.1514   19753181.8464
  18322437.270   -12153737.85049  -9457998.52949  18322436.6714   18322442.7494
  21482820.294      151621.37549    138131.52849  21482820.2834   21482828.2454
  17811851.429   -31759267.22249 -24711309.75149  17811850.6324   17811856.7474
  21079288.195   -20383515.22349 -14232818.53049  21079287.3734   21079294.4634
 97  3 19 19 56 29.9910000  0  6  2 26 27 19  7 15
  18419918.568   -17465006.38249 -13593316.88949  18419917.8464   18419923.8244
  19735937.204   -28733556.49549 -22001546.92449  19735936.7654   19735943.0694
  18319281.385   -12170322.13949  -9470921.37249  18319280.5764   18319286.8834
  21486824.230      172662.06849    154526.79449  21486824.4314   21486832.7044
  17790719.338   -31870317.18349 -24797842.17249  17790718.4124   17790724.4634
  21065192.207   -20457589.66849 -14290538.88649  21065191.9114   21065199.2934
 97  3 19 19 56 59.9910000  0  6  2 26 27 19  7 15
  18407517.753   -17530173.26049 -13644096.27549  18407517.0514   18407523.4114
  19718804.949   -28823587.09849 -22071700.64349  19718805.3354   19718810.3874
  18316210.412   -12186460.17349  -9483496.47949  18316210.0724   18316216.0834
  21490863.374      193887.83349    171066.29049  21490862.5154   21490870.7694
  17769679.829   -31980880.40249 -24883995.31749  17769679.0374   17769684.7544
  21051205.364   -20531090.76949 -14347812.46449  21051205.5444   21051211.6214
 97  3 19 19 57 29.9910000  0  6  2 26 27 19  7 15
  18395141.746   -17595209.43349 -13694773.81849  18395140.8694   18395146.9924
  19701778.782   -28913060.43649 -22141420.13549  19701779.0724   19701784.3234
  18313223.958   -12202154.01349  -9495725.46749  18313223.8094   18313229.6674
  21494936.197      215290.06249    187743.29049  21494936.5454   21494944.4084
  17748731.214   -32090965.85949 -24969776.17949  17748730.1104   17748736.4294
  21037327.374   -20604021.04749 -14404641.26249  21037325.8724   21037334.5204
 97  3 19 19 57 59.9910000  0  6  2 26 27 19  7 15
  18382786.172   -17660138.26249 -13745367.71149  18382785.6124   18382791.4834
  19684849.146   -29002026.28849 -22210744.17549  19684849.4324   19684854.9014
  18310316.569   -12217432.50949  -9507630.80649  18310316.4824   18310322.5204
  21499037.010      236839.51949    204535.02749  21499036.6874   21499045.3334
  17727866.637   -32200609.76049 -25055212.96849  17727865.6044   17727871.7864
  21023551.554   -20676413.52849 -14461050.98149  21023550.6794   21023557.4354
 97  3 19 19 58 29.9910000  0  6  2 26 27 19  7 15
  18370464.239   -17724890.62849 -13795824.10249  18370463.6934   18370469.7774
  19668019.882   -29090464.43549 -22279657.02149  19668019.7734   19668025.7954
  18307492.873   -12232271.31049  -9519193.53049  18307492.2574   18307498.7174
  21503173.191      258574.85149    221471.57649  21503172.9834   21503180.4154
  17707096.346   -32309758.23149 -25140263.70949  17707095.4134   17707101.6624
  21009885.525   -20748228.82849 -14517010.95749  21009885.2994   21009892.9294
 97  3 19 19 58 59.9900000  0  6  2 26 27 19  7 15
  18358181.641   -17789436.05449 -13846119.23949  18358180.8664   18358187.1034
  19651291.585   -29178371.87049 -22348156.32749  19651291.5944   19651297.6104
  18304750.313   -12246683.31149  -9530423.67849  18304749.7854   18304756.0294
  21507344.033      280492.87249    238550.50049  21507343.6664   21507351.8284
  17686423.265   -32418395.75649 -25224916.31049  17686422.4754   17686428.3594
  20996331.189   -20819456.74549 -14572513.21749  20996330.4234   20996338.0984
 97  3 19 19 59 29.9900000  0  6  2 26 27 19  7 15
  18345925.699   -17853841.49449 -13896305.30349  18345924.9904   18345931.1544
  19634648.360   -29265832.28749 -22416307.30449  19634648.1064   19634654.6114
  18302073.824   -12260748.35049  -9541383.48049  18302073.4184   18302079.7044
  21511537.098      302527.65949    255720.40249  21511536.3834   21511546.4014
  17665831.461   -32526606.40549 -25309236.28349  17665830.5104   17665836.4694
  20982873.974   -20890174.20649 -14627617.73649  20982872.8894   20982880.6804
 97  3 19 19 59 59.9900000  0  6  2 26 27 19  7 15
  18333685.715   -17918163.02349 -13946425.97549  18333685.1244   18333691.0514
  19618076.135   -29352919.80149 -22484167.70849  19618075.9394   19618082.7154
  18299450.454   -12274534.56549  -9552126.00349  18299449.8744   18299456.1984
  21515738.922      324608.59149    272926.27649  21515738.3344   21515746.4044
  17645309.032   -32634452.19449 -25393271.94449  17645308.2474   17645314.2574
  20969501.420   -20960447.69849 -14682376.30449  20969500.4074   20969508.3354
 97  3 19 20  0 29.9900000  0  6  2 26 27 19  7 15
  18321469.238   -17982360.94649 -13996450.33149  18321468.4314   18321474.3914
  19601589.013   -29439560.39649 -22551679.86049  19601589.0024   19601595.3284
  18296892.385   -12287977.54449  -9562601.07849  18296891.6264   18296898.0084
  21519957.551      346777.85449    290200.94349  21519957.3744   21519965.6924
  17624866.737   -32741877.33049 -25476979.82149  17624866.1794   17624872.1124
  20956223.904   -21030221.96549 -14736745.84549  20956223.2594   20956230.2194
 97  3 19 20  0 59.9900000  0  6  2 26 27 19  7 15
  18309272.842   -18046453.43449 -14046392.53349  18309272.4244   18309278.0564
  19585192.239   -29525726.03249 -22618821.91349  19585192.8134   19585197.9464
  18294403.933   -12301054.65949  -9572791.06349  18294403.8584   18294409.5434
  21524195.049      369046.25149    307552.89349  21524194.4004   21524203.6004
  17604506.648   -32848870.55249 -25560351.14449  17604505.8644   17604511.9874
  20943042.239   -21099491.82149 -14790722.35649  20943041.1444   20943048.8054
 97  3 19 20  1 29.9900000  0  6  2 26 27 19  7 15
  18297096.892   -18110438.70549 -14096251.18449  18297096.3844   18297102.2384
  19568891.875   -29611385.18549 -22685569.31349  19568891.9584   19568898.0484
  18291989.968   -12313740.16249  -9582675.89449  18291989.3294   18291995.8414
  21528453.347      391423.67249    324989.78049  21528452.5024   21528462.2224
  17584233.079   -32955408.79249 -25643367.93749  17584232.0694   17584238.2274
  20929959.888   -21168240.71449 -14844292.92249  20929958.6814   20929966.3324
 97  3 19 20  1 59.9900000  0  6  2 26 27 19  7 15
  18284940.796   -18174319.41549 -14146028.36649  18284940.1294   18284946.1184
  19552691.219   -29696520.17249 -22751908.27149  19552691.1444   19552697.0294
  18289651.604   -12326028.42349  -9592251.18549  18289650.7084   18289657.3374
  21532732.407      413910.19449    342511.67949  21532731.7104   21532741.9404
  17564049.393   -33061474.71049 -25726016.69249  17564048.6024   17564054.6014
  20916978.483   -21236458.78049 -14897449.84849  20916977.0684   20916985.5924
 97  3 19 20  2 29.9900000  0  6  2 26 27 19  7 15
  18272802.752   -18238105.15749 -14195731.54249  18272801.9224   18272808.0074
  19536591.761   -29781123.53249 -22817832.96449  19536591.6594   19536597.7854
  18287386.606   -12337931.02249  -9601525.96149  18287386.3464   18287392.6204
  21537030.995      436499.15649    360113.40149  21537030.2844   21537039.8104
  17543953.216   -33167080.79149 -25808307.12949  17543952.3454   17543958.3074
  20904097.385   -21304149.03249 -14950195.49249  20904096.3054   20904104.1454
 97  3 19 20  2 59.9900000  0  6  2 26 27 19  7 15
  18260678.192   -18301820.12449 -14245379.56649  18260677.4164   18260683.5824
  19520583.058   -29865249.90449 -22883385.98649  19520582.8324   19520588.9034
  18285186.666   -12349491.56749  -9610534.19749  18285185.8394   18285192.3934
  21541342.127      459153.72549    377766.23849  21541341.8394   21541349.9184
  17523935.187   -33272276.08449 -25890277.47049  17523934.3934   17523940.4274
  20891309.039   -21371351.96449 -15002561.40749  20891308.0284   20891315.1904
 97  3 19 20  3 29.9900000  0  6  2 26 27 19  7 15
  18248565.531   -18365472.55449 -14294978.86749  18248564.9914   18248570.6454
  19504661.077   -29948920.76249 -22948584.06049  19504661.0944   19504667.0564
  18283050.303   -12360718.19149  -9619282.23949  18283049.5784   18283055.7844
  21545661.606      481852.06249    395453.19149  21545661.3994   21545670.1184
  17503989.153   -33377093.00449 -25971952.98449  17503988.4814   17503994.4484
  20878612.303   -21438075.63949 -15054553.87549  20878611.0384   20878619.4074
 97  3 19 20  3 59.9900000  0  6  2 26 27 19  7 15
  18236465.255   -18429060.04949 -14344527.56249  18236464.6184   18236470.5874
  19488823.826   -30032146.19449 -23013435.04549  19488823.7484   19488829.2444
  18280976.934   -12371613.83849  -9627772.37449  18280976.2434   18280982.5774
  21549989.450      504594.07949    413174.16249  21549989.5934   21549998.5854
  17484113.832   -33481538.36749 -26053338.96649  17484113.1104   17484119.1524
  20866005.679   -21504324.06249 -15106176.02449  20866004.6464   20866012.0324
 97  3 19 20  4 29.9900000  0  6  2 26 27 19  7 15
  18224382.914   -18492553.13749 -14394002.69349  18224382.2334   18224388.5154
  19473074.586   -30114909.09949 -23077925.62749  19473074.9314   19473080.9354
  18278972.099   -12382149.43049  -9635981.95449  18278971.8914   18278977.9834
  21554330.584      527406.30349    430949.85949  21554330.3784   21554338.3264
  17464312.892   -33585593.11249 -26134420.57549  17464311.9384   17464318.1274
  20853493.309   -21570075.96049 -15157411.25949  20853491.8784   20853500.1414
 97  3 19 20  4 59.9900000  0  6  2 26 27 19  7 15
  18212318.997   -18555949.50549 -14443402.45849  18212318.0754   18212324.2964
  19457414.757   -30197202.30449 -23142050.20749  19457414.5224   19457420.5744
  18277036.850   -12392319.36649  -9643906.59649  18277036.6714   18277043.2794
  21558687.118      550299.65249    448788.75749  21558687.3214   21558694.5544
  17444589.959   -33689237.63649 -26215182.52449  17444589.0724   17444595.2754
  20841076.606   -21635324.91349 -15208254.61149  20841076.5734   20841083.1164
 97  3 19 20  5 29.9900000  0  6  2 26 27 19  7 15
  18200272.929   -18619251.89149 -14492728.99149  18200272.2044   18200278.1774
  19441845.646   -30279018.72849 -23205803.27849  19441845.9104   19441851.2404
  18275168.150   -12402139.52249  -9651558.69149  18275167.7054   18275174.7554
  21563060.332      573280.82449    466696.09149  21563060.5744   21563068.5824
  17424946.389   -33792465.09449 -26295619.48849  17424945.6514   17424951.7134
  20828755.595   -21700072.23149 -15258707.04849  20828755.6134   20828762.5944
 97  3 19 20  5 59.9900000  0  6  2 26 27 19  7 15
  18188250.107   -18682432.51949 -14541960.64649  18188249.6274   18188255.5304
  19426372.662   -30360330.01449 -23269162.72649  19426372.5124   19426378.6474
  18273368.201   -12411598.66349  -9658929.47749  18273367.9914   18273373.9914
  21567455.364      596376.68249    484692.78249  21567455.8314   21567464.2334
  17405388.340   -33895243.14249 -26375706.26249  17405387.4014   17405393.7524
  20816534.223   -21764297.52349 -15308752.73649  20816533.8834   20816541.2364
 97  3 19 20  6 29.9900000  0  6  2 26 27 19  7 15
  18176249.884   -18745494.13949 -14591099.57049  18176249.2054   18176254.9174
  19410996.753   -30441131.00549 -23332124.54749  19410996.4574   19411002.2644
  18271637.378   -12420694.44149  -9666017.11449  18271636.7494   18271643.0974
  21571874.230      619597.62149    502786.93649  21571874.4424   21571883.0334
  17385916.046   -33997570.70749 -26455442.01249  17385915.0714   17385921.2874
  20804413.050   -21827994.42649 -15358386.69749  20804412.0454   20804419.2944
 97  3 19 20  6 59.9900000  0  6  2 26 27 19  7 15
  18164278.474   -18808404.43849 -14640120.57849  18164277.8924   18164283.7224
  19395723.523   -30521392.48649 -23394665.96249  19395723.8004   19395729.6424
  18269980.258   -12429402.73449  -9672802.81849  18269979.6464   18269986.2864
  21576321.416      642967.57549    520997.20249  21576321.5634   21576328.2714
  17366536.291   -34099411.82949 -26534798.71149  17366535.2884   17366541.3704
  20792397.875   -21891135.72549 -15407587.69649  20792397.2034   20792404.1074
 97  3 19 20  7 29.9900000  0  6  2 26 27 19  7 15
  18152331.624   -18871185.73949 -14689041.06849  18152331.0134   18152336.7274
  19380545.594   -30601153.04649 -23456817.06049  19380545.2184   19380551.4684
  18268392.394   -12437746.96749  -9679304.83849  18268391.7664   18268397.8954
  21580790.920      666454.88749    539298.91749  21580790.8994   21580798.7664
  17347241.713   -34200805.49149 -26613806.74549  17347240.6454   17347246.6624
  20780482.630   -21953750.42149 -15456378.37549  20780481.8624   20780489.2354
 97  3 19 20  7 59.9900000  0  5  2 26 27  7 15
  18140413.860   -18933814.11549 -14737842.39849  18140413.1534   18140418.8574
  19365469.099   -30680380.84349 -23518553.01449  19365469.0154   19365474.6274
  18266883.413   -12445676.45349  -9685483.68449  18266882.8804   18266889.4924
  17328040.733   -34301707.18649 -26692431.43049  17328039.7484   17328045.7844
  20768674.926   -22015799.86249 -15504728.57749  20768673.9064   20768681.2364
 97  3 19 20  8 29.9900000  0  5  2 26 27  7 15
  18128523.421   -18996298.88149 -14786531.82049  18128522.7554   18128528.6754
  19350490.421   -30759094.22649 -23579888.13349  19350490.5144   19350496.0504
  18265451.488   -12453201.09249  -9691347.06249  18265451.1614   18265457.7264
  17308932.689   -34402120.31649 -26770675.41549  17308932.0564   17308938.0184
  20756973.068   -22077294.58449 -15552646.54249  20756971.6884   20756979.4274
 97  3 19 20  8 59.9890000  0  5  2 26 27  7 15
  18116666.528   -19058607.25449 -14835083.79549  18116665.7534   18116671.8014
  19335617.016   -30837254.59849 -23640792.33149  19335617.1514   19335622.4494
  18264103.597   -12460284.64849  -9696866.74549  18264103.2344   18264109.5404
  17289925.227   -34502005.42649 -26848507.95149  17289924.6144   17289930.7044
  20745383.531   -22138197.43149 -15600103.29649  20745382.0414   20745390.4044
 97  3 19 20  9 29.9890000  0  5  2 26 27  7 15
  18104828.515   -19120816.42749 -14883558.47349  18104827.6694   18104833.7604
  19320836.866   -30914924.92549 -23701314.67349  19320836.6334   19320842.2904
  18262829.938   -12466977.92749  -9702082.31449  18262829.8064   18262836.0094
  17271005.102   -34601431.39749 -26925982.71849  17271004.4424   17271010.6164
  20733896.022   -22198564.13049 -15647142.28049  20733894.7434   20733902.5764
 97  3 19 20  9 59.9890000  0  5  2 26 27  7 15
  18093019.583   -19182872.59449 -14931913.92849  18093018.4544   18093024.5764
  19306161.299   -30992045.72049 -23761408.81549  19306161.2834   19306166.7244
  18261640.924   -12473226.47549  -9706951.33949  18261640.4694   18261647.0684
  17252184.101   -34700336.62249 -27003051.71049  17252183.4724   17252189.1854
  20722521.946   -22258334.62949 -15693716.71049  20722520.1084   20722528.1024
 97  3 19 20 10 29.9890000  0  5  2 26 27  7 15
  18081234.693   -19244802.58049 -14980171.05749  18081234.1224   18081239.9994
  19291581.559   -31068663.01049 -23821110.61549  19291581.2664   19291587.3384
  18260525.410   -12479088.61449  -9711519.27049  18260525.0324   18260531.7474
  17233451.879   -34798775.32749 -27079757.18149  17233451.3304   17233457.0524
  20711253.605   -22317550.44649 -15739858.88049  20711253.0384   20711260.4154
 97  3 19 20 10 59.9890000  0  5  2 26 27  7 15
  18069477.991   -19306584.34949 -15028312.69649  18069477.1914   18069483.2214
  19277100.625   -31144760.91349 -23880407.70349  19277100.6014   19277106.6234
  18259486.170   -12484550.08849  -9715774.99149  18259486.1014   18259492.5034
  17214810.013   -34896739.08049 -27156092.56249  17214809.2464   17214815.1994
  20700093.809   -22376195.50349 -15785556.33249  20700092.7544   20700100.5554
 97  3 19 20 11 29.9890000  0  5  2 26 27  7 15
  18057751.636   -19368206.82249 -15076330.20849  18057750.7494   18057756.7964
  19262715.969   -31220352.67749 -23939310.39149  19262715.4804   19262721.6224
  18258517.205   -12489642.31649  -9719742.98949  18258516.9324   18258523.4974
  17196256.083   -34994240.72549 -27232067.85849  17196255.2104   17196261.2694
  20689039.412   -22434287.53549 -15830822.83949  20689038.5074   20689045.3324
 97  3 19 20 11 59.9890000  0  5  2 26 27  7 15
  18046061.012   -19429641.38249 -15124201.29549  18046060.3124   18046066.3954
  19248429.256   -31295429.83049 -23997812.08549  19248429.2304   19248435.0644
  18257615.790   -12494379.44449  -9723434.28549  18257615.5764   18257621.5324
  17177790.323   -35091278.67549 -27307681.83249  17177789.5244   17177795.3764
  20678088.924   -22491831.76849 -15875662.50049  20678086.9984   20678094.7564
 97  3 19 20 12 29.9890000  0  5  2 26 27  7 15
  18034403.276   -19490903.12649 -15171937.71649  18034402.4034   18034408.6274
  19234239.113   -31369999.37049 -24055918.23149  19234238.9734   19234245.0274
  18256780.666   -12498768.16249  -9726854.09149  18256780.6544   18256787.1564
  17159408.754   -35187874.34449 -27382951.17249  17159407.9894   17159414.0334
  20667239.302   -22548847.12049 -15920090.03749  20667237.4194   20667245.8024
 97  3 19 20 12 59.9890000  0  5  2 26 27  7 15
  18022774.109   -19552015.13549 -15219557.46549  18022773.6334   18022779.3234
  19220147.532   -31444050.81649 -24113620.67049  19220147.8294   19220153.3974
  18256015.879   -12502787.47949  -9729986.05449  18256015.5834   18256021.8634
  17141112.284   -35284023.01849 -27457872.20749  17141111.5054   17141117.5234
  20656489.402   -22605338.62649 -15964109.38249  20656488.7504   20656495.1684
 97  3 19 20 13 29.9890000  0  5  2 26 27  7 15
  18011169.494   -19612997.84149 -15267076.45549  18011168.7574   18011174.7644
  19206154.081   -31517586.97749 -24170921.58749  19206154.1464   19206160.1344
  18255323.561   -12506426.04849  -9732821.33349  18255322.9434   18255329.8614
  17122900.108   -35379728.58849 -27532447.96249  17122899.4434   17122905.3534
  20645839.251   -22661303.99549 -16007718.75049  20645838.5634   20645845.7734
 97  3 19 20 13 59.9890000  0  5  2 26 27  7 15
  17999585.413   -19673872.82549 -15314511.50549  17999584.9574   17999590.6104
  19192257.633   -31590613.48149 -24227825.37349  19192257.6864   19192263.6944
  18254707.557   -12509663.28349  -9735343.88549  18254707.1694   18254713.6754
  17104772.490   -35474989.78649 -27606677.45549  17104771.5334   17104777.3624
  20635291.167   -22716735.07449 -16050911.80249  20635290.4564   20635298.6714
 97  3 19 20 14 29.9890000  0  5  2 26 27  7 15
  17988006.366   -19734721.20149 -15361925.82549  17988005.5334   17988011.5394
  19178446.789   -31663190.02749 -24284378.54049  19178447.1174   19178452.7734
  18254159.029   -12512545.88449  -9737590.09849  18254158.4294   18254164.8644
  17086719.006   -35569861.04949 -27680603.10049  17086718.0914   17086723.9044
  20624835.318   -22771681.11449 -16093726.90449  20624834.3844   20624842.0004
 97  3 19 20 14 59.9890000  0  5  2 26 27  7 15
  17976439.351   -19795506.11349 -15409290.69549  17976438.4314   17976444.5954
  19164726.858   -31735288.78249 -24340559.40549  19164726.4564   19164732.9484
  18253680.951   -12515058.33049  -9739547.88449  18253680.5604   18253687.0314
  17068748.338   -35664297.21049 -27754189.70749  17068747.5724   17068753.3384
  20614478.714   -22826105.11149 -16136135.21949  20614477.9044   20614485.8504
 97  3 19 20 15 29.9890000  0  5  2 26 27  7 15
  17964888.402   -19856206.73449 -15456589.88049  17964887.7874   17964893.6044
  19151096.409   -31806917.15749 -24396373.74349  19151096.5124   19151101.7304
  18253267.450   -12517231.27049  -9741241.11249  18253267.0564   18253273.7634
  17050857.835   -35758312.56549 -27827448.41149  17050857.0974   17050863.0824
  20604220.588   -22880012.13349 -16178140.69549  20604219.2764   20604227.2394
 97  3 19 20 15 59.9890000  0  5  2 26 27  7 15
  17953360.952   -19916783.93849 -15503792.89749  17953360.1674   17953366.1104
  19137563.916   -31878030.88949 -24451787.05649  19137564.0904   19137569.8734
  18252920.119   -12519056.78849  -9742663.62849  18252919.4474   18252926.5964
  17033054.353   -35851870.63749 -27900350.78849  17033053.5024   17033059.2954
  20594064.884   -22933380.75549 -16219726.61749  20594064.3464   20594070.5684
 97  3 19 20 16 29.9890000  0  5  2 26 27  7 15
  17941856.928   -19977238.13349 -15550900.05949  17941856.2614   17941862.3684
  19124128.581   -31948634.23649 -24506802.66849  19124128.4414   19124134.9464
  18252635.986   -12520549.96949  -9743827.17249  18252635.5734   18252642.3944
  17015336.746   -35944977.62749 -27972901.67249  17015336.0084   17015342.0084
  20584009.732   -22986221.14449 -16260900.96349  20584009.0374   20584017.2494
 97  3 19 20 16 59.9890000  0  5  2 26 27  7 15
  17930378.367   -20037558.37049 -15597902.83849  17930377.5684   17930383.7694
  19110787.231   -32018743.23249 -24561433.06549  19110787.5274   19110793.6834
  18252411.527   -12521729.44249  -9744746.28049  18252411.4784   18252417.7414
  16997703.354   -36037641.71949 -28045107.44049  16997702.5154   16997708.2704
  20574052.614   -23038546.04949 -16301673.59949  20574052.1504   20574059.2194
 97  3 19 20 17 29.9890000  0  5  2 26 27  7 15
  17918927.474   -20097733.15249 -15644792.27549  17918926.6654   17918932.7214
  19097540.709   -32088353.99549 -24615675.24049  19097540.1484   19097546.9724
  18252249.839   -12522579.27449  -9745408.52049  18252249.1714   18252255.5134
  16980155.268   -36129857.52649 -28116963.89449  16980154.4644   16980160.2114
  20564195.058   -23090347.74549 -16342038.55449  20564194.9144   20564201.1114
 97  3 19 20 17 59.9890000  0  5  2 26 27  7 15
  17907502.553   -20157771.55649 -15691575.44749  17907501.6954   17907507.7954
  19084386.584   -32157479.81749 -24669539.53449  19084386.9044   19084392.5884
  18252154.508   -12523080.21849  -9745798.90449  18252154.1974   18252160.6074
  16962694.364   -36221614.94549 -28188463.16349  16962693.4124   16962699.3144
  20554438.224   -23141620.43749 -16381991.28749  20554437.7194   20554445.0124
 97  3 19 20 18 29.9890000  0  5  2 26 27  7 15
  17896097.749   -20217704.38349 -15738276.35249  17896096.8704   17896103.0874
  19071314.577   -32226173.97049 -24723067.45749  19071315.1134   19071320.8234
  18252120.774   -12523257.58049  -9745937.13449  18252120.0804   18252127.3244
  16945312.185   -36312958.49749 -28259639.93949  16945311.1154   16945317.2714
  20544777.021   -23192390.32149 -16421552.23749  20544776.0674   20544783.3924
 97  3 19 20 18 59.9890000  0  5  2 26 27  7 15
  17884720.195   -20277493.90749 -15784865.59349  17884719.4464   17884725.2824
  19058332.518   -32294395.30349 -24776226.95549  19058332.3914   19058338.1434
  18252156.840   -12523068.18949  -9745789.59449  18252156.6854   18252162.9114
  16928014.876   -36403856.27049 -28330469.35949  16928013.9604   16928019.5344
  20535219.472   -23242615.78649 -16460688.94049  20535217.8454   20535226.0284
 97  3 19 20 19 29.9880000  0  5  2 26 27  7 15
  17873364.287   -20337169.64049 -15831366.16649  17873363.6384   17873369.3594
  19045440.032   -32362146.00249 -24829019.72049  19045439.8164   19045445.7624
  18252260.673   -12522522.84849  -9745364.68049  18252260.9234   18252266.3924
  16910799.745   -36494322.03449 -28400962.14849  16910798.9184   16910804.9684
  20525763.110   -23292309.23949 -16499411.10649  20525762.2704   20525769.5534
 97  3 19 20 19 59.9880000  0  5  2 26 27  7 15
  17862029.700   -20396733.18849 -15877779.32549  17862028.9354   17862034.8794
  19032638.926   -32429416.27849 -24881438.13149  19032638.9784   19032645.2014
  18252433.177   -12521616.67149  -9744658.60749  18252433.0644   18252439.3744
  16893667.939   -36584350.35249 -28471114.06849  16893667.2784   16893672.9664
  20516408.690   -23341467.42449 -16537716.16049  20516409.3754   20516415.2174
 97  3 19 20 20 29.9880000  0  5  2 26 27  7 15
  17850713.186   -20456201.93549 -15924118.61049  17850712.5194   17850718.5194
  19019927.756   -32496213.86549 -24933488.20949  19019927.8084   19019934.0054
  18252667.934   -12520383.16549  -9743697.46849  18252667.4114   18252674.2624
  16876617.296   -36673952.30749 -28540933.75349  16876616.4324   16876622.4894
  20507151.659   -23390113.56949 -16575622.23549  20507151.4844   20507157.9204
 97  3 19 20 20 59.9880000  0  6  2 26 27  7  4 15
  17839421.957   -20515537.88749 -15970354.42349  17839421.2864   17839427.1094
  19007315.898   -32562489.86549 -24985131.86249  19007316.4694   19007322.3194
  18252971.797   -12518786.56749  -9742453.39849  18252970.9514   18252978.0144
  16859657.396   -36763077.16249 -28610381.67749  16859656.3334   16859662.7434
  21213132.362    -9308246.76249  -7227598.57349  21213132.1144   21213139.1284
  20497997.633   -23438218.30449 -16613106.43149  20497996.9324   20498004.4454
 97  3 19 20 21 29.9880000  0  6  2 26 27  7  4 15
  17828154.429   -20574749.35149 -16016493.22649  17828153.8264   17828159.8684
  18994801.057   -32628255.95349 -25036378.17249  18994801.1834   18994807.3824
  18253343.641   -12516832.66049  -9740930.91349  18253343.2034   18253350.0574
  16842787.540   -36851728.73849 -28679460.81249  16842786.8014   16842793.0584
  21179074.405    -9487221.94049  -7367059.67149  21179074.6724   21179082.2004
  20488944.283   -23485794.21449 -16650178.57049  20488943.4704   20488951.3934
 97  3 19 20 21 59.9880000  0  6  2 26 27  7  4 15
  17816914.200   -20633817.08049 -16062520.03749  17816913.4084   17816919.4114
  18982379.902   -32693529.77149 -25087240.89649  18982380.1224   18982385.8034
  18253785.280   -12514511.97649  -9739122.62449  18253785.0684   18253791.7674
  16826007.456   -36939908.68249 -28748172.44649  16826006.8484   16826012.6954
  21145000.111    -9666282.76149  -7506587.50549  21145000.6814   21145007.2554
  20479992.021   -23532838.73549 -16686836.62549  20479990.6184   20479997.5014
 97  3 19 20 22 29.9880000  0  6  2 26 27  7  4 15
  17805698.507   -20692756.02849 -16108446.49149  17805697.8424   17805703.8504
  18970047.040   -32758339.25149 -25137741.79949  18970047.1104   18970052.7604
  18254293.095   -12511843.62149  -9737043.42449  18254293.1264   18254298.6924
  16809310.275   -37027653.11549 -28816544.71649  16809309.5774   16809315.6844
  21110904.743    -9845455.30549  -7646202.40149  21110904.3854   21110912.4634
  20471137.277   -23579370.60049 -16723095.22449  20471136.3974   20471143.7644
 97  3 19 20 22 59.9880000  0  6  2 26 27  7  4 15
  17794501.074   -20751598.79349 -16154298.00049  17794500.1144   17794506.2824
  18957797.207   -32822712.52349 -25187902.81249  18957797.2904   18957803.2454
  18254863.538   -12508846.39449  -9734707.96149  18254863.1514   18254869.2134
  16792687.818   -37115004.42649 -28884610.66549  16792686.8654   16792693.1784
  21076780.484   -10024779.03949  -7785935.12649  21076780.6884   21076788.4354
  20462375.237   -23625415.44549 -16758974.32449  20462375.0234   20462382.1554
 97  3 19 20 23 29.9880000  0  6  2 26 27  7  4 15
  17783339.004   -20810256.00849 -16200004.92349  17783338.2114   17783344.3214
  18945644.509   -32886575.53949 -25237666.20949  18945644.3934   18945650.4094
  18255512.845   -12505434.37249  -9732049.27249  18255512.7424   18255518.6384
  16776154.668   -37201886.57549 -28952311.02749  16776153.9704   16776159.8384
  21042644.218   -10204166.13349  -7925717.21549  21042644.4604   21042651.8794
  20453722.779   -23670884.52149 -16794404.76949  20453721.6334   20453729.0784
 97  3 19 20 23 59.9880000  0  7  9  2 26 27  7  4 15
  21164069.714    -9182390.81249  -5855029.69649  21164069.3704   21164075.8694
  17772203.663   -20868772.41349 -16245602.12549  17772202.9904   17772208.7854
  18933580.013   -32949974.94249 -25287068.35849  18933579.7554   18933585.8674
  18256228.419   -12501674.09049  -9729119.22349  18256227.8664   18256234.9264
  16759702.305   -37288344.28449 -29019680.66349  16759701.5104   16759707.6134
  21008485.290   -10383672.31849  -8065592.10149  21008485.2984   21008493.3834
  20445170.078   -23715829.74249 -16829427.02649  20445169.7834   20445176.0404
 97  3 19 20 24 29.9880000  0  7  9  2 26 27  7  4 15
  21130425.479    -9359192.24849  -5992796.98249  21130424.2624   21130431.7454
  17761093.049   -20927159.42649 -16291098.50049  17761092.4424   17761098.6534
  18921608.397   -33012886.20049 -25336090.13149  18921608.8034   18921614.4404
  18257007.484   -12497579.88849  -9725928.97649  18257007.1774   18257013.5644
  16743331.860   -37374371.66149 -29086714.97249  16743331.0734   16743337.1954
  20974305.256   -10563289.46649  -8205553.46349  20974305.2414   20974313.1004
  20436716.309   -23760254.55249 -16864043.77749  20436715.9064   20436723.3354
 97  3 19 20 24 59.9880000  0  7  9  2 26 27  7  4 15
  21096777.109    -9536015.03949  -6130580.90649  21096776.6654   21096782.8624
  17750005.115   -20985427.15749 -16336501.93149  17750004.5284   17750010.4384
  18909728.677   -33075314.56049 -25384735.61549  18909728.1784   18909734.8854
  18257848.611   -12493159.64749  -9722484.67449  18257848.0354   18257854.5404
  16727044.870   -37459960.31149 -29153407.41849  16727044.0084   16727049.9664
  20940106.153   -10743006.94049  -8345592.97149  20940106.1764   20940113.2974
  20428359.467   -23804169.60349 -16898263.31449  20428359.0714   20428366.4944
 97  3 19 20 25 29.9880000  0  7  9  2 26 27  7  4 15
  21063135.097    -9712804.40549  -6268338.79349  21063133.9864   21063141.2134
  17738951.989   -21043511.80849 -16381762.69849  17738951.3004   17738957.0894
  18897950.329   -33137210.54249 -25432966.26949  18897950.7414   18897956.1104
  18258759.142   -12488374.60249  -9718756.10149  18258758.7744   18258764.6984
  16710852.381   -37545052.36649 -29219712.90549  16710851.6184   16710857.4994
  20905899.591   -10922763.61049  -8485663.05049  20905899.1974   20905907.3604
  20420108.995   -23847526.01449 -16932047.55849  20420108.7834   20420115.4554
 97  3 19 20 25 59.9880000  0  7  9  2 26 27  7  4 15
  21029497.159    -9889572.81749  -6406080.35149  21029496.9424   21029503.4794
  17727925.639   -21101455.48049 -16426913.61649  17727924.7834   17727930.7354
  18886269.102   -33198596.31049 -25480799.34949  18886269.1784   18886275.6674
  18259731.183   -12483266.63949  -9714775.91849  18259730.8514   18259737.7304
  16694749.040   -37629675.69449 -29285653.15349  16694748.2364   16694754.6294
  20871681.113   -11102583.13949  -8625782.08649  20871681.1564   20871688.9014
  20411958.724   -23890356.05649 -16965421.62649  20411958.5954   20411964.4054
 97  3 19 20 26 29.9880000  0  7  9  2 26 27  7  4 15
  20995858.628   -10066344.03849  -6543824.08949  20995858.1904   20995865.1884
  17716917.162   -21159305.49249 -16471991.54849  17716916.5844   17716922.6044
  18874677.146   -33259512.43749 -25528266.46849  18874677.3134   18874683.0274
  18260758.843   -12477866.43349  -9710567.99849  18260758.2704   18260765.0004
  16678726.828   -37713872.98849 -29351261.42649  16678726.2784   16678732.3804
  20837445.330   -11282493.04349  -8765971.54949  20837445.7864   20837452.6154
  20403902.277   -23932693.40449 -16998411.76349  20403901.1034   20403908.7344
 97  3 19 20 26 59.9880000  0  7  9  2 26 27  7  4 15
  20962225.745   -10243085.55649  -6681544.67149  20962224.0544   20962232.5014
  17705932.959   -21217027.88849 -16516970.04249  17705932.1884   17705938.1434
  18863177.748   -33319942.21649 -25575354.62449  18863177.8444   18863184.1874
  18261848.661   -12472139.60949  -9706105.57749  18261848.5254   18261855.0374
  16662790.351   -37797620.06849 -29416518.88049  16662789.2814   16662795.4344
  20803197.584   -11462465.76149  -8906209.95849  20803197.1064   20803206.2274
  20395945.525   -23974506.50149 -17030993.42049  20395945.2714   20395952.2014
 97  3 19 20 27 29.9880000  0  7  9  2 26 27  7  4 15
  20928593.755   -10419822.17849  -6819261.45949  20928593.7564   20928600.2464
  17694967.463   -21274651.77749 -16561871.77949  17694966.5904   17694972.6164
  18851767.632   -33379902.94449 -25622077.28349  18851767.7134   18851773.5374
  18262996.552   -12466107.86549  -9701405.55949  18262995.7414   18263001.9754
  16646933.828   -37880946.68949 -29481448.70749  16646933.0484   16646939.0214
  20768934.686   -11642518.57949  -9046510.76949  20768934.7264   20768942.5614
  20388085.152   -24015813.04049 -17063180.35049  20388084.8634   20388091.8564
 97  3 19 20 27 59.9880000  0  7  9  2 26 27  7  4 15
  20894960.306   -10596567.43249  -6956984.96749  20894960.0404   20894966.7664
  17684018.722   -21332187.68149 -16606704.95149  17684017.9594   17684023.9094
  18840445.276   -33439402.63849 -25668440.69449  18840444.9114   18840451.3214
  18264203.664   -12459764.68649  -9696462.85749  18264204.0854   18264209.7324
  16631155.468   -37963862.59049 -29546058.48949  16631154.7014   16631160.7514
  20734657.868   -11822644.14249  -9186868.27149  20734657.4454   20734665.4574
  20380320.936   -24056614.37049 -17094973.60649  20380320.3884   20380327.8944
 97  3 19 20 28 29.9880000  0  7  9  2 26 27  7  4 15
  20861328.316   -10773304.44449  -7094702.05049  20861328.2734   20861334.9444
  17673094.045   -21389597.09749 -16651439.56549  17673093.3124   17673099.3374
  18829215.517   -33498415.45449 -25714424.71749  18829215.9454   18829220.9364
  18265478.346   -12453066.41949  -9691243.46449  18265478.2634   18265485.1744
  16615459.588   -38046345.01449 -29610330.49449  16615458.9174   16615465.0324
  20700372.431   -12002814.95549  -9327261.03349  20700371.8014   20700379.9514
  20372658.357   -24096881.53449 -17126350.62249  20372658.1724   20372665.2514
 97  3 19 20 28 59.9880000  0  7  9  2 26 27  7  4 15
  20827692.029   -10950063.75549  -7232436.50749  20827691.7094   20827699.0294
  17662190.278   -21446896.98149 -16696088.82749  17662189.5314   17662195.5024
  18818074.190   -33556963.47649 -25760046.56249  18818074.3984   18818079.2804
  18266815.801   -12446038.47549  -9685767.18249  18266815.4274   18266822.4824
  16599839.729   -38128427.81149 -29674291.10249  16599838.9214   16599845.1204
  20666075.589   -12183046.13549  -9467700.82949  20666075.6344   20666082.6494
  20365091.431   -24136646.24449 -17157336.11149  20365090.6314   20365098.1204
 97  3 19 20 29 29.9870000  0  7  9  2 26 27  7  4 15
  20794056.477   -11126819.52249  -7370168.19849  20794055.3554   20794064.0084
  17651309.226   -21504077.35149 -16740644.96349  17651308.6234   17651314.6664
  18807023.595   -33615034.62549 -25805296.81949  18807023.5394   18807029.5194
  18268217.813   -12438670.98049  -9680026.32249  18268216.6574   18268224.2694
  16584298.884   -38210095.42549 -29737928.19649  16584298.3094   16584304.0744
  20631770.357   -12363320.88849  -9608174.58749  20631769.9934   20631777.8654
  20357620.960   -24175903.52549 -17187926.19449  20357619.9534   20357627.1584
 97  3 19 20 29 59.9870000  0  7  9  2 26 27  7  4 15
  20760423.365   -11303562.42049  -7507889.86349  20760422.5394   20760430.7454
  17640454.713   -21561118.27649 -16785092.44249  17640454.2784   17640459.9794
  18796065.044   -33672622.16749 -25850170.24749  18796065.7944   18796071.4784
  18269684.614   -12430962.93349  -9674020.09249  18269683.9014   18269690.9594
  16568837.892   -38291343.72949 -29801238.55449  16568837.2934   16568843.1154
  20597454.450   -12543651.82249  -9748692.12549  20597453.9794   20597461.1464
  20350247.218   -24214652.94849 -17218120.52849  20350246.7374   20350254.0624
 97  3 19 20 30 29.9870000  0  7  9  2 26 27  7  4 15
  20726792.098   -11480295.78449  -7645604.08849  20726792.1204   20726799.3354
  17629622.898   -21618039.97749 -16829447.01549  17629622.1474   17629628.2854
  18785195.051   -33729744.49749 -25894681.17749  18785195.3804   18785201.3164
  18271210.862   -12422942.74149  -9667770.63849  18271210.5344   18271217.3014
  16553454.784   -38372182.78149 -29864230.01349  16553454.0124   16553459.9904
  20563123.713   -12724061.21649  -9889270.80549  20563123.1564   20563131.2264
  20342965.166   -24252920.11049 -17247939.08149  20342963.8494   20342970.9084
 97  3 19 20 30 59.9870000  0  7  9  2 26 27  7  4 15
  20693171.187   -11656975.09449  -7783276.19749  20693171.0264   20693177.6294
  17618820.631   -21674806.25849 -16873680.48849  17618819.8754   17618825.9024
  18774421.986   -33786357.53449 -25938795.22949  18774421.8584   18774427.9854
  18272803.153   -12414575.29449  -9661250.59349  18272802.4924   18272809.0874
  16538158.627   -38452564.66149 -29926865.23649  16538157.7624   16538163.4834
  20528787.069   -12904501.58049 -10029873.62549  20528787.1764   20528793.1224
  20335782.648   -24290664.40349 -17277350.21649  20335781.5114   20335789.4224
 97  3 19 20 31 29.9870000  0  7  9  2 26 27  7  4 15
  20659561.042   -11833597.61449  -7920904.05249  20659559.6444   20659566.7574
  17608048.826   -21731412.39249 -16917789.16749  17608048.0324   17608054.1604
  18763745.396   -33842463.49849 -25982514.18849  18763745.5894   18763751.2944
  18274461.805   -12405859.04549  -9654458.74549  18274461.3344   18274467.6224
  16522953.511   -38532467.60849 -29989127.26249  16522952.5584   16522958.4634
  20494441.951   -13084986.17049 -10170510.90449  20494442.4734   20494448.9074
  20328701.401   -24327876.97549 -17306346.99549  20328701.2834   20328707.5154
 97  3 19 20 31 59.9870000  0  7  9  2 26 27  7  4 15
  20625972.951   -12010104.48649  -8058441.79449  20625973.1764   20625979.8154
  17597320.298   -21787791.13949 -16961720.66149  17597319.4494   17597325.4074
  18753176.124   -33898005.36849 -26025793.57849  18753176.0464   18753181.8234
  18276199.110   -12396729.39249  -9647344.76649  18276198.3614   18276205.2284
  16507852.536   -38611823.35949 -30050962.90449  16507851.8324   16507857.5914
  20460101.883   -13265443.95649 -10311127.30749  20460101.4274   20460109.1454
  20321735.534   -24364483.08249 -17334871.21649  20321734.2864   20321740.9814
 97  3 19 20 32 29.9870000  0  7  9  2 26 27  7  4 15
  20592396.067   -12186552.21349  -8195933.46549  20592395.7014   20592402.4674
  17586623.485   -21844003.26649 -17005522.32249  17586622.7044   17586628.8054
  18742703.628   -33953038.76049 -26068676.75749  18742703.3964   18742709.6054
  18278006.168   -12387233.52249  -9639945.43349  18278006.0804   18278011.6914
  16492846.376   -38690681.40249 -30112410.72049  16492845.7504   16492851.5954
  20425759.896   -13445912.41049 -10451752.03949  20425760.0814   20425766.5934
  20314876.225   -24400528.86549 -17362958.82149  20314875.4844   20314882.9804
 97  3 19 20 32 59.9870000  0  7  9  2 26 27  7  4 15
  20558824.444   -12362972.18949  -8333403.50749  20558823.7424   20558831.4494
  17575952.932   -21900077.29949 -17049216.37849  17575952.4914   17575958.1524
  18732321.074   -34007599.53249 -26111191.66249  18732321.3144   18732327.1284
  18279874.185   -12377417.39849  -9632296.54749  18279873.9374   18279879.9984
  16477928.418   -38769076.12449 -30173497.50649  16477927.5984   16477933.4154
  20391411.346   -13626415.27349 -10592403.59249  20391411.1804   20391418.5974
  20308118.260   -24436041.63449 -17390631.08949  20308116.5434   20308124.9514
 97  3 19 20 33 29.9870000  0  7  9  2 26 27  7  4 15
  20525257.424   -12539368.11849  -8470854.80549  20525256.7004   20525264.4834
  17565305.625   -21956029.65949 -17092815.62649  17565304.8824   17565310.9274
  18722022.486   -34061719.20249 -26153362.85449  18722022.4844   18722029.0034
  18281798.361   -12367306.23049  -9624417.76049  18281798.9944   18281804.9824
  16463094.416   -38847029.43849 -30234240.33849  16463093.6574   16463099.5124
  20357052.932   -13806969.32749 -10733095.03749  20357053.1654   20357059.4564
  20301458.339   -24471039.28049 -17417901.96449  20301457.4334   20301464.5704
 97  3 19 20 33 59.9870000  0  7  9  2 26 27  7  4 15
  20491698.087   -12715723.03249  -8608274.13649  20491697.3934   20491705.5454
  17554681.830   -22011858.10949 -17136318.32149  17554680.9574   17554687.1684
  18711808.801   -34115392.66749 -26195186.34749  18711809.0044   18711814.4544
  18283779.772   -12356894.18249  -9616304.51549  18283779.6034   18283786.2354
  16448341.960   -38924554.03349 -30294649.10349  16448341.2304   16448346.9774
  20322689.320   -13987551.08549 -10873808.07249  20322689.2454   20322696.3564
  20294897.071   -24505518.90949 -17444769.19649  20294896.5654   20294903.9434
 97  3 19 20 34 29.9870000  0  7  9  2 26 27  7  4 15
  20458150.016   -12892018.82649  -8745647.41249  20458149.2984   20458156.5554
  17544084.443   -22067547.83949 -17179712.92049  17544083.5644   17544089.7384
  18701683.395   -34168602.56049 -26236648.61749  18701683.8144   18701689.2774
  18285819.898   -12346173.62949  -9607950.88549  18285819.6904   18285826.1344
  16433672.411   -39001642.83649 -30354718.29049  16433671.4864   16433677.5134
  20288324.056   -14168141.43649 -11014527.79449  20288323.6464   20288331.4144
  20288434.934   -24539477.61449 -17471230.50249  20288433.9394   20288441.0534
 97  3 19 20 34 59.9870000  0  7  9  2 26 27  7  4 15
  20424611.923   -13068262.31849  -8882979.93149  20424611.3364   20424618.8074
  17533514.116   -22123095.06549 -17222996.47449  17533513.4814   17533519.3644
  18691642.479   -34221368.15949 -26277764.68249  18691642.3254   18691648.0084
  18287918.524   -12335145.26249  -9599357.40349  18287918.2084   18287924.6424
  16419085.028   -39078299.54649 -30414450.78249  16419084.0654   16419089.9644
  20253953.746   -14348758.05149 -11155267.98749  20253953.6704   20253960.4714
  20282069.228   -24572929.76249 -17497297.10049  20282068.2364   20282075.3694
 97  3 19 20 35 29.9870000  0  7  9  2 26 27  7  4 15
  20391087.312   -13244434.96349  -9020257.25849  20391086.8044   20391093.4174
  17522976.850   -22178468.83249 -17266144.87049  17522975.7764   17522982.3204
  18681690.746   -34273664.95249 -26318515.44949  18681691.3744   18681696.4394
  18290085.488   -12323757.75849  -9590484.07549  18290084.5984   18290092.0844
  16404583.864   -39154503.54149 -30473830.51249  16404583.0434   16404589.0584
  20219582.368   -14529380.59649 -11296012.79749  20219582.5544   20219590.4534
  20275804.057   -24605853.50549 -17522951.95749  20275803.8034   20275810.5664
 97  3 19 20 35 59.9870000  0  7  9  2 26 27  7  4 15
  20357576.848   -13420533.07149  -9157476.48949  20357576.4834   20357583.3964
  17512475.477   -22233653.84549 -17309146.17749  17512474.9464   17512480.8934
  18671832.038   -34325472.81449 -26358885.22349  18671832.3994   18671837.4574
  18292322.914   -12312000.05449  -9581322.26949  18292322.8484   18292329.5534
  16390170.681   -39230245.30549 -30532850.05649  16390169.9514   16390175.8434
  20185211.856   -14709999.04749 -11436754.41749  20185211.5294   20185218.6464
  20269640.687   -24638242.58949 -17548190.19449  20269640.4304   20269647.2104
 97  3 19 20 36 29.9870000  0  7  9  2 26 27  7  4 15
  20324077.021   -13596575.65549  -9294652.46149  20324077.0144   20324083.4484
  17502007.820   -22288661.96149 -17352009.64849  17502007.3024   17502013.0094
  18662063.695   -34376805.71949 -26398884.90749  18662063.9024   18662069.0154
  18294627.941   -12299887.56949  -9571884.01549  18294627.0234   18294634.0094
  16375843.104   -39305537.36549 -30591519.18949  16375842.1804   16375848.1414
  20150837.806   -14890635.85549 -11577510.33049  20150837.7754   20150845.1594
  20263575.232   -24670117.24349 -17573027.57049  20263574.2494   20263581.4994
 97  3 19 20 36 59.9870000  0  7  9  2 26 27  7  4 15
  20290590.897   -13772546.32949  -9431772.38349  20290590.4374   20290596.3134
  17491575.851   -22343482.53249 -17394726.97549  17491575.3344   17491581.3484
  18652389.606   -34427643.65049 -26438498.90049  18652390.0194   18652395.3794
  18297003.541   -12287403.81749  -9562156.46449  18297002.3994   18297009.4404
  16361601.786   -39380376.24949 -30649835.19549  16361601.1394   16361607.3834
  20116463.143   -15071275.76549 -11718268.65549  20116462.9134   20116470.5714
  20257610.373   -24701462.45549 -17597452.41149  20257609.6394   20257616.7914
 97  3 19 20 37 29.9870000  0  7  9  2 26 27  7  4 15
  20257112.451   -13948476.14049  -9568860.48149  20257111.0244   20257117.7964
  17481169.629   -22398167.60949 -17437338.72949  17481169.2384   17481174.7654
  18642806.184   -34478004.95349 -26477741.49249  18642805.8944   18642812.1464
  18299441.282   -12274593.67549  -9552174.58149  18299440.5814   18299446.9584
  16347437.308   -39454811.37749 -30707836.58949  16347436.4854   16347442.2754
  20082084.108   -15251938.52549 -11859044.77849  20082084.7524   20082091.6194
  20251739.416   -24732314.49449 -17621492.94449  20251738.2634   20251745.7424
 97  3 19 20 37 59.9870000  0  7  9  2 26 27  7  4 15
  20223651.661   -14124313.68649  -9705876.68849  20223651.7874   20223656.3064
  17470794.112   -22452691.32649 -17479824.74249  17470793.3614   17470798.9694
  18633320.958   -34527850.11649 -26516581.89649  18633320.1014   18633326.9854
  18301945.333   -12261434.69749  -9541920.88749  18301945.4074   18301951.9654
  16333355.726   -39528810.68549 -30765498.38549  16333355.1144   16333360.8644
  20047712.378   -15432562.68949 -11999790.81749  20047712.6174   20047720.1094
  20245968.669   -24762639.87849 -17645123.10949  20245968.3084   20245974.5344
 97  3 19 20 38 29.9870000  0  7  9  2 26 27  7  4 15
  20190196.835   -14300119.81649  -9842868.39649  20190196.2384   20190202.2714
  17460435.897   -22507124.15349 -17522239.92649  17460435.1124   17460440.9264
  18623921.180   -34577246.10949 -26555072.29549  18623921.5474   18623926.8534
  18304503.188   -12247993.21249  -9531447.04749  18304503.0864   18304509.3584
  16319345.580   -39602434.58649 -30822867.65349  16319344.7034   16319350.5394
  20013340.321   -15613188.75549 -12140538.32649  20013339.7934   20013347.1884
  20240286.531   -24792499.47249 -17668390.32349  20240284.7524   20240292.6654
 97  3 19 20 38 59.9870000  0  7  9  2 26 27  7  4 15
  20156742.828   -14475921.61649  -9979856.74749  20156742.2184   20156748.6744
  17450090.016   -22561492.08649 -17564604.55149  17450089.7244   17450095.6634
  18614601.899   -34626219.31049 -26593233.24949  18614602.0794   18614607.7134
  18307108.382   -12234302.80349  -9520779.25449  18307107.8034   18307114.4124
  16305405.178   -39675691.84449 -30879951.23049  16305404.3234   16305410.4084
  19978967.000   -15793821.49849 -12281291.03549  19978966.4294   19978974.7124
  20234690.051   -24821908.73149 -17691306.62049  20234689.8164   20234696.7724
 97  3 19 20 39 29.9860000  0  7  9  2 26 27  7  4 15
  20123297.565   -14651677.30049 -10116809.13349  20123296.3224   20123302.8774
  17439762.791   -22615761.91349 -17606892.72549  17439762.0244   17439768.1654
  18605365.059   -34674759.15449 -26631056.51249  18605364.9344   18605371.2184
  18309763.420   -12220350.44149  -9509907.33149  18309763.0354   18309770.3364
  16291541.064   -39748548.07049 -30936722.31049  16291540.3614   16291546.1574
  19944598.533   -15974428.96649 -12422024.04549  19944598.7024   19944606.1324
  20229184.794   -24850838.92049 -17713849.63349  20229183.9174   20229191.1404
 97  3 19 20 39 59.9860000  0  7  9  2 26 27  7  4 15
  20089858.489   -14827400.52249 -10253736.23949  20089857.8014   20089863.3564
  17429455.102   -22669929.30849 -17649101.08149  17429454.1704   17429459.9164
  18596205.641   -34722892.29049 -26668562.87249  18596205.3154   18596211.7604
  18312465.292   -12206152.17149  -9498843.79649  18312465.0644   18312471.8914
  16277752.897   -39821005.27449 -30993182.46649  16277752.1274   16277758.0434
  19910229.573   -16155038.84249 -12562758.94149  19910229.4154   19910237.5324
  20223769.154   -24879298.28549 -17736025.73849  20223768.8264   20223775.9574
 97  3 19 20 40 29.9860000  0  7  9  2 26 27  7  4 15
  20056429.916   -15003068.50049 -10390620.30749  20056429.7734   20056436.2324
  17419173.882   -22723957.56549 -17691201.02349  17419173.1774   17419178.9874
  18587127.231   -34770599.32649 -26705737.20549  18587126.2804   18587133.5194
  18315217.041   -12191691.94449  -9487576.13149  18315216.5294   18315223.4984
  16264047.448   -39893027.76449 -31049303.88149  16264046.2754   16264052.4244
  19875860.245   -16335650.63749 -12703495.31749  19875859.9784   19875867.0204
  20218447.184   -24907265.47549 -17757818.35949  20218446.6714   20218453.1604
 97  3 19 20 40 59.9860000  0  7  9  2 26 27  7  4 15
  20023004.371   -15178720.50049 -10527491.90549  20023003.7534   20023009.9844
  17408912.741   -22777880.13749 -17733218.61549  17408912.2714   17408917.9984
  18578119.420   -34817935.61249 -26742622.63049  18578119.1964   18578125.7304
  18318010.628   -12177011.81849  -9476137.12149  18318011.0454   18318017.1694
  16250414.112   -39964671.33849 -31105130.03749  16250413.3634   16250419.2484
  19841477.081   -16516335.21749 -12844288.41949  19841476.6324   19841484.5454
  20213208.696   -24934793.72549 -17779268.92949  20213207.8574   20213214.9544
 97  3 19 20 41 29.9860000  0  7  9  2 26 27  7  4 15
  19989599.236   -15354265.26849 -10664279.94749  19989599.0494   19989604.7204
  17398686.582   -22831619.05649 -17775093.10449  17398685.8404   17398691.6764
  18569196.819   -34864824.14349 -26779159.16649  18569196.9824   18569203.0924
  18320863.824   -12162018.45749  -9464454.03349  18320863.4204   18320870.2484
  16236866.275   -40035865.60249 -31160606.07949  16236865.5324   16236871.6284
  19807092.885   -16697025.29849 -12985085.81049  19807092.9254   19807100.6244
  20208066.603   -24961815.69049 -17800324.98449  20208065.3374   20208072.8334
 97  3 19 20 41 59.9860000  0  7  9  2 26 27  7  4 15
  19956213.708   -15529707.25149 -10800987.90249  19956213.3814   19956219.6424
  17388494.522   -22885178.71849 -17816827.91349  17388493.7364   17388499.7804
  18560363.336   -34911244.74949 -26815331.08449  18560363.2684   18560369.4234
  18323780.722   -12146690.37049  -9452510.12549  18323780.7314   18323786.8614
  16223405.622   -40106601.74749 -31215725.14849  16223404.8814   16223410.7074
  19772710.117   -16877707.80449 -13125877.30749  19772709.2784   19772716.6914
  20203020.677   -24988332.20549 -17820987.19549  20203020.1004   20203027.5794
 97  3 19 20 42 29.9860000  0  7  9  2 26 27  7  4 15
  19922841.905   -15705077.14049 -10937639.69249  19922841.6544   19922848.3074
  17378328.860   -22938599.68149 -17858454.64349  17378328.2244   17378334.3474
  18551613.940   -34957223.23949 -26851158.49949  18551614.1854   18551619.8804
  18326756.678   -12131052.01249  -9440324.44049  18326756.5604   18326763.2944
  16210024.854   -40176918.26049 -31270517.22949  16210024.1244   16210030.0714
  19738326.619   -17058393.90149 -13266671.60149  19738326.4414   19738334.2104
  20198064.904   -25014374.67249 -17841280.01849  20198064.6814   20198071.8284
 97  3 19 20 42 59.9860000  0  7  9  2 26 27  7  4 15
  19889487.063   -15880358.14549 -11074222.21649  19889486.2954   19889492.7814
  17368189.949   -22991879.86549 -17899971.68149  17368188.9134   17368195.4634
  18542950.902   -35002747.85549 -26886632.24049  18542950.6324   18542957.5934
  18329794.133   -12115090.36449  -9427886.83949  18329793.7584   18329800.8374
  16196724.082   -40246814.33349 -31324981.69449  16196723.3524   16196729.2444
  19703949.908   -17239044.64549 -13407438.36249  19703949.6304   19703957.4064
  20193202.187   -25039928.63749 -17861192.19949  20193201.8074   20193208.1324
 97  3 19 20 43 29.9860000  0  7  9  2 26 27  7  4 15
  19856144.430   -16055574.54949 -11210754.41749  19856143.9784   19856150.7324
  17358072.456   -23045047.44649 -17941400.97049  17358071.7274   17358078.0924
  18534371.718   -35047831.89949 -26921762.69349  18534371.5024   18534378.1434
  18332888.044   -12098831.99549  -9415218.03249  18332887.7364   18332895.5224
  16183500.086   -40316306.62449 -31379131.52549  16183499.2674   16183505.4034
  19669580.523   -17419656.77149 -13548175.02049  19669580.5834   19669587.3964
  20188429.371   -25065010.31549 -17880736.34649  20188428.2724   20188435.9704
 97  3 19 20 43 59.9860000  0  7  9  2 26 27  7  4 15
  19822812.446   -16230735.26849 -11347243.21549  19822812.6324   19822817.6884
  17347976.490   -23098102.06549 -17982742.24049  17347975.8264   17347981.9184
  18525872.670   -35092494.44449 -26956564.69149  18525873.0754   18525878.5224
  18336033.026   -12082305.24249  -9402340.10449  18336032.6794   18336039.4084
  16170350.528   -40385408.30749 -31432976.98449  16170349.9504   16170355.8794
  19635219.880   -17600223.18349 -13688876.06049  19635219.6904   19635226.7454
  20183746.754   -25089617.84349 -17899911.04349  20183746.0534   20183752.9684
 97  3 19 20 44 29.9860000  0  7  9  2 26 27  7  4 15
  19789490.281   -16405844.15849 -11483691.63649  19789489.8914   19789495.6034
  17337903.969   -23151033.54049 -18023987.55649  17337903.3094   17337909.3944
  18517450.809   -35136751.49049 -26991050.73349  18517450.9454   18517456.3954
  18339223.882   -12065537.60349  -9389274.45949  18339223.6404   18339230.5494
  16157274.017   -40454125.71649 -31486523.01449  16157273.0934   16157279.2904
  19600866.380   -17780751.84749 -13829547.70049  19600865.7534   19600872.9944
  20179154.077   -25113752.24649 -17918717.07149  20179153.6834   20179160.2404
 97  3 19 20 44 59.9860000  0  7  9  2 26 27  7  4 15
  19756179.439   -16580893.74149 -11620093.84049  19756178.3924   19756185.6734
  17327856.960   -23203830.94649 -18065128.40249  17327856.4554   17327862.2744
  18509105.892   -35180604.70949 -27025222.09549  18509106.8824   18509112.4314
  18342461.726   -12048522.92049  -9376016.32149  18342462.0584   18342468.4024
  16144271.023   -40522456.83149 -31539768.03049  16144270.1944   16144276.0284
  19566517.079   -17961258.39749 -13970202.09649  19566517.1224   19566524.4114
  20174651.367   -25137414.39849 -17937155.12049  20174650.2604   20174657.7444
 97  3 19 20 45 29.9860000  0  7  9  2 26 27  7  4 15
  19722879.942   -16755883.48449 -11756449.40549  19722880.2344   19722885.6934
  17317836.223   -23256490.46249 -18106161.79949  17317835.5924   17317841.7124
  18500837.577   -35224055.57549 -27059079.92749  18500837.9164   18500843.7764
  18345745.896   -12031264.86449  -9362568.53849  18345745.6854   18345752.4204
  16131341.824   -40590400.17249 -31592710.88649  16131341.0454   16131346.8794
  19532168.890   -18141758.95149 -14110851.81849  19532168.2214   19532176.2704
  20170238.312   -25160605.35249 -17955225.99849  20170237.7954   20170243.7544
 97  3 19 20 45 59.9860000  0  7  9  2 26 27  7  4 15
  19689593.211   -16930805.73449 -11892752.38549  19689592.5694   19689600.0704
  17307844.230   -23308998.94849 -18147077.51049  17307843.4794   17307849.3804
  18492646.663   -35267099.82349 -27092620.93149  18492646.9274   18492652.7174
  18349077.843   -12013755.76749  -9348925.13449  18349077.4584   18349083.7264
  16118485.538   -40657960.51149 -31645355.29949  16118485.0754   16118490.9674
  19497821.764   -18322253.96449 -14251497.22349  19497821.5694   19497828.8074
  20165914.638   -25183326.32049 -17972930.66349  20165913.7084   20165920.9564
 97  3 19 20 46 29.9860000  0  7  9  2 26 27  7  4 15
  19656315.657   -17105679.81949 -12029017.83949  19656315.2164   19656321.6244
  17297874.353   -23361391.03249 -18187902.51949  17297873.4914   17297879.6614
  18484531.904   -35309743.36749 -27125849.68149  18484531.9354   18484537.9724
  18352456.028   -11996003.45549  -9335092.22849  18352455.4894   18352463.2184
  16105697.261   -40725163.53349 -31697721.28249  16105696.5584   16105702.4744
  19463469.331   -18502776.60649 -14392164.13649  19463468.8014   19463476.7084
  20161672.813   -25205617.22749 -17990300.22749  20161672.4254   20161679.1654
 97  3 19 20 46 59.9860000  0  7  9  2 26 27  7  4 15
  19623058.531   -17280446.95749 -12165199.94649  19623057.7104   19623065.0264
  17287934.591   -23413625.02749 -18228604.34149  17287933.7824   17287939.9554
  18476502.794   -35351936.79149 -27158727.70249  18476503.0434   18476508.9904
  18355892.885   -11977942.74549  -9321018.99449  18355892.2804   18355898.1054
  16092988.269   -40791949.56549 -31749762.33549  16092987.5474   16092993.3094
  19429124.954   -18683256.95949 -14532798.09549  19429124.2474   19429132.2084
  20157521.963   -25227430.16749 -18007297.31549  20157520.7794   20157528.6304
 97  3 19 20 47 29.9860000  0  7  9  2 26 27  7  4 15
  19589823.357   -17455098.65449 -12301292.10349  19589822.5084   19589830.1184
  17278024.531   -23465702.82649 -18269184.45749  17278023.9934   17278029.4344
  18468558.913   -35393682.63749 -27191256.95949  18468559.0834   18468564.3464
  18359385.346   -11959589.81149  -9306718.07349  18359384.5334   18359391.0184
  16080359.772   -40858313.02749 -31801474.11749  16080359.1494   16080364.9984
  19394793.931   -18863667.12249 -14673377.35249  19394793.9644   19394801.2174
  20153461.508   -25248767.85049 -18023924.11949  20153460.4504   20153467.6144
 97  3 19 20 47 59.9860000  0  7  9  2 26 27  7  4 15
  19556609.617   -17629637.65949 -12437296.44949  19556609.0114   19556616.3514
  17268143.268   -23517629.20349 -18309646.57249  17268142.5344   17268148.3664
  18460700.085   -35434981.30449 -27223437.76049  18460700.3534   18460706.4334
  18362931.963   -11940952.42449  -9292195.49349  18362932.1874   18362938.2624
  16067812.192   -40924251.06749 -31852854.40049  16067811.3664   16067817.1864
  19360478.776   -19043994.01049 -14813891.72449  19360478.4604   19360485.4304
  20149489.523   -25269640.83749 -18040188.77949  20149488.2904   20149495.9394
 97  3 19 20 48 29.9860000  0  7  9  2 26 27  7  4 15
  19523417.583   -17804062.47949 -12573211.82949  19523417.3094   19523422.9384
  17258287.952   -23569419.22349 -18350002.43849  17258287.3964   17258293.3494
  18452923.093   -35475849.77449 -27255283.35649  18452922.7474   18452929.1184
  18366530.847   -11922040.01549  -9277458.60949  18366530.5654   18366537.3044
  16055347.064   -40989755.61249 -31903896.90049  16055346.4154   16055352.2304
  19326179.988   -19224234.77549 -14954338.98049  19326179.7744   19326187.3344
  20145604.618   -25290055.64149 -18056096.41749  20145603.6994   20145610.9024
 97  3 19 20 48 59.9860000  0  7  9  2 26 27  7  4 15
  19490242.647   -17978397.67549 -12709057.35749  19490241.6764   19490249.1154
  17248456.236   -23621085.47549 -18390261.86149  17248455.5534   17248461.3484
  18445221.253   -35516322.94949 -27286820.91649  18445221.0794   18445226.8624
  18370173.824   -11902896.03649  -9262541.28449  18370173.4944   18370180.1134
  16042960.042   -41054850.04249 -31954619.82549  16042959.0214   16042965.1534
  19291895.791   -19404399.13249 -15094726.70149  19291895.8084   19291902.6254
  20141804.516   -25310025.34549 -18071657.24349  20141803.5304   20141811.8854
 97  3 19 20 49 29.9850000  0  7  9  2 26 27  7  4 15
  19457103.086   -18152547.06949 -12844758.11049  19457102.4384   19457109.3844
  17238665.713   -23672534.95349 -18430352.37249  17238664.8114   17238670.8704
  18437613.636   -35556300.81449 -27317972.53449  18437614.0254   18437620.1214
  18373880.342   -11883418.37749  -9247363.95049  18373880.1574   18373886.4234
  16030664.849   -41119461.39949 -32004966.33049  16030664.0224   16030669.9694
  19257642.565   -19584400.85849 -15234987.70049  19257642.0924   19257648.8434
  20138107.010   -25329455.51049 -18086797.62249  20138106.4594   20138112.9324
 97  3 19 20 49 59.9850000  0  7  9  2 26 27  7  4 15
  19423983.408   -18326591.92949 -12980377.41749  19423982.7774   19423989.0754
  17228905.082   -23723827.59649 -18470320.67649  17228904.5284   17228910.2944
  18430087.892   -35595848.84549 -27348789.21049  18430088.0364   18430094.5674
  18377642.463   -11863648.71649  -9231959.09149  18377641.8634   18377648.7064
  16018448.884   -41183656.60149 -32054988.56149  16018448.2894   16018454.0814
  19223404.171   -19764324.59349 -15375187.92549  19223404.8344   19223411.1354
  20134501.377   -25348403.69449 -18101562.40249  20134500.5554   20134508.0934
 97  3 19 20 50 29.9850000  0  7  9  2 26 27  7  4 15
  19390870.476   -18500601.17749 -13115968.96449  19390869.6204   19390876.1634
  17219159.494   -23775040.88249 -18510227.13749  17219158.8744   17219164.4624
  18422627.166   -35635055.23749 -27379339.67749  18422627.2214   18422633.9464
  18381445.960   -11843661.27049  -9216384.52249  18381445.6304   18381452.3984
  16006296.832   -41247516.34349 -32104749.39349  16006295.9324   16006301.7834
  19189167.880   -19944237.34849 -15515379.59449  19189167.6064   19189174.1794
  20130973.265   -25366944.07849 -18116009.48049  20130972.6584   20130979.9044
 97  3 19 20 50 59.9850000  0  7  9  2 26 27  7  4 15
  19357764.911   -18674571.75449 -13251530.37649  19357764.6184   19357770.9204
  17209433.491   -23826151.35649 -18550053.48849  17209432.8284   17209438.8114
  18415234.803   -35673902.37449 -27409610.19849  18415235.1784   18415240.5934
  18385292.527   -11823448.03249  -9200634.01849  18385291.7874   18385299.5434
  15994208.680   -41311040.09049 -32154248.41449  15994207.6104   15994213.5454
  19154935.702   -20124128.72749 -15655554.61449  19154935.4144   19154941.9344
  20127525.201   -25385063.73049 -18130128.67049  20127525.1344   20127531.3354
 97  3 19 20 51 29.9850000  0  7  9  2 26 27  7  4 15
  19324678.333   -18848442.90449 -13387014.31349  19324678.5934   19324683.4014
  17199738.307   -23877099.92949 -18589753.68149  17199737.7794   17199743.7864
  18407919.661   -35712344.00649 -27439564.74249  18407919.5224   18407926.0684
  18389193.916   -11802946.72849  -9184659.03549  18389194.1864   18389200.9644
  15982193.865   -41374178.25249 -32203446.97749  15982192.9784   15982199.1114
  19120717.393   -20303946.80449 -15795672.52249  19120716.9834   19120724.5594
  20124165.888   -25402716.87449 -18143884.36349  20124164.9414   20124172.4234
 97  3 19 20 51 59.9850000  0  6  9  2 26 27  7  4
  19291602.703   -19022256.33849 -13522453.28449  19291602.1924   19291609.3384
  17190064.786   -23927934.86749 -18629365.33049  17190064.1364   17190070.1034
  18400672.327   -35750429.40549 -27469241.70149  18400672.1904   18400677.8334
  18393135.128   -11782235.88049  -9168520.78049  18393134.5384   18393141.1204
  15970244.454   -41436972.64049 -32252377.66549  15970243.7904   15970249.4104
  19086507.023   -20483723.18849 -15935757.94049  19086506.7964   19086513.4634
 97  3 19 20 52 29.9850000  0  6  9  2 26 27  7  4
  19258559.650   -19195898.37749 -13657758.67849  19258558.8874   19258564.3584
  17180433.694   -23978546.71249 -18668803.13349  17180433.0944   17180438.9594
  18393514.943   -35788041.85749 -27498550.12549  18393515.0354   18393521.0614
  18397134.881   -11761217.64749  -9152143.00349  18397135.1184   18397141.2024
  15958379.198   -41499325.00449 -32300963.91849  15958378.3054   15958384.4924
  19052327.063   -20663339.56849 -16075718.68649  19052327.0684   19052333.2914
 97  3 19 20 52 59.9850000  0  6  9  2 26 27  7  4
  19225539.611   -19369419.50349 -13792969.87549  19225539.0264   19225546.1014
  17170833.124   -24028998.21549 -18708115.99949  17170832.3304   17170838.3994
  18386435.449   -35825244.80249 -27527539.46049  18386435.7354   18386441.4264
  18401180.162   -11739960.02349  -9135578.68849  18401180.5184   18401186.7364
  15946585.164   -41561302.93949 -32349258.41349  15946584.5294   15946590.4334
  19018163.788   -20842868.54049 -16215611.31449  19018163.2904   19018171.4684
 97  3 19 20 53 29.9850000  0  6  9  2 26 27  7  4
  19192545.849   -19542802.90049 -13928073.74649  19192545.4574   19192551.8654
  17161260.572   -24079302.46449 -18747314.11549  17161260.1374   17161265.5244
  18379434.802   -35862033.54249 -27556206.03149  18379434.3524   18379441.0864
  18405272.614   -11718454.45449  -9118821.18149  18405272.0554   18405278.5284
  15934865.006   -41622892.66749 -32397250.40749  15934864.4434   15934870.2284
  18984017.598   -21022307.97949 -16355434.19049  18984018.4574   18984024.6954
 97  3 19 20 53 59.9850000  0  6  9  2 26 27  7  4
  19159573.430   -19716073.91649 -14063090.04749  19159573.4434   19159579.5164
  17151711.138   -24129485.12649 -18786417.49449  17151710.2784   17151716.3434
  18372509.336   -35898427.11349 -27584564.68549  18372509.1774   18372516.6744
  18409410.154   -11696711.88649  -9101878.99449  18409410.2114   18409416.9814
  15923217.686   -41684099.70849 -32444944.20649  15923216.6074   15923222.6374
  18949885.054   -21201675.52749 -16495201.04549  18949884.4784   18949891.6554
 97  3 19 20 54 29.9850000  0  6  9  2 26 27  7  4
  19126617.439   -19889258.77949 -14198039.22649  19126617.5584   19126623.5204
  17142182.114   -24179560.57149 -18825437.33049  17142181.4054   17142187.4724
  18365650.066   -35934472.95149 -27612652.36949  18365651.0344   18365656.2354
  18413588.693   -11674753.56149  -9084768.68749  18413588.6584   18413596.5014
  15911638.751   -41744947.41849 -32492358.00649  15911638.0524   15911643.9504
  18915758.523   -21381011.35849 -16634943.19749  18915758.0834   18915764.5984
 97  3 19 20 54 59.9850000  0  6  9  2 26 27  7  4
  19093698.340   -20062249.82849 -14332837.37549  19093697.6484   19093703.6694
  17132692.387   -24229429.56249 -18864296.28749  17132691.8044   17132697.8844
  18358874.115   -35970081.02049 -27640398.93549  18358874.3164   18358880.9784
  18417826.293   -11652484.84949  -9067416.52049  18417825.7154   18417832.9074
  15900149.798   -41805322.30449 -32539403.36849  15900149.1064   15900155.0734
  18881657.470   -21560213.03649 -16774580.81349  18881656.7214   18881664.9074
 97  3 19 20 55 29.9850000  0  6  9  2 26 27  7  4
  19060827.671   -20234986.06249 -14467436.96649  19060827.3844   19060833.7394
  17123258.433   -24279005.63449 -18902926.99749  17123257.4864   17123263.5624
  18352193.964   -36005185.45849 -27667753.06149  18352194.1304   18352200.3844
  18422136.840   -11629832.66749  -9049765.55249  18422136.6404   18422143.9634
  15888764.524   -41865152.51049 -32586024.30649  15888764.0384   15888769.6164
  18847599.115   -21739190.27449 -16914043.54349  18847599.0994   18847606.4364
 97  3 19 20 55 59.9850000  0  6  9  2 26 27  7  4
  19027990.416   -20407546.77249 -14601899.79949  19027990.5764   19027996.4154
  17113866.358   -24328361.32749 -18941385.98549  17113865.7074   17113871.8114
  18345591.795   -36039880.02649 -27694787.81749  18345591.3514   18345598.1964
  18426500.257   -11606902.62349  -9031898.06249  18426499.7304   18426506.6624
  15877461.419   -41924550.95849 -32632308.81049  15877460.8434   15877466.6084
  18813568.256   -21918023.44049 -17053394.01249  18813568.5184   18813573.8754
 97  3 19 20 56 29.9850000  0  6  9  2 26 27  7  4
  18995184.676   -20579941.99949 -14736233.67449  18995184.0484   18995191.4064
  17104510.343   -24377527.41849 -18979697.22749  17104509.5144   17104515.6264
  18339064.338   -36074182.44649 -27721516.99449  18339064.4504   18339071.5964
  18430909.421   -11583732.52849  -9013843.52249  18430908.8074   18430916.8274
  15866232.101   -41983561.50149 -32678291.04749  15866231.5164   15866237.1054
  18779561.052   -22096732.38149 -17192647.69249  18779560.8114   18779567.2264
 97  3 19 20 56 59.9850000  0  6  9  2 26 27  7  4
  18962411.160   -20752167.83149 -14870435.56449  18962409.8674   18962416.9104
  17095188.265   -24426515.13049 -19017869.47649  17095187.5584   17095193.3864
  18332614.939   -36108074.66249 -27747926.53949  18332615.1054   18332621.8174
  18435366.638   -11560310.02449  -8995592.29849  18435366.5114   18435372.5304
  15855075.615   -42042189.44649 -32723975.15249  15855075.0704   15855080.4144
  18745579.034   -22275308.95849 -17331798.20749  18745579.1264   18745586.4224
 97  3 19 20 57 29.9850000  0  6  9  2 26 27  7  4
  18929659.791   -20924277.07649 -15004546.59249  18929658.8604   18929665.7264
  17085887.524   -24475390.68049 -19055954.32749  17085886.7674   17085892.9464
  18326235.559   -36141598.74549 -27774049.22549  18326235.6414   18326241.6074
  18439862.106   -11536686.35249  -8977184.31649  18439861.5394   18439868.4844
  15843977.724   -42100509.38049 -32769419.25349  15843976.9334   15843982.6404
  18711610.830   -22453813.01249 -17470892.22949  18711610.4224   18711617.9544
 97  3 19 20 57 59.9850000  0  6  9  2 26 27  7  4
  18896926.672   -21096290.16549 -15138582.69949  18896926.0804   18896932.3444
  17076598.736   -24524203.49449 -19093990.29549  17076598.4174   17076603.9334
  18319922.783   -36174772.68749 -27799899.09549  18319922.7014   18319929.3834
  18444390.598   -11512889.05849  -8958641.04549  18444390.7144   18444397.3364
  15832931.638   -42158557.05949 -32814651.20549  15832930.9304   15832936.8624
  18677649.320   -22632281.93849 -17609958.86049  18677649.3924   18677655.9914
 97  3 19 20 58 29.9850000  0  6  9  2 26 27  7  4
  18864211.133   -21268211.39349 -15272547.23649  18864210.8094   18864216.6244
  17067323.644   -24572944.37049 -19131970.20949  17067322.6284   17067329.1734
  18313676.606   -36207596.48349 -27825476.09949  18313676.4964   18313683.1484
  18448956.387   -11488896.03349  -8939945.25249  18448956.3134   18448963.3254
  15821944.156   -42216296.63149 -32859643.07349  15821943.3874   15821949.2004
  18643699.510   -22810688.90249 -17748977.22049  18643699.1564   18643705.7524
 97  3 19 20 58 59.9850000  0  6  9  2 26 27  7  4
  18831528.273   -21439960.50149 -15406377.63649  18831527.1954   18831534.1524
  17058081.500   -24621512.04749 -19169815.16049  17058080.9564   17058087.0114
  18307512.399   -36239990.05249 -27850717.87649  18307512.0134   18307518.6394
  18453576.046   -11464620.06649  -8921028.99349  18453576.1754   18453582.1314
  15811033.918   -42273630.21349 -32904318.58349  15811033.1304   15811038.7184
  18609779.231   -22988940.62349 -17887874.60749  18609778.8984   18609785.4074
 97  3 19 20 59 29.9840000  0  6  9  2 26 27  7  4
  18798878.990   -21611533.29349 -15540070.66849  18798878.4474   18798884.4024
  17048874.326   -24669896.28449 -19207517.17249  17048873.7904   17048879.7554
  18301428.259   -36271962.43649 -27875631.45149  18301428.2354   18301434.6524
  18458248.218   -11440068.31249  -8901897.82849  18458248.2014   18458254.9344
  15800204.173   -42330541.09049 -32948664.71049  15800203.4574   15800209.1504
  18575893.443   -23167011.34749 -18026630.94849  18575893.6564   18575899.3554
 97  3 19 20 59 59.9840000  0  6  9  2 26 27  7  4
  18766247.761   -21783011.12049 -15673689.69749  18766246.6084   18766253.4654
  17039694.141   -24718138.51249 -19245108.53049  17039693.3964   17039699.1094
  18295407.311   -36303603.01749 -27900286.47949  18295406.7234   18295414.3504
  18462960.461   -11415305.85149  -8882602.49149  18462960.0094   18462967.9644
  15789445.344   -42387079.01149 -32992720.22249  15789444.4154   15789450.2694
  18542030.753   -23344960.96249 -18165292.91549  18542030.0304   18542037.6324
 97  3 19 21  0 29.9840000  0  6  9  2 26 27  7  4
  18733633.633   -21954399.25449 -15807238.83749  18733633.2064   18733639.8154
  17030542.210   -24766232.18349 -19282584.12449  17030541.4224   17030547.6064
  18289446.984   -36334924.77849 -27924693.07349  18289447.2094   18289452.9124
  18467709.606   -11390349.45649  -8863156.02749  18467709.5914   18467716.9894
  15778757.512   -42443243.68349 -33036484.89449  15778756.9044   15778762.6134
  18508191.908   -23522784.74849 -18303856.82649  18508192.0954   18508198.6454
 97  3 19 21  0 59.9840000  0  6  9  2 26 27  7  4
  18701051.639   -22125618.22249 -15940656.14949  18701051.1024   18701057.8444
  17021428.571   -24814124.66449 -19319902.94649  17021427.6114   17021433.5534
  18283561.618   -36365852.72549 -27948792.80549  18283561.4144   18283568.0544
  18472505.793   -11365146.06849  -8843517.11249  18472505.4914   18472512.8744
  15768149.177   -42498990.92449 -33079924.28849  15768148.5084   15768154.0414
  18474386.242   -23700434.17049 -18442284.88049  18474387.1684   18474393.3594
 97  3 19 21  1 29.9840000  0  6  9  2 26 27  7  4
  18668488.468   -22296738.61549 -16073996.66349  18668488.9344   18668494.5224
  17012336.295   -24861904.96049 -19357134.35049  17012335.8654   17012341.7064
  18277734.429   -36396474.86349 -27972654.24249  18277735.0374   18277740.5774
  18477333.927   -11339774.49949  -8823747.14449  18477334.0084   18477340.7574
  15757601.550   -42554419.12549 -33123115.09049  15757600.9104   15757606.3944
  18440599.579   -23877983.92449 -18580635.28249  18440598.5194   18440606.1954
 97  3 19 21  1 59.9840000  0  6  9  2 26 27  7  4
  18635930.095   -22467833.66649 -16207317.42649  18635929.5244   18635935.9964
  17003248.671   -24909660.71249 -19394346.63749  17003247.5374   17003254.1644
  18271948.746   -36426878.98149 -27996345.78749  18271948.4434   18271955.4434
  18482175.393   -11314332.78349  -8803922.50749  18482174.3974   18482182.0884
  15747093.919   -42609636.87249 -33166141.90049  15747093.0044   15747099.0824
  18406813.072   -24055533.22849 -18718985.31249  18406813.0784   18406819.7754
 97  3 19 21  2 29.9840000  0  6  9  2 26 27  7  4
  18603401.502   -22638772.27149 -16340516.28649  18603400.3644   18603407.9594
  16994185.423   -24957288.05849 -19431458.86349  16994184.7214   16994190.8204
  18266230.258   -36456930.19049 -28019762.34649  18266230.2624   18266236.2944
  18487053.117   -11288700.36349  -8783949.27749  18487052.2004   18487059.7794
  15736648.556   -42664527.60249 -33208913.89249  15736647.7254   15736653.4894
  18373049.888   -24232960.01449 -18857239.88349  18373050.0924   18373056.7954
 97  3 19 21  2 59.9840000  0  6  9  2 26 27  7  4
  18570928.168   -22809420.13949 -16473488.60249  18570927.8644   18570934.2164
  16985173.316   -25004647.13549 -19468362.05349  16985172.6604   16985178.6344
  18260603.491   -36486499.06049 -28042803.05249  18260603.1874   18260609.6284
  18491993.191   -11262740.28349  -8763720.72849  18491993.4394   18492000.0974
  15726292.202   -42718950.44249 -33251321.29749  15726291.5154   15726296.8514
  18339337.073   -24410121.74549 -18995287.90749  18339338.0104   18339342.9394
 97  3 19 21  3 29.9840000  0  6  9  2 26 27  7  4
  18538494.551   -22979859.71649 -16606298.60449  18538494.2474   18538499.7834
  16976202.266   -25051790.32849 -19505097.01449  16976201.7904   16976208.1504
  18255054.840   -36515657.45949 -28065523.91849  18255054.7194   18255061.6324
  18496982.558   -11236521.26949  -8743290.41649  18496982.5854   18496990.2804
  15716013.541   -42772965.16849 -33293410.68749  15716012.5614   15716018.6504
  18305663.992   -24587074.66249 -19133173.22549  18305663.5234   18305670.2974
 97  3 19 21  3 59.9840000  0  6  9  2 26 27  7  4
  18506085.149   -23150171.92549 -16739009.36449  18506084.9144   18506090.2664
  16967257.468   -25098795.74649 -19541724.61749  16967256.7634   16967263.1624
  18249570.688   -36544477.11649 -28087980.81949  18249570.7654   18249577.0424
  18502004.905   -11210128.86449  -8722724.98949  18502004.5894   18502012.9084
  15705801.461   -42826629.85449 -33335227.32049  15705800.7004   15705806.5754
  18272014.683   -24763902.78649 -19270961.28949  18272014.0984   18272020.8794
 97  3 19 21  4 29.9840000  0  6  9  2 26 27  7  4
  18473711.712   -23320295.20349 -16871572.90149  18473711.4664   18473716.7474
  16958350.319   -25145603.38549 -19578198.10749  16958350.0494   16958355.7664
  18244162.574   -36572897.14049 -28110126.32349  18244162.7494   18244168.9964
  18507073.531   -11183493.18749  -8701970.00049  18507072.3704   18507080.0824
  15695668.962   -42879876.66849 -33376718.34149  15695668.1354   15695674.1204
  18238403.288   -24940531.51049 -19408593.98449  18238402.9864   18238409.6434
 97  3 19 21  4 59.9840000  0  6  9  2 26 27  7  4
  18441365.363   -23490276.27549 -17004025.62649  18441364.3994   18441370.6724
  16949472.472   -25192257.11649 -19614551.66749  16949471.6354   16949478.0504
  18238817.673   -36600985.04949 -28132013.03449  18238817.6594   18238823.9394
  18512177.019   -11156674.13649  -8681072.11749  18512177.3264   18512184.5884
  15685602.910   -42932774.04949 -33417937.07849  15685601.9744   15685607.9574
  18204819.661   -25117014.15949 -19546112.85649  18204820.3254   18204826.9504
 97  3 19 21  5 29.9840000  0  6  9  2 26 27  7  4
  18409038.795   -23660153.07149 -17136397.09849  18409038.6484   18409044.6024
  16940610.203   -25238828.54549 -19650841.09749  16940609.4404   16940616.0364
  18233522.813   -36628810.04649 -28153694.88349  18233523.1154   18233529.2614
  18517303.015   -11129737.07649  -8660082.29049  18517303.2084   18517311.0384
  15675588.465   -42985400.07749 -33458944.37049  15675587.7364   15675593.4274
  18171252.569   -25293410.04349 -19683564.10849  18171252.4444   18171259.3554
 97  3 19 21  5 59.9840000  0  6  9  2 26 27  7  4
  18376736.276   -23829903.76849 -17268670.31349  18376735.7114   18376741.9834
  16931761.479   -25285328.64149 -19687074.94549  16931760.4964   16931767.1664
  18228275.236   -36656386.06249 -28175182.72049  18228275.3084   18228281.7184
  18522452.551   -11102676.27349  -8638996.03449  18522452.6534   18522459.2524
  15665623.879   -43037764.23349 -33499747.60649  15665622.9354   15665628.8534
  18137701.072   -25469723.86749 -19820951.43149  18137700.4814   18137706.9314
 97  3 19 21  6 29.9840000  0  6  9  2 26 27  7  4
  18344485.370   -23999383.41149 -17400732.31849  18344484.9074   18344490.8364
  16922954.755   -25331608.05149 -19723136.82849  16922953.7334   16922960.7204
  18223100.052   -36683582.15049 -28196374.52149  18223100.3804   18223107.2184
  18527652.738   -11075349.28349  -8617702.36149  18527652.3434   18527660.5694
  15655732.346   -43089744.62349 -33540251.81249  15655731.5834   15655737.4924
  18104192.518   -25645812.16749 -19958163.02349  18104192.8884   18104198.5004
 97  3 19 21  6 59.9840000  0  6  9  2 26 27  7  4
  18312267.326   -24168690.30649 -17532659.71449  18312267.0214   18312272.4344
  16914172.672   -25377758.22249 -19759098.00849  16914172.4224   16914178.3954
  18217979.290   -36710492.04449 -28217343.31049  18217979.8654   18217985.9724
  18532885.653   -11047850.56649  -8596274.88449  18532885.1914   18532893.5774
  15645896.496   -43141432.59849 -33580528.16049  15645895.9624   15645901.9154
  18070709.142   -25821768.20149 -20095271.54549  18070709.4884   18070715.3854
 97  3 19 21  7 29.9840000  0  6  9  2 26 27  7  4
  18280072.797   -24337873.50349 -17664490.71649  18280072.2794   18280078.5684
  16905403.569   -25423840.31749 -19795006.13949  16905403.0134   16905409.1734
  18212905.025   -36737157.45949 -28238121.58749  18212904.7684   18212911.1514
  18538143.060   -11020223.13849  -8574747.11149  18538142.7414   18538151.1094
  15636109.251   -43192865.12249 -33620605.44949  15636108.5774   15636114.4304
  18037242.918   -25997634.34249 -20232310.01549  18037243.1164   18037249.4084
 97  3 19 21  7 59.9840000  0  6  9  2 26 27  7  4
  18247908.324   -24506898.83749 -17796198.72749  18247907.9664   18247914.2664
  16896657.849   -25469799.55249 -19830818.54549  16896657.1684   16896663.4964
  18207890.886   -36763506.69849 -28258653.51549  18207891.1294   18207897.4464
  18543436.445   -10992406.93049  -8553072.22549  18543435.3674   18543444.0734
  15626383.053   -43243976.82649 -33660432.75149  15626382.6204   15626388.2314
  18003805.147   -26173350.94149 -20369231.97549  18003805.1054   18003811.5094
 97  3 19 21  8 29.9840000  0  6  9  2 26 27  7  4
  18215782.864   -24675719.36349 -17927747.13349  18215782.9264   18215788.5604
  16887948.734   -25515566.55149 -19866481.15549  16887948.1074   16887954.4024
  18202950.424   -36789469.23049 -28278884.10249  18202950.2504   18202956.8604
  18548773.439   -10964361.20149  -8531218.49549  18548773.6814   18548781.7304
  15616730.962   -43294698.85549 -33699956.41449  15616730.2634   15616735.8324
  17970409.619   -26348845.69549 -20505981.06649  17970409.7844   17970416.8144
 97  3 19 21  8 59.9840000  0  6  9  2 26 27  7  4
  18183686.507   -24844386.81949 -18059176.28449  18183686.8764   18183691.4974
  16879262.918   -25561210.80249 -19902048.11749  16879262.2504   16879268.6374
  18198073.261   -36815098.86649 -28298855.28849  18198073.4664   18198080.2814
  18554141.438   -10936152.71249  -8509237.94349  18554141.6454   18554148.8204
  15607143.295   -43345082.49249 -33739216.39249  15607142.4804   15607148.2324
  17937046.873   -26524168.09749 -20642595.85749  17937046.9614   17937052.9754
 97  3 19 21  9 29.9830000  0  6  9  2 26 27  7  4
  18151630.091   -25012844.54949 -18190442.00649  18151630.0384   18151634.6114
  16870610.206   -25606681.25349 -19937479.65349  16870609.7304   16870615.8834
  18193265.826   -36840362.19949 -28318541.04649  18193265.8744   18193272.3404
  18559546.064   -10907751.60649  -8487107.29449  18559546.3334   18559553.4134
  15597628.766   -43395081.80349 -33778176.89149  15597628.2374   15597633.8214
  17903726.491   -26699267.85249 -20779037.14649  17903726.1684   17903731.9974
 97  3 19 21  9 59.9830000  0  6  9  2 26 27  7  4
  18119604.325   -25181140.96449 -18321582.03449  18119604.1394   18119609.9584
  16861985.324   -25652005.69749 -19972797.41649  16861984.7914   16861991.0324
  18188519.535   -36865304.79349 -28337976.88249  18188520.1304   18188526.1274
  18564977.254   -10879210.69249  -8464867.71349  18564977.1644   18564984.5794
  15588177.720   -43444747.58749 -33816877.50149  15588177.1894   15588182.6974
  17870438.552   -26874196.97049 -20915345.48149  17870438.1434   17870444.9934
 97  3 19 21 10 29.9830000  0  6  9  2 26 27  7  4
  18087592.062   -25349366.50749 -18452666.82649  18087590.9814   18087597.4024
  16853367.993   -25697290.22549 -20008084.07449  16853367.3174   16853373.1224
  18183807.697   -36890066.33449 -28357271.62849  18183808.1124   18183815.2464
  18570411.923   -10850651.57249  -8442613.94149  18570411.6224   18570419.6784
  15578765.099   -43494211.41249 -33855420.73749  15578764.5764   15578770.2044
  17837162.524   -27049063.28449 -21051604.87849  17837163.2494   17837168.9594
 97  3 19 21 10 59.9830000  0  6  9  2 26 27  7  4
  18055620.594   -25517377.65049 -18583584.56449  18055620.3044   18055626.2914
  16844782.763   -25742405.98749 -20043239.21549  16844781.9804   16844788.2394
  18179153.932   -36914522.49649 -28376328.41349  18179153.9544   18179160.7984
  18575879.912   -10821917.72449  -8420224.02649  18575879.8964   18575887.1844
  15569415.089   -43543346.14949 -33893707.53749  15569414.4094   15569420.0384
  17803926.963   -27223717.09649 -21187698.67449  17803927.1784   17803933.3004
 97  3 19 21 11 29.9830000  0  6  9  2 26 27  7  4
  18023691.052   -25685168.17049 -18714330.38549  18023691.1784   18023695.9844
  16836234.949   -25787325.01449 -20078241.07149  16836234.4774   16836239.9714
  18174560.253   -36938662.65449 -28395138.97049  18174559.9944   18174566.8154
  18581387.009   -10792978.27449  -8397673.89449  18581387.7434   18581394.5814
  15560130.252   -43592138.09149 -33931727.23049  15560129.5664   15560135.2454
  17770735.998   -27398136.91649 -21323610.15749  17770735.8964   17770742.2734
 97  3 19 21 11 59.9830000  0  6  9  2 26 27  7  4
  17991796.581   -25852774.47549 -18844932.65749  17991795.9894   17991801.4644
  16827716.109   -25832092.17049 -20113124.57849  16827715.4854   16827721.6114
  18170020.075   -36962521.81949 -28413730.56249  18170019.9074   18170026.4644
  18586927.751   -10763861.90249  -8374985.89749  18586927.6684   18586934.8204
  15550900.438   -43640640.98049 -33969521.67949  15550899.3464   15550905.3594
  17737583.663   -27572353.56049 -21459363.30149  17737583.6464   17737589.3544
 97  3 19 21 12 29.9830000  0  6  9  2 26 27  7  4
  17959936.894   -26020197.92749 -18975392.44249  17959936.1454   17959942.2514
  16819224.793   -25876714.37249 -20147895.13949  16819223.9244   16819230.6844
  18165530.701   -36986113.71949 -28432113.90949  18165531.2044   18165537.3674
  18592504.061   -10734558.90249  -8352152.48749  18592503.5384   18592511.7724
  15541724.587   -43688860.25949 -34007095.13549  15541723.9884   15541729.3374
  17704469.248   -27746370.83049 -21594961.10849  17704469.4114   17704475.6934
 97  3 19 21 12 59.9830000  0  6  9  2 26 27  7  4
  17928102.827   -26187486.83749 -19105747.39649  17928102.1134   17928108.2224
  16810754.628   -25921225.11949 -20182578.85049  16810753.9174   16810760.3344
  18161085.661   -37009472.60149 -28450315.67649  18161086.1224   18161092.0204
  18598106.864   -10705116.21149  -8329210.20349  18598107.0484   18598114.5684
  15532597.324   -43736824.52449 -34044469.88349  15532596.5674   15532602.1694
  17671383.914   -27920235.12349 -21730439.71449  17671384.2554   17671390.3764
 97  3 19 21 13 29.9830000  0  6  9  2 26 27  7  4
  17896294.080   -26354642.62049 -19235998.60849  17896293.5644   17896299.3214
  16802305.075   -25965627.82649 -20217178.37649  16802304.5374   16802310.4944
  18156683.702   -37032605.12849 -28468341.07349  18156683.5204   18156690.4074
  18603732.837   -10675551.16649  -8306172.62649  18603731.9044   18603740.5834
  15523517.799   -43784537.79549 -34081649.04749  15523517.0834   15523522.7954
  17638322.181   -28093975.53849 -21865821.78249  17638322.3344   17638327.9764
 97  3 19 21 13 59.9830000  0  6  9  2 26 27  7  4
  17864530.948   -26521558.77849 -19366063.10849  17864530.1934   17864536.3464
  16793892.357   -26009837.23649 -20251627.28649  16793891.5814   16793898.1074
  18152343.534   -37055412.84349 -28486113.35949  18152343.6344   18152350.6944
  18609395.984   -10645791.48949  -8282983.36049  18609395.6434   18609403.3924
  15514504.681   -43831902.03649 -34118556.25149  15514503.9424   15514509.9144
  17605302.200   -28267496.54449 -22001032.90949  17605302.7134   17605308.1914
 97  3 19 21 14 29.9830000  0  6  9  2 26 27  7  4
  17832809.379   -26688256.37449 -19495957.29149  17832808.2844   17832815.1884
  16785514.189   -26053864.87449 -20285934.53949  16785513.6414   16785519.9874
  18148064.173   -37077901.06749 -28503636.70149  18148064.0374   18148071.2314
  18615091.655   -10615860.80849  -8259660.85949  18615091.5804   18615098.8274
  15505558.250   -43878915.75249 -34155190.30449  15505557.7464   15505563.2974
  17572321.336   -28440811.94649 -22136083.80649  17572321.2554   17572326.7124
 97  3 19 21 14 59.9830000  0  6  9  2 26 27  7  4
  17801136.281   -26854699.06949 -19625652.86049  17801135.6004   17801142.1544
  16777176.369   -26097680.58049 -20320076.65949  16777175.6634   16777181.7234
  18143853.761   -37100027.05749 -28520877.77449  18143854.3214   18143861.3084
  18620822.798   -10585743.85949  -8236193.21949  18620822.7734   18620830.8394
  15496686.707   -43925535.98749 -34191517.76249  15496686.0474   15496691.6864
  17539388.695   -28613874.03849 -22270937.32749  17539387.7654   17539394.1104
 97  3 19 21 15 29.9830000  0  6  9  2 26 27  7  4
  17769504.488   -27020925.05549 -19755179.55849  17769504.2284   17769510.8894
  16768867.480   -26141344.24949 -20354100.31149  16768866.5854   16768872.8014
  18139704.343   -37121832.79649 -28537869.30849  18139704.5344   18139710.8654
  18626581.098   -10555484.48449  -8212614.58949  18626580.5574   18626588.2364
  15487881.223   -43971809.12249 -34227574.74949  15487880.6934   15487886.0244
  17506498.951   -28786710.55049 -22405615.06749  17506498.6134   17506505.2204
 97  3 19 21 15 59.9830000  0  6  9  2 26 27  7  4
  17737923.945   -27186882.05049 -19884496.65449  17737923.1914   17737930.1734
  16760599.176   -26184794.34349 -20387957.53449  16760598.6094   16760604.4044
  18135624.910   -37143270.62349 -28554574.15049  18135625.1684   18135632.0304
  18632374.828   -10525038.52849  -8188890.57549  18632375.7554   18632382.7034
  15479150.869   -44017687.45849 -34263324.09549  15479149.8384   15479155.3904
  17473666.599   -28959245.42449 -22540057.76449  17473666.1834   17473671.9884
 97  3 19 21 16 29.9830000  0  6  9  2 26 27  7  4
  17706386.963   -27352609.91349 -20013635.20749  17706386.3144   17706392.4124
  16752365.205   -26228064.15749 -20421674.28249  16752364.5694   16752370.7864
  18131603.771   -37164401.88449 -28571040.11849  18131603.5424   18131609.3764
  18638197.409   -10494441.01349  -8165048.46149  18638197.4844   18638205.0284
  15470484.318   -44063230.30849 -34298812.02549  15470483.7674   15470489.4294
  17440883.442   -29131521.75849 -22674299.00549  17440883.2784   17440889.0524
 97  3 19 21 16 59.9830000  0  6  9  2 26 27  7  4
  17674897.054   -27518090.67949 -20142581.22749  17674896.7144   17674903.0864
  16744166.999   -26271145.96049 -20455244.53449  16744166.2954   16744172.4704
  18127639.098   -37185236.25249 -28587274.74049  18127638.5474   18127645.6324
  18644052.663   -10463671.90949  -8141072.64149  18644051.9814   18644060.0974
  15461881.861   -44108436.72549 -34334037.80749  15461881.0424   15461886.6644
  17408150.482   -29303534.25849 -22808334.66149  17408150.3484   17408156.7794
 97  3 19 21 17 29.9830000  0  6  9  2 26 27  7  4
  17643451.792   -27683336.52149 -20271344.17449  17643451.4234   17643458.0314
  16736003.074   -26314047.70449 -20488674.48549  16736002.7064   16736008.7064
  18123727.146   -37205793.50649 -28603293.41649  18123727.7244   18123734.0624
  18649940.113   -10432733.21549  -8116964.66849  18649939.6954   18649948.0034
  15453338.863   -44153330.76249 -34369020.17249  15453337.9474   15453343.4914
  17375464.699   -29475298.94849 -22942177.21749  17375464.5764   17375470.6214
 97  3 19 21 17 59.9830000  0  6  9  2 26 27  7  4
  17612041.608   -27848398.07349 -20399963.52549  17612040.9084   17612047.2244
  16727863.918   -26356819.40049 -20522003.09249  16727863.2214   16727868.8744
  18119856.583   -37226133.58749 -28619142.87749  18119856.8944   18119863.5214
  18655846.762   -10401693.97749  -8092778.34949  18655846.4464   18655853.5084
  15444842.675   -44197978.23049 -34403810.40249  15444842.0084   15444847.4894
  17342813.954   -29646879.45149 -23075876.24749  17342814.3294   17342820.0904
 97  3 19 21 18 29.9830000  0  6  9  2 26 27  7  4
  17580674.556   -28013233.14149 -20528406.39649  17580674.0734   17580679.6334
  16719754.973   -26399432.25749 -20555207.92749  16719754.5254   16719760.5554
  18116037.408   -37246203.99049 -28634782.19449  18116038.1384   18116044.6664
  18661782.457   -10370502.27249  -8068473.22549  18661782.0374   18661790.4264
  15436402.074   -44242333.88449 -34438373.25649  15436401.2924   15436406.9134
  17310203.868   -29818246.45349 -23209408.91149  17310203.3264   17310209.8034
 97  3 19 21 18 59.9830000  0  6  9  2 26 27  7  4
  17549359.509   -28177794.81749 -20656636.22949  17549358.7124   17549364.5984
  16711684.306   -26441844.11349 -20588256.14649  16711683.9024   16711689.7734
  18112281.891   -37265939.64249 -28650160.66349  18112283.1174   18112288.5414
  18667755.003   -10339116.84349  -8044017.14749  18667755.1324   18667762.6974
  15428028.810   -44286335.87849 -34472660.52549  15428028.1184   15428033.8024
  17277646.325   -29989337.24249 -23342726.34649  17277645.9254   17277652.3524
 97  3 19 21 19 29.9820000  0  6  9  2 26 27  7  4
  17518086.834   -28342133.67649 -20784692.44049  17518086.1314   17518092.1494
  16703638.858   -26484123.37649 -20621201.03249  16703638.1324   16703644.5004
  18108576.137   -37285414.18949 -28665335.69049  18108576.8734   18108582.8444
  18673748.617   -10307620.79549  -8019474.88249  18673748.5234   18673756.3004
  15419709.346   -44330055.00849 -34506727.38049  15419708.5184   15419714.1414
  17245132.369   -30160199.02149 -23475865.33849  17245131.9944   17245138.1014
 97  3 19 21 19 59.9820000  0  6  9  2 26 27  7  4
  17486864.575   -28506207.58249 -20912542.19649  17486864.0964   17486870.2664
  16695629.685   -26526211.88949 -20653997.28449  16695628.6674   16695634.9324
  18104929.306   -37304579.17049 -28680269.48949  18104929.6284   18104935.9254
  18679774.095   -10275956.97549  -7994801.87649  18679773.4524   18679781.9954
  15411454.008   -44373437.24549 -34540531.72349  15411453.3434   15411458.7764
  17212673.233   -30330772.44849 -23608779.62849  17212672.6854   17212678.9604
 97  3 19 21 20 29.9820000  0  6  9  2 26 27  7  4
  17455679.263   -28670087.16549 -21040240.52849  17455679.0254   17455684.6974
  16687644.498   -26568174.41649 -20686695.36949  16687643.6654   16687650.0354
  18101325.208   -37323519.54149 -28695028.27149  18101325.3734   18101331.2344
  18685818.305   -10244194.67449  -7970052.14249  18685818.1974   18685825.4994
  15403248.754   -44416556.43949 -34574131.09149  15403248.2934   15403253.6524
  17180258.782   -30501111.16949 -23741511.04149  17180259.1844   17180265.0704
 97  3 19 21 20 59.9820000  0  6  9  2 26 27  7  4
  17424541.219   -28833718.47049 -21167745.40349  17424540.9014   17424546.9794
  16679691.072   -26609970.20949 -20719263.53249  16679690.6504   16679696.4434
  18097766.099   -37342223.15949 -28709602.56849  18097766.1774   18097771.5224
  18691884.848   -10212315.14149  -7945211.04249  18691884.5584   18691892.9174
  15395097.766   -44459390.18749 -34607508.03649  15395097.0264   15395102.5244
  17147897.306   -30671171.56049 -23874025.57849  17147897.1284   17147902.5774
 97  3 19 21 21 29.9820000  0  7  9  2 26 27 24  7  4
  17393432.180   -28997197.44249 -21295131.57949  17393432.3374   17393437.5214
  16671752.791   -26651686.01649 -20751769.36749  16671751.9364   16671758.4324
  18094231.046   -37360800.34749 -28724078.33249  18094231.6244   18094237.7954
  18697955.136   -10180415.86549  -7920354.57149  18697955.1754   18697963.1884
  19364944.764    -6927053.53749  -4937521.61549  19364944.1984   19364952.7314
  15386979.501   -44502051.73649 -34640750.80349  15386978.7964   15386984.2594
  17115568.742   -30841059.14849 -24006405.46849  17115568.8284   17115575.2944
 97  3 19 21 21 59.9820000  0  7  9  2 26 27 24  7  4
  17362366.348   -29160449.19649 -21422340.69249  17362365.3554   17362372.0834
  16663846.156   -26693235.68849 -20784145.74249  16663845.7804   16663851.6284
  18090739.018   -37379151.29949 -28738377.83049  18090738.5924   18090745.4894
  18704043.857   -10148419.75749  -7895422.64249  18704042.7614   18704052.0574
  19328939.283    -7116263.09249  -5084957.53449  19328937.5054   19328948.8174
  15378908.820   -44544463.48049 -34673798.91349  15378908.1434   15378913.5164
  17083288.358   -31010693.44049 -24138587.97549  17083288.0464   17083293.6984
 97  3 19 21 22 29.9820000  0  7  9  2 26 27 24  7  4
  17331346.959   -29323457.13749 -21549359.82749  17331346.6384   17331352.8704
  16655969.525   -26734627.72049 -20816399.27849  16655968.7634   16655974.9154
  18087290.966   -37397270.78749 -28752496.95949  18087290.2894   18087297.4864
  18710149.715   -10116333.34149  -7870420.35549  18710148.8144   18710157.8144
  19292918.189    -7305554.09049  -5232456.92949  19292916.8124   19292927.8604
  15370886.553   -44586620.69349 -34706648.68149  15370885.7874   15370891.2824
  17051054.435   -31180083.77549 -24270580.38749  17051054.6904   17051060.3794
 97  3 19 21 22 59.9820000  0  7  9  2 26 27 24  7  4
  17300360.120   -29486294.04949 -21676245.70549  17300359.4904   17300365.3474
  16648108.115   -26775939.88549 -20848590.59149  16648107.8454   16648113.6404
  18083874.580   -37415224.11749 -28766486.61149  18083874.7844   18083882.0604
  18716259.996   -10084223.73149  -7845399.98649  18716260.0834   18716268.3034
  19256868.291    -7494996.64649  -5380074.40649  19256867.3084   19256877.5904
  15362900.517   -44628587.67949 -34739350.22749  15362899.9164   15362905.5604
  17018851.439   -31349311.56149 -24402446.15249  17018851.9144   17018856.8494
 97  3 19 21 23 29.9820000  0  7  9  2 26 27 24  7  4
  17269406.687   -29648955.30249 -21802994.70549  17269406.4894   17269411.9694
  16640266.399   -26817148.51449 -20880701.22349  16640265.3344   16640272.1834
  18080495.684   -37432980.81149 -28780323.04949  18080495.8834   18080502.7784
  18722379.198   -10052067.41149  -7820343.22149  18722379.0574   18722386.9524
  19220797.472    -7684549.15849  -5527777.57549  19220797.4194   19220805.7764
  15354957.267   -44670329.99449 -34771876.70549  15354956.6454   15354962.1754
  16986684.931   -31518347.58949 -24534162.48849  16986684.3634   16986690.4604
 97  3 19 21 23 59.9820000  0  7  9  2 26 27 24  7  4
  17238507.772   -29811329.88949 -21929520.32849  17238507.2104   17238513.5174
  16632461.233   -26858164.90949 -20912662.06549  16632460.5074   16632466.9354
  18077173.892   -37450437.11549 -28793925.41349  18077174.2434   18077181.0524
  18728526.190   -10019765.01149  -7795172.62949  18728526.5414   18728535.0674
  19184725.384    -7874108.81349  -5675486.31149  19184726.1504   19184735.2244
  15347076.437   -44711743.71849 -34804147.13949  15347075.7914   15347081.3114
  16954575.536   -31687083.41349 -24665644.91349  16954575.8114   16954581.3354
 97  3 19 21 24 29.9820000  0  7  9  2 26 27 24  7  4
  17207658.662   -29973443.17049 -22055842.33449  17207658.5964   17207664.4074
  16624684.830   -26899029.96649 -20944504.98149  16624684.0714   16624690.4114
  18073899.424   -37467644.71349 -28807333.98349  18073899.7604   18073906.8624
  18734694.791    -9987349.72549  -7769914.07749  18734694.8614   18734703.6124
  19148643.639    -8063719.25449  -5823234.61749  19148643.0104   19148652.0804
  15339251.832   -44752862.43149 -34836187.69349  15339250.9084   15339256.5824
  16922515.610   -31855559.29549 -24796924.78449  16922515.1674   16922520.8764
 97  3 19 21 24 59.9820000  0  7  9  2 26 27 24  7  4
  17176858.615   -30135298.56949 -22181963.39649  17176858.8484   17176863.9334
  16616939.453   -26939732.40849 -20976221.18249  16616938.6634   16616944.9334
  18070673.376   -37484598.02849 -28820544.41049  18070673.2434   18070679.9084
  18740886.520    -9954812.47949  -7744560.48649  18740885.9054   18740894.3624
  19112551.000    -8253386.99549  -5971027.58149  19112550.7564   19112560.1524
  15331482.460   -44793690.61249 -34868001.86249  15331481.4264   15331487.4094
  16890506.690   -32023767.06749 -24927995.73349  16890506.4164   16890513.0574
 97  3 19 21 25 29.9820000  0  7  9  2 26 27 24  7  4
  17146111.252   -30296877.02449 -22307868.66349  17146110.7854   17146116.8534
  16609227.658   -26980258.29749 -21007799.82149  16609227.1314   16609233.1834
  18067497.148   -37501289.10449 -28833550.49849  18067497.3324   18067503.6644
  18747103.161    -9922144.68849  -7719105.16749  18747103.8404   18747111.4624
  19076448.317    -8443107.76149  -6118861.84649  19076447.5004   19076457.3864
  15323769.113   -44834224.42949 -34899586.65349  15323768.2764   15323774.1434
  16858553.900   -32191679.88349 -25058836.85049  16858554.2064   16858559.4734
 97  3 19 21 25 59.9820000  0  7  9  2 26 27 24  7  4
  17115417.725   -30458172.57849 -22433553.47349  17115417.1934   17115423.3324
  16601549.128   -27020609.27149 -21039242.14849  16601548.6074   16601554.5934
  18064369.906   -37517722.86949 -28846356.08549  18064370.4674   18064377.3464
  18753346.733    -9889335.59249  -7693539.73749  18753346.5384   18753356.0914
  19040333.812    -8632890.60749  -6266744.49949  19040333.5414   19040343.4694
  15316109.274   -44874477.11849 -34930952.38549  15316108.4594   15316114.3414
  16826657.026   -32359298.65749 -25189448.84849  16826656.7684   16826662.8884
 97  3 19 21 26 29.9820000  0  7  9  2 26 27 24  7  4
  17084769.179   -30619231.88149 -22559054.19649  17084768.7814   17084774.4964
  16593900.619   -27060802.35049 -21070561.44849  16593899.7324   16593906.1584
  18061283.686   -37533941.50649 -28858994.03549  18061283.6834   18061290.3684
  18759610.990    -9856417.54349  -7667889.41949  18759610.9424   18759619.1354
  19004202.367    -8822762.48449  -6414696.52449  19004202.1054   19004211.7424
  15308498.867   -44914470.18849 -34962115.81149  15308498.2874   15308503.9594
  16794810.045   -32526655.54949 -25319856.76249  16794809.8454   16794815.8534
 97  3 19 21 26 59.9820000  0  7  9  2 26 27 24  7  4
  17054167.082   -30780046.78449 -22684364.48149  17054166.3864   17054172.5304
  16586288.522   -27100804.32949 -21101731.83949  16586287.8224   16586294.0884
  18058241.721   -37549927.45549 -28871450.67049  18058241.8094   18058248.7174
  18765898.630    -9823376.47549  -7642143.23249  18765898.3394   18765907.1424
  18968060.217    -9012691.11749  -6562692.78149  18968059.5764   18968069.9024
  15300941.132   -44954186.27049 -34993063.41349  15300940.4594   15300946.2564
  16763019.031   -32693718.17749 -25450035.39249  16763019.2534   16763024.8884
 97  3 19 21 27 29.9820000  0  7  9  2 26 27 24  7  4
  17023614.317   -30940602.50849 -22809472.80549  17023613.5484   17023619.3684
  16578714.410   -27140606.69049 -21132746.67749  16578713.9554   16578720.3164
  18055242.729   -37565686.88449 -28883730.80649  18055242.7764   18055249.9504
  18772207.859    -9790221.93549  -7616308.63749  18772208.2814   18772215.4194
  18931912.133    -9202650.34549  -6710712.87049  18931912.1304   18931920.0834
  15293437.816   -44993616.42449 -35023788.20949  15293436.9544   15293442.5054
  16731288.694   -32860462.18049 -25579965.74549  16731289.0104   16731294.4544
 97  3 19 21 27 59.9820000  0  7  9  2 26 27 24  7  4
  16993120.033   -31100850.76449 -22934341.54449  16993119.1984   16993125.4274
  16571185.321   -27180172.25749 -21163577.00149  16571184.8474   16571190.8234
  18052291.128   -37581197.52849 -28895817.06949  18052290.8094   18052297.6664
  18778544.204    -9756925.02749  -7590363.09849  18778543.7954   18778552.4334
  18895766.511    -9392596.84749  -6858723.04349  18895766.1234   18895775.2194
  15285995.820   -45032724.10449 -35054261.72849  15285994.7264   15286000.5354
  16699624.988   -33026856.05749 -25709623.26149  16699625.0504   16699630.3734
 97  3 19 21 28 29.9820000  0  7  9  2 26 27 24  7  4
  16962678.887   -31260819.94449 -23058992.81949  16962678.4224   16962684.2704
  16563694.871   -27219534.82349 -21194249.15149  16563694.4134   16563700.3234
  18049379.105   -37596500.39249 -28907741.43149  18049379.2554   18049385.9084
  18784896.921    -9723541.39449  -7564349.98249  18784897.1164   18784905.3294
  18859614.970    -9582574.29949  -7006757.33849  18859614.3014   18859623.1454
  15278608.666   -45071543.92149 -35084510.94249  15278607.9604   15278613.5984
  16668021.673   -33192932.93349 -25839033.77149  16668021.4394   16668026.9344
 97  3 19 21 28 59.9810000  0  7  9  2 26 27 24  7  4
  16932298.500   -31420469.87949 -23183395.33449  16932298.0244   16932304.2244
  16556243.466   -27258692.41349 -21224761.57449  16556242.9224   16556249.0304
  18046508.536   -37611585.50649 -28919496.12249  18046508.4124   18046516.1504
  18791266.950    -9690067.26149  -7538266.35649  18791266.7174   18791274.6484
  18823461.347    -9772562.83949  -7154800.27749  18823460.8594   18823470.3394
  15271274.937   -45110083.03449 -35114541.42049  15271274.3474   15271280.1114
  16636483.265   -33358668.20549 -25968178.09149  16636483.6024   16636488.4194
 97  3 19 21 29 29.9810000  0  7  9  2 26 27 24  7  4
  16901982.519   -31579781.22949 -23307534.01249  16901982.0514   16901988.3314
  16548829.385   -27297653.46749 -21255120.85149  16548829.1144   16548835.0004
  18043679.971   -37626450.15949 -28931079.02649  18043680.0204   18043686.8224
  18797658.599    -9656479.01149  -7512093.80449  18797657.8424   18797666.2884
  18787305.487    -9962562.75549  -7302852.07549  18787304.7804   18787313.4364
  15263995.844   -45148335.02349 -35144348.16449  15263995.0864   15264000.9524
  16605008.730   -33524067.79549 -26097060.84749  16605008.6924   16605014.2974
 97  3 19 21 29 59.9810000  0  7  9  2 26 27 24  7  4
  16871718.938   -31738817.44049 -23431458.30249  16871718.7524   16871724.3654
  16541441.097   -27336479.23649 -21285374.70549  16541440.1894   16541446.6924
  18040882.948   -37641149.21949 -28942532.89649  18040883.5264   18040890.5254
  18804061.463    -9622832.16549  -7485875.59349  18804061.3494   18804069.9834
  18751137.430   -10152626.78949  -7450953.83949  18751137.1284   18751145.7214
  15256757.722   -45186371.96749 -35173987.34549  15256757.1074   15256762.8314
  16573583.925   -33689205.99349 -26225739.91249  16573583.2774   16573589.8514
 97  3 19 21 30 29.9810000  0  7  9  2 26 27 24  7  4
  16841532.520   -31897448.01149 -23555066.49449  16841531.8704   16841537.6844
  16534105.316   -27375029.03249 -21315413.51749  16534104.2984   16534110.8254
  18038146.538   -37655529.34949 -28953738.24749  18038146.9614   18038153.5364
  18810501.270    -9588991.14149  -7459506.06449  18810501.8814   18810510.3874
  18714987.315   -10342596.85949  -7598982.38049  18714986.5344   18714995.9204
  15249586.243   -45224058.51749 -35203353.48849  15249585.8014   15249591.3824
  16542237.047   -33853934.59749 -26354099.81849  16542237.3374   16542242.7364
 97  3 19 21 30 59.9810000  0  7  9  2 26 27 24  7  4
  16811406.447   -32055761.45349 -23678427.58749  16811406.1464   16811411.5784
  16526803.238   -27413401.75149 -21345314.35249  16526803.2424   16526808.5374
  18035453.298   -37669682.66649 -28964766.86649  18035453.8954   18035460.6804
  18816961.738    -9555041.63449  -7433052.02249  18816961.6594   18816969.7494
  18678840.771   -10532547.74949  -7746995.97849  18678839.9584   18678850.0404
  15242462.999   -45261491.61049 -35232522.13149  15242462.0134   15242467.9154
  16510950.354   -34018347.32449 -26482213.57949  16510949.9174   16510956.2384
 97  3 19 21 31 29.9810000  0  7  9  2 26 27 24  7  4
  16781335.794   -32213783.52449 -23801561.62449  16781335.3134   16781341.3134
  16519530.895   -27451618.46649 -21375093.61949  16519530.1874   16519536.0774
  18032801.009   -37683621.13749 -28975628.05949  18032801.7514   18032808.3974
  18823439.241    -9521002.73649  -7406528.30849  18823439.5144   18823448.9654
  18642693.680   -10722501.78949  -7895012.03749  18642693.0224   18642702.8164
  15235387.493   -45298673.64249 -35261495.14149  15235386.6414   15235392.2624
  16479720.857   -34182459.24349 -26610092.95549  16479721.5864   16479726.6494
 97  3 19 21 31 59.9810000  0  7  9  2 26 27 24  7  4
  16751323.908   -32371496.86949 -23924455.09949  16751323.4504   16751329.0404
  16512296.061   -27489637.52049 -21404718.86549  16512295.2364   16512301.8934
  18030193.856   -37697322.07549 -28986304.17049  18030194.5164   18030200.5244
  18829935.163    -9486866.84249  -7379929.01449  18829934.9074   18829942.7714
  18606549.970   -10912437.70649  -8043013.96549  18606549.6244   18606558.3874
  15228364.485   -45335579.58749 -35290253.01749  15228363.6134   15228369.4594
  16448555.269   -34346235.17549 -26737710.52049  16448555.1324   16448560.6564
 97  3 19 21 32 29.9810000  0  7  9  2 26 27 24  7  4
  16721369.129   -32528910.28849 -24047114.86649  16721368.9374   16721374.5294
  16505094.953   -27527479.56749 -21434206.18449  16505094.2214   16505100.9774
  18027625.527   -37710818.91349 -28996821.23649  18027626.3744   18027633.5534
  18836444.447    -9452660.87949  -7353275.12449  18836444.0914   18836452.8654
  18570402.638   -11102392.79049  -8191030.83349  18570401.9384   18570410.8764
  15221393.377   -45372212.89749 -35318798.45049  15221392.6294   15221398.2664
  16417453.511   -34509675.64449 -26865066.69449  16417453.0744   16417459.0064
 97  3 19 21 32 59.9810000  0  7  9  2 26 27 24  7  4
  16691469.798   -32686032.27849 -24169547.54549  16691469.4964   16691474.7104
  16497927.374   -27565145.61549 -21463556.36149  16497926.8434   16497933.1844
  18025093.642   -37724124.23749 -29007189.06549  18025094.0274   18025100.6444
  18842967.585    -9418382.15149  -7326564.53149  18842967.0954   18842975.4184
  18534249.042   -11292380.94149  -8339073.46149  18534248.7074   18534256.7424
  15214475.677   -45408565.85649 -35347125.42249  15214474.9784   15214480.4424
  16386416.571   -34672775.74949 -26992157.64649  16386416.5204   16386421.5754
 97  3 19 21 33 29.9810000  0  7  9  2 26 27 24  7  4
  16661624.780   -32842869.11149 -24291758.03249  16661624.7974   16661630.1974
  16490796.354   -27602619.44049 -21492756.74749  16490795.5904   16490802.0164
  18022598.705   -37737235.35349 -29017405.58549  18022598.9444   18022605.1264
  18849505.412    -9384026.08249  -7299793.66149  18849506.5584   18849514.6834
  18498089.762   -11482398.51149  -8487139.03349  18498089.3294   18498097.4524
  15207612.754   -45444630.74449 -35375227.92949  15207612.1894   15207617.3724
  16355448.771   -34835512.48949 -27118965.45649  16355448.7084   16355454.5644
 97  3 19 21 33 59.9810000  0  7  9  2 26 27 24  7  4
  16631862.093   -32999272.82549 -24413631.02149  16631862.0024   16631867.2914
  16483729.895   -27639754.22449 -21521692.94249  16483729.0924   16483735.6454
  18020166.586   -37750016.82149 -29027365.21049  18020166.5184   18020173.6124
  18856084.495    -9349453.05549  -7272853.74749  18856083.7054   18856092.4704
  18461955.918   -11672282.37949  -8635100.43049  18461955.7344   18461963.9954
  15200828.388   -45480282.93649 -35403008.85549  15200827.5864   15200833.1334
  16324578.947   -34997734.63549 -27245372.29049  16324579.1994   16324584.8774
 97  3 19 21 34 29.9810000  0  6  9  2 26 24  7  4
  16602180.949   -33155248.30849 -24535170.32649  16602180.5704   16602185.5134
  16476721.744   -27676582.38849 -21550390.21649  16476721.3234   16476727.6864
  18017795.744   -37762476.13149 -29037073.81749  18017796.1194   18017802.7124
  18425848.321   -11862028.63949  -8782954.59749  18425847.4114   18425857.0744
  15194119.532   -45515538.29249 -35430480.55449  15194118.9204   15194124.4124
  16293806.565   -35159444.44349 -27371379.88849  16293806.2534   16293811.9494
 97  3 19 21 34 59.9810000  0  6  9  2 26 24  7  4
  16572562.677   -33310893.09849 -24656451.94349  16572562.3944   16572567.7014
  16469752.092   -27713208.30149 -21578929.89449  16469751.3584   16469757.8984
  18015467.650   -37774710.58049 -29046607.20449  18015467.7514   18015474.5244
  18389753.901   -12051705.75449  -8930754.88449  18389753.1494   18389762.4684
  15187464.039   -45550513.32249 -35457733.82249  15187463.0784   15187468.4764
  16263111.054   -35320750.13949 -27497072.60249  16263111.6124   16263116.9864
 97  3 19 21 35 29.9810000  0  6  9  2 26 24  7  4
  16543011.181   -33466187.09849 -24777460.22649  16543010.9224   16543016.4354
  16462822.136   -27749625.65149 -21607307.05649  16462822.0154   16462827.9824
  18013182.539   -37786719.12049 -29055964.55249  18013182.9734   18013189.7384
  18353675.951   -12241296.19449  -9078487.64449  18353676.0344   18353684.8074
  15180859.769   -45585218.52449 -35484776.83649  15180858.8004   15180864.4274
  16232491.733   -35481655.32949 -27622453.22949  16232491.4104   16232497.7374
 97  3 19 21 35 59.9810000  0  6  9  2 26 24  7  4
  16513523.177   -33621147.38749 -24898208.46649  16513522.4364   16513528.2704
  16455925.998   -27785865.13849 -21635545.62749  16455925.2004   16455931.5984
  18010933.008   -37798540.86249 -29065176.35349  18010932.7614   18010939.9104
  18317609.290   -12430827.74849  -9226174.51449  18317608.9634   18317618.2594
  15174299.897   -45619690.71849 -35511638.28349  15174299.0714   15174304.6474
  16201939.186   -35642209.78549 -27747560.56549  16201939.2914   16201945.4374
 97  3 19 21 36 29.9810000  0  6  9  2 26 24  7  4
  16484100.994   -33775761.82549 -25018687.22049  16484100.7154   16484106.3884
  16449066.442   -27821912.40449 -21663634.41549  16449066.0094   16449071.6934
  18008721.024   -37810165.03549 -29074234.21249  18008720.6824   18008728.2524
  18281553.238   -12620303.31149  -9373817.74949  18281552.6544   18281562.7324
  15167787.442   -45653914.14549 -35538305.88649  15167786.6804   15167792.4034
  16171450.588   -35802428.35849 -27872406.17349  16171451.2974   16171455.9534
 97  3 19 21 36 59.9810000  0  6  9  2 26 24  7  4
  16454753.028   -33929986.22249 -25138862.04449  16454752.7124   16454758.3834
  16442256.410   -27857699.39449 -21691520.39849  16442255.9234   16442261.9634
  18006556.449   -37821540.09449 -29083097.94449  18006556.3904   18006564.0894
  18245514.722   -12809686.97749  -9521389.36949  18245513.7644   18245523.7344
  15161330.418   -45687846.15249 -35564746.41049  15161329.7804   15161335.4584
  16141032.205   -35962278.02249 -27996964.31349  16141032.4964   16141037.7594
 97  3 19 21 37 29.9810000  0  6  9  2 26 24  7  4
  16425479.863   -34083817.68149 -25258730.67949  16425479.8374   16425484.9584
  16435494.687   -27893232.49649 -21719208.52749  16435493.9244   16435500.7684
  18004437.484   -37832675.21149 -29091774.71449  18004437.5174   18004445.0234
  18209486.345   -12999017.14949  -9668919.28949  18209485.7254   18209495.3694
  15154927.322   -45721494.59149 -35590965.97249  15154926.5734   15154932.0534
  16110683.309   -36121762.52749 -28121237.91549  16110683.4864   16110689.0624
 97  3 19 21 37 59.9810000  0  7  9  2 26 24  5  7  4
  16396273.116   -34237300.25049 -25378327.45949  16396272.8564   16396278.3374
  16428771.379   -27928563.54149 -21746739.22749  16428770.8694   16428776.6944
  18002355.653   -37843615.33249 -29100299.54749  18002355.2794   18002363.1024
  18173456.302   -13188355.87649  -9816455.86249  18173455.7384   18173465.1184
  18966068.103    -2641452.69149  -2039667.26949  18966066.8854   18966073.8964
  15148569.747   -45754903.73849 -35616999.07849  15148568.8144   15148574.5524
  16080396.773   -36280918.92049 -28245255.84349  16080396.6534   16080402.7164
 97  3 19 21 38 29.9800000  0  7  9  2 26 24  5  7  4
  16367117.054   -34390516.50849 -25497716.72649  16367116.4814   16367122.1794
  16422069.812   -27963780.33049 -21774180.88949  16422069.5484   16422075.4944
  18000295.374   -37854442.48749 -29108736.35149  18000295.8544   18000303.2814
  18137409.818   -13377781.07849  -9964059.83149  18137409.5634   18137418.0124
  18935045.106    -2804479.09149  -2166700.70449  18935043.9424   18935051.7994
  15142243.738   -45788147.05649 -35642902.96549  15142243.0134   15142248.7914
  16050163.001   -36439798.21549 -28369057.85649  16050163.0334   16050168.5324
 97  3 19 21 38 59.9800000  0  7  9  2 26 24  5  7  4
  16337998.585   -34543534.97849 -25616951.86749  16337998.2694   16338003.7664
  16415378.195   -27998945.18749 -21801582.08649  16415377.2814   16415384.1154
  17998241.059   -37865238.11549 -29117148.58749  17998240.8674   17998248.1664
  18101332.968   -13567366.15949 -10111788.36549  18101332.0894   18101341.3524
  18903990.347    -2967672.56149  -2293864.32449  18903989.7004   18903996.0884
  15135937.336   -45821287.51049 -35668726.69949  15135936.7594   15135942.4314
  16019974.988   -36598437.07349 -28492672.50849  16019974.7124   16019981.0944
 97  3 19 21 39 29.9800000  0  7  9  2 26 24  5  7  4
  16308901.181   -34696442.61349 -25736100.64649  16308900.5034   16308905.9314
  16408677.296   -28034158.98449 -21829021.43349  16408676.7694   16408682.9974
  17996169.695   -37876123.44449 -29125630.73049  17996169.1814   17996176.7594
  18065210.454   -13757191.10249 -10259703.79149  18065209.8254   18065218.1534
  18872884.225    -3131136.00449  -2421238.30549  18872882.3054   18872890.8234
  15129632.810   -45854418.30349 -35694542.90549  15129632.0344   15129637.8114
  15989818.319   -36756911.17449 -28616158.78049  15989818.1994   15989824.3684
 97  3 19 21 39 59.9800000  0  7  9  2 26 24  5  7  4
  16279873.688   -34848982.92049 -25854963.18949  16279873.1584   16279878.8354
  16402020.774   -28069139.26249 -21856278.80449  16402020.4784   16402025.8704
  17994130.924   -37886837.71149 -29133979.58149  17994131.0124   17994137.9154
  18029099.395   -13946955.83149 -10407572.28949  18029099.7344   18029108.1884
  18841778.904    -3294595.38849  -2548609.13349  18841777.9694   18841784.7554
  15123382.843   -45887262.12249 -35720135.49349  15123382.2004   15123387.7264
  15959746.028   -36914941.83449 -28739299.50849  15959745.7784   15959751.8754
 97  3 19 21 40 29.9800000  0  7  9  2 26 24  5  7  4
  16250892.066   -35001282.13949 -25973637.88349  16250891.5324   16250897.3544
  16395386.620   -28104001.81749 -21883444.44649  16395386.2504   16395392.2064
  17992099.206   -37897515.19449 -29142299.75949  17992099.1994   17992105.9204
  17992979.379   -14136767.56849 -10555477.41249  17992979.0304   17992987.1154
  18810648.876    -3458184.69149  -2676081.20649  18810648.1494   18810653.9964
  15117163.275   -45919945.99649 -35745603.45549  15117162.5864   15117168.0534
  15929733.346   -37072659.51649 -28862196.35949  15929733.1054   15929738.6614
 97  3 19 21 40 59.9800000  0  7  9  2 26 24  5  7  4
  16221975.725   -35153238.51549 -26092045.42249  16221975.5004   16221980.8114
  16388795.039   -28138640.87849 -21910435.93749  16388795.0734   16388800.5034
  17990092.816   -37908059.28849 -29150515.99249  17990093.5274   17990100.2404
  17956871.894   -14326513.40449 -10703331.19649  17956871.9664   17956879.5804
  18779511.320    -3621813.19549  -2803583.81949  18779511.0754   18779518.2354
  15110990.523   -45952384.10549 -35770879.90049  15110989.9494   15110995.8784
  15899795.509   -37229983.77249 -28984786.64249  15899795.6214   15899801.4064
 97  3 19 21 41 29.9800000  0  7  9  2 26 24  5  7  4
  16193108.284   -35304938.11149 -26210252.87649  16193107.6454   16193113.5584
  16382229.487   -28173143.37449 -21937321.02349  16382229.1094   16382235.0884
  17988098.234   -37918541.37849 -29158683.93349  17988098.5884   17988105.5514
  17920763.893   -14516261.76049 -10851186.92249  17920762.7444   17920772.2704
  18748351.412    -3785559.23549  -2931178.02349  18748349.7784   18748359.0644
  15104847.482   -45984666.17049 -35796034.76249  15104846.9624   15104852.4844
  15869913.028   -37387017.06449 -29107150.20949  15869912.7884   15869918.8644
 97  3 19 21 41 59.9800000  0  7  9  2 26 24  5  7  4
  16164308.639   -35456281.10149 -26328182.45849  16164308.1124   16164314.1174
  16375704.984   -28207429.65749 -21964037.62749  16375704.5764   16375710.7024
  17986136.645   -37928849.76449 -29166716.51249  17986137.1964   17986144.0174
  17884672.588   -14705922.37549 -10998974.26649  17884671.5994   17884680.8984
  18717183.810    -3949345.23449  -3058803.39049  18717182.9644   18717189.2574
  15098750.597   -46016705.43649 -35821000.42449  15098749.8134   15098755.3224
  15840100.475   -37543682.84349 -29229227.38949  15840100.3774   15840106.4844
 97  3 19 21 42 29.9800000  0  7  9  2 26 24  5  7  4
  16135583.456   -35607232.58949 -26445806.96249  16135582.8684   16135588.5884
  16369222.879   -28241493.45949 -21990580.87249  16369222.0134   16369228.3294
  17984214.733   -37938949.98349 -29174586.88249  17984214.9274   17984221.7184
  17848601.040   -14895479.22649 -11146680.76749  17848600.8114   17848609.2594
  18686010.903    -4113159.69249  -3186450.92149  18686010.3644   18686017.3564
  15092702.309   -46048489.52749 -35845767.24649  15092701.7404   15092707.3054
  15810362.875   -37699954.92449 -29350997.80149  15810362.7944   15810367.9324
 97  3 19 21 42 59.9800000  0  7  9  2 26 24  5  7  4
  16106936.162   -35757774.89149 -26563112.62449  16106935.6904   16106941.3484
  16362783.493   -28275332.76649 -22016949.17949  16362783.0414   16362789.1014
  17982334.615   -37948830.66749 -29182286.19149  17982335.1084   17982342.1934
  17812550.452   -15084926.06349 -11294301.53249  17812550.3784   17812558.1274
  18654835.269    -4276988.38849  -3314109.57049  18654834.0774   18654842.1024
  15086705.270   -46080004.33349 -35870324.23349  15086704.6624   15086710.2394
  15780705.957   -37855803.13849 -29472437.92449  15780706.1544   15780711.6544
 97  3 19 21 43 29.9800000  0  7  9  2 26 24  5  7  4
  16078357.035   -35907959.02049 -26680139.19949  16078356.3854   16078362.4574
  16356373.417   -28309017.99249 -22043197.42949  16356372.5494   16356378.7784
  17980484.866   -37958551.26249 -29189860.75449  17980484.9394   17980492.3794
  17776509.201   -15274323.97949 -11441884.18649  17776508.6994   17776517.0164
  18623647.395    -4440881.36249  -3441818.29449  18623646.2784   18623653.8884
  15080748.420   -46111307.90749 -35894716.62949  15080747.6664   15080753.6094
  15751123.158   -38011261.87049 -29593574.55649  15751122.9944   15751128.4244
 97  3 19 21 43 59.9800000  0  7  9  2 26 24  5  7  4
  16049858.306   -36057720.70649 -26796836.58449  16049858.1444   16049863.8344
  16350005.054   -28342484.19049 -22069275.00249  16350004.1784   16350011.1004
  17978676.000   -37968057.08649 -29197267.97049  17978676.2314   17978683.2654
  17740490.717   -15463602.21649 -11589373.59249  17740489.9244   17740498.1904
  18592459.317    -4604775.35849  -3569527.81149  18592459.1984   18592466.5324
  15074842.890   -46142341.71949 -35918898.81549  15074842.0544   15074847.7254
  15721630.686   -38166245.62449 -29714341.07349  15721630.6424   15721635.9184
 97  3 19 21 44 29.9800000  0  7  9  2 26 24  5  7  4
  16021410.294   -36207215.97049 -26913326.37449  16021409.9394   16021415.6704
  16343653.413   -28375862.37849 -22095284.00149  16343652.6554   16343659.6874
  17976876.006   -37977516.53149 -29204639.04149  17976876.1284   17976883.5694
  17704470.276   -15652890.47649 -11736870.80249  17704469.5614   17704477.8974
  18561247.021    -4768796.76349  -3697336.62349  18561246.2474   18561253.7734
  15068961.486   -46173248.49849 -35942982.02049  15068960.8164   15068966.5374
  15692206.669   -38320869.99249 -29834827.54949  15692206.7014   15692212.3874
 97  3 19 21 44 59.9800000  0  7  9  2 26 24  5  7  4
  15993018.110   -36356417.85449 -27029587.55149  15993017.8244   15993023.3104
  16337326.724   -28409109.26649 -22121190.68749  16337326.0754   16337333.0234
  17975087.105   -37986917.35349 -29211964.42649  17975087.4164   17975094.5234
  17668454.550   -15842153.95349 -11884348.70349  17668453.7244   17668461.7574
  18530018.160    -4932904.93949  -3825213.02949  18530016.8964   18530024.9174
  15063112.135   -46203987.17649 -35966934.23049  15063111.3854   15063117.2474
  15662856.015   -38475109.07549 -29955013.80849  15662856.2404   15662861.4344
 97  3 19 21 45 29.9800000  0  7  9  2 26 24  5  7  4
  15964726.233   -36505092.64449 -27145438.01449  15964725.5704   15964731.2204
  16331071.719   -28441979.44249 -22146803.83749  16331071.4744   16331077.6474
  17973355.108   -37996019.35349 -29219056.97049  17973355.6654   17973362.9124
  17632490.000   -16031148.53849 -12031617.09449  17632489.2724   17632497.3444
  18498817.070    -5096866.62749  -3952975.27149  18498815.0974   18498823.5074
  15057338.396   -46234328.20249 -35990576.59049  15057337.6224   15057343.3584
  15633621.499   -38628737.56149 -30074724.27549  15633621.5894   15633626.4434
 97  3 19 21 45 59.9800000  0  7  9  2 26 24  5  7  4
  15936482.748   -36653513.07149 -27261090.26949  15936482.0334   15936488.2664
  16324840.672   -28474724.02349 -22172319.11549  16324840.6184   16324846.3374
  17971627.745   -38005097.13349 -29226130.64049  17971628.5304   17971635.3044
  17596522.944   -16220156.33749 -12178895.78149  17596522.4514   17596530.2104
  18467592.393    -5260952.88549  -4080834.58949  18467591.1734   18467599.5914
  15051590.242   -46264534.75649 -36014114.16849  15051589.4914   15051595.3194
  15604449.082   -38782039.30149 -30194180.13749  15604448.8454   15604454.5534
 97  3 19 21 46 29.9800000  0  7  9  2 26 24  5  7  4
  15908300.634   -36801610.83649 -27376491.09849  15908300.4634   15908305.9414
  16318645.928   -28507277.69149 -22197685.63249  16318645.6774   16318651.6704
  17969915.477   -38014095.71149 -29233142.58949  17969916.2364   17969923.1064
  17560560.566   -16409139.30749 -12326155.11649  17560560.1274   17560567.4974
  18436357.325    -5425093.78149  -4208736.47149  18436356.3364   18436364.8644
  15045880.741   -46294538.44949 -36037493.66949  15045880.0944   15045885.5304
  15575347.342   -38934969.80349 -30313346.71949  15575347.3014   15575352.5464
 97  3 19 21 46 59.9800000  0  7  9  2 26 24  5  7  4
  15880221.425   -36949167.97649 -27491470.66649  15880221.1524   15880226.7134
  16312526.558   -28539435.16249 -22222743.41749  16312526.0734   16312532.6144
  17968258.165   -38022804.85049 -29239929.01049  17968258.4144   17968265.6314
  17524638.631   -16597909.75349 -12473248.86049  17524638.0064   17524645.3154
  18405149.020    -5589094.09949  -4336528.82349  18405148.6614   18405156.2114
  15040246.191   -46324148.19849 -36060566.20449  15040245.1954   15040251.0874
  15546352.553   -39087338.19449 -30432075.29949  15546352.5144   15546357.7134
 97  3 19 21 47 29.9800000  0  7  9  2 26 24  5  7  4
  15852208.098   -37096378.73049 -27606180.32449  15852207.7054   15852213.4524
  16306442.906   -28571404.97549 -22247654.98449  16306442.4754   16306449.0504
  17966615.485   -38031437.58449 -29246655.89249  17966615.5814   17966622.7424
  17488717.552   -16786675.67449 -12620339.07249  17488716.6334   17488725.5004
  18373925.871    -5753172.98049  -4464382.38749  18373924.4374   18373933.5834
  15034642.978   -46353593.49049 -36083510.59549  15034642.0444   15034647.7154
  15517426.451   -39239345.67549 -30550522.64449  15517426.3494   15517432.3794
 97  3 19 21 47 59.9790000  0  7  9  2 26 24  5  7  4
  15824288.066   -37243099.53849 -27720508.20649  15824287.9734   15824293.5864
  16300417.552   -28603068.38349 -22272327.78849  16300417.3364   16300423.8744
  17965008.388   -38039883.37349 -29253237.09849  17965008.5134   17965015.4744
  17452823.526   -16975299.37249 -12767318.47149  17452822.7824   17452830.7874
  18342715.047    -5917186.94449  -4592185.38549  18342714.7234   18342721.6244
  15029094.586   -46382750.46649 -36106230.32849  15029093.6954   15029099.6684
  15488594.505   -39390858.52449 -30668584.56949  15488594.4694   15488599.8674
 97  3 19 21 48 29.9790000  0  7  9  2 26 24  5  7  4
  15796430.224   -37389493.46549 -27834581.36849  15796430.1494   15796435.2204
  16294416.708   -28634603.39949 -22296900.54749  16294416.8704   16294422.5064
  17963406.562   -38048301.23349 -29259796.53749  17963406.9024   17963414.4184
  17416928.735   -17163927.06349 -12914300.96849  17416927.5224   17416937.1004
  18311482.800    -6081313.18549  -4720075.83649  18311482.0154   18311489.8844
  15023566.882   -46411798.95749 -36128865.52049  15023566.1224   15023571.8494
  15459825.355   -39542041.16149 -30786389.17749  15459825.1564   15459830.6014
 97  3 19 21 48 59.9790000  0  7  9  2 26 24  5  7  4
  15768664.020   -37535405.98649 -27948279.41749  15768663.7014   15768669.3384
  16288466.607   -28665871.65049 -22321265.44449  16288466.1404   16288472.3194
  17961840.317   -38056532.70449 -29266210.74449  17961840.5774   17961848.3364
  17381066.392   -17352384.45349 -13061150.76649  17381065.5094   17381073.1734
  18280256.040    -6245410.75949  -4847943.97549  18280256.2324   18280262.7114
  15018086.892   -46440596.53949 -36151305.20549  15018085.7964   15018091.7554
  15431150.088   -39692730.59449 -30903809.47949  15431149.8874   15431155.1894
 97  3 19 21 49 29.9790000  0  7  9  2 26 24  5  7  4
  15740982.443   -37680873.91249 -28061631.03049  15740982.3954   15740987.1314
  16282557.483   -28696924.55549 -22345462.53749  16282556.7804   16282563.4634
  17960303.560   -38064608.91049 -29272503.96449  17960304.1104   17960311.2684
  17345232.303   -17540693.54149 -13207885.00849  17345231.4964   17345239.3574
  18249029.626    -6409506.79849  -4975810.93449  18249028.5604   18249037.0064
  15012650.009   -46469167.41349 -36173568.23149  15012649.2994   15012655.2074
  15402561.535   -39842964.30549 -31020874.66949  15402561.2894   15402566.6744
 97  3 19 21 49 59.9790000  0  7  9  2 26 24  5  7  4
  15713386.118   -37825893.29849 -28174633.13549  15713385.6894   15713391.0854
  16276693.277   -28727741.30849 -22369475.61849  16276692.6004   16276699.3964
  17958803.737   -38072490.68649 -29278645.68149  17958803.6194   17958810.6224
  17309430.885   -17728830.75549 -13354485.32149  17309430.3714   17309437.8294
  18217808.282    -6573575.85449  -5103656.86149  18217806.8554   18217814.5694
  15007263.553   -46497473.83349 -36195625.19749  15007262.8984   15007268.6274
  15374064.418   -39992717.34949 -31137565.31849  15374064.6074   15374069.7384
 97  3 19 21 50 29.9790000  0  7  9  2 26 24  5  7  4
  15685860.013   -37970543.96549 -28287347.91849  15685859.7954   15685865.3254
  16270862.224   -28758383.65549 -22393352.80649  16270861.9974   16270868.3744
  17957329.152   -38080239.61349 -29284683.88049  17957328.9704   17957336.3014
  17273648.849   -17916866.30649 -13501006.42049  17273648.5224   17273656.1064
  18186578.995    -6737686.34149  -5231535.07449  18186577.4744   18186585.4544
  15001916.764   -46525571.36649 -36217519.38549  15001916.1304   15001921.6494
  15345647.973   -40142046.58649 -31253925.72049  15345648.1794   15345653.4734
 97  3 19 21 50 59.9790000  0  7  9  2 26 24  5  7  4
  15658384.905   -38114926.64549 -28399853.87649  15658384.3264   15658389.8294
  16265045.684   -28788949.73849 -22417170.54949  16265045.0344   16265051.7504
  17955858.423   -38087968.57749 -29290706.51749  17955858.1884   17955865.6714
  17237863.827   -18104917.48849 -13647539.68149  17237863.4654   17237871.2524
  18155323.359    -6901935.28349  -5359521.18149  18155323.1214   18155330.0154
  14996592.733   -46553549.49049 -36239320.52649  14996592.1754   14996597.5624
  15317292.882   -40291053.48549 -31370034.94649  15317292.8494   15317298.4484
 97  3 19 21 51 29.9790000  0  7  9  2 26 24  5  7  4
  15630948.185   -38259107.38349 -28512202.48249  15630947.7704   15630953.4124
  16259235.795   -28819481.12649 -22440961.26349  16259235.1464   16259241.8374
  17954378.687   -38095744.94649 -29296766.10149  17954379.1024   17954385.9054
  17202066.950   -18293030.83749 -13794121.38549  17202066.0274   17202074.3714
  18124030.962    -7066377.56249  -5487657.95749  18124030.0654   18124036.9934
  14991279.601   -46581470.39749 -36261077.07949  14991278.8044   14991284.0704
  15288989.465   -40439789.06549 -31485932.76449  15288989.1734   15288994.5574
 97  3 19 21 51 59.9790000  0  7  9  2 26 24  5  7  4
  15603573.454   -38402962.27549 -28624297.18749  15603572.9114   15603578.8614
  16253459.798   -28849834.50049 -22464613.26449  16253459.6444   16253466.5534
  17952912.582   -38103449.83949 -29302769.99449  17952912.5174   17952919.5794
  17166284.196   -18481069.93749 -13940645.23749  17166283.6994   17166292.3394
  18092724.828    -7230891.78649  -5615850.78749  18092724.3584   18092731.0904
  14985999.706   -46609216.52449 -36282697.44449  14985998.5594   14986004.5924
  15260764.702   -40588111.02149 -31601508.27149  15260764.6424   15260770.2354
 97  3 19 21 52 29.9790000  0  7  9  2 26 24  5  7  4
  15576273.242   -38546425.96149 -28736087.05449  15576273.2404   15576278.5744
  16247725.229   -28879970.05749 -22488095.55049  16247724.1054   16247731.6004
  17951464.024   -38111062.35849 -29308701.90749  17951464.3404   17951472.1914
  17130525.069   -18668985.27749 -14087072.66449  17130523.9154   17130532.8854
  18061413.450    -7395433.86049  -5744065.32249  18061412.9244   18061419.8884
  14980759.782   -46636752.67549 -36304154.18649  14980758.6674   14980764.2294
  15232627.840   -40735971.21949 -31716723.97049  15232627.8614   15232633.4974
 97  3 19 21 52 59.9790000  0  7  9  2 26 24  5  7  4
  15549041.499   -38689529.78549 -28847596.51049  15549041.3534   15549046.6164
  16242023.313   -28909934.17449 -22511444.24049  16242022.8624   16242029.3764
  17950022.365   -38118638.50749 -29314605.48749  17950022.6684   17950030.5384
  17094783.085   -18856809.98449 -14233429.46249  17094781.7294   17094790.8224
  18030086.068    -7560059.95349  -5872345.33649  18030086.0514   18030092.7904
  14975547.653   -46664142.33649 -36325496.78349  14975546.9254   14975552.5244
  15204570.733   -40883411.88349 -31831612.76449  15204570.5254   15204575.9914
 97  3 19 21 53 29.9790000  0  7  9  2 26 24  5  7  4
  15521889.098   -38832216.60149 -28958781.03149  15521889.0004   15521894.0664
  16236365.237   -28939667.81849 -22534613.34849  16236364.5494   16236370.8264
  17948597.380   -38126127.19949 -29320440.91249  17948598.0244   17948605.0764
  17059070.361   -19044481.31949 -14379666.76349  17059069.9724   17059077.3984
  17998755.083    -7724705.25249  -6000640.30049  17998753.5424   17998761.2234
  14970372.697   -46691337.17649 -36346687.56949  14970371.8774   14970377.3824
  15176606.145   -41030366.37849 -31946122.71949  15176605.9144   15176611.5834
 97  3 19 21 53 59.9790000  0  7  9  2 26 24  5  7  4
  15494806.530   -38974536.38449 -29069679.54949  15494806.2894   15494811.8664
  16230735.294   -28969253.45449 -22557667.11249  16230735.1664   16230741.4914
  17947173.144   -38133612.16149 -29326273.43649  17947173.7404   17947180.0294
  17023369.778   -19232088.60849 -14525854.14849  17023368.3474   17023377.6074
  17967406.453    -7889443.01349  -6129007.32749  17967405.7444   17967412.7264
  14965221.389   -46718407.54749 -36367781.36949  14965220.5734   14965226.0794
  15148719.194   -41176913.00649 -32060314.85949  15148718.7704   15148724.7164
 97  3 19 21 54 29.9790000  0  7  9  2 26 24  5  7  4
  15467800.312   -39116454.91149 -29180265.40049  15467799.8154   15467805.3434
  16225136.934   -28998673.00149 -22580591.45549  16225135.9124   16225143.1964
  17945753.562   -38141072.12749 -29332086.47349  17945753.8934   17945760.6424
  16987685.536   -19419609.95549 -14671974.56949  16987685.1604   16987692.6204
  17936047.443    -8054235.26549  -6257416.78949  17936046.6734   17936052.9994
  14960096.569   -46745338.44449 -36388766.48749  14960095.9214   14960101.4544
  15120912.599   -41323037.12849 -32174177.77549  15120912.4204   15120918.1154
 97  3 19 21 54 59.9790000  0  7  9  2 26 24  5  7  4
  15440875.046   -39257948.05749 -29290519.78449  15440874.5554   15440880.0114
  16219579.072   -29027879.81449 -22603350.04349  16219578.5694   16219584.7894
  17944350.193   -38148447.20149 -29337833.36449  17944350.4754   17944357.3714
  16952024.281   -19607010.38949 -14818000.78049  16952023.7984   16952032.2184
  17904687.146    -8219034.61949  -6385831.79349  17904686.7334   17904693.6074
  14955004.522   -46772097.50149 -36409617.70349  14955003.9464   14955009.3684
  15093193.752   -41468700.52849 -32287681.68549  15093193.7594   15093199.0884
 97  3 19 21 55 29.9790000  0  7  9  2 26 24  5  7  4
  15414027.156   -39399034.63649 -29400457.35949  15414026.8214   15414032.0544
  16214060.086   -29056882.32049 -22625949.42049  16214059.4804   16214066.0554
  17942961.728   -38155743.99649 -29343519.25749  17942961.5064   17942968.4164
  16916382.093   -19794310.57349 -14963948.87249  16916381.8034   16916388.9704
  17873321.981    -8383859.16049  -6514266.41349  17873320.3784   17873327.9344
  14949943.477   -46798693.49049 -36430341.85249  14949942.7304   14949948.2324
  15065558.171   -41613926.44049 -32400844.70149  15065558.4114   15065563.9064
 97  3 19 21 55 59.9790000  0  7  9  2 26 24  5  7  4
  15387252.169   -39539737.96649 -29510096.30449  15387251.3684   15387257.4224
  16208575.228   -29085705.60249 -22648409.14649  16208574.9274   16208580.7614
  17941584.381   -38162982.45449 -29349159.68949  17941584.4404   17941592.1744
  16880756.052   -19981526.05349 -15109830.95049  16880755.2464   16880763.2164
  17841946.013    -8548740.55349  -6642745.32149  17841944.5194   17841951.8104
  14944908.376   -46825152.90049 -36450959.57349  14944907.4164   14944913.0334
  15037998.720   -41758752.26049 -32513695.95349  15037998.6404   15038004.5104
 97  3 19 21 56 29.9790000  0  7  9  2 26 24  5  7  4
  15360562.558   -39679992.47649 -29619385.52149  15360561.9544   15360567.1254
  16203139.852   -29114268.56649 -22670666.03249  16203139.1804   16203146.4654
  17940234.219   -38170077.55849 -29354688.42749  17940234.9244   17940241.3664
  16845163.777   -20168564.34749 -15255574.99049  16845163.0764   16845170.7344
  17810575.644    -8713591.90949  -6771200.82649  17810575.3154   17810582.5274
  14939916.020   -46851388.01949 -36471402.53149  14939915.3024   14939920.7524
  15010534.013   -41903080.14549 -32626159.21649  15010534.2034   15010539.6084
 97  3 19 21 56 59.9790000  0  7  9  2 26 24  5  7  4
  15333951.293   -39819835.55749 -29728354.14249  15333951.3264   15333956.4974
  16197747.455   -29142605.78649 -22692747.00549  16197747.2934   16197753.2694
  17938900.531   -38177086.15549 -29360149.74049  17938901.2974   17938907.7014
  16809597.976   -20355463.28449 -15401210.42149  16809597.2884   16809605.1564
  17779200.855    -8878466.54449  -6899674.47449  17779199.8164   17779207.0674
  14934963.956   -46877411.22349 -36491680.34749  14934963.2404   14934968.4674
  14983159.986   -42046931.60349 -32738251.22749  14983159.8544   14983165.2524
 97  3 19 21 57 29.9780000  0  7  9  2 26 24  5  7  4
  15307416.937   -39959274.69349 -29837008.00149  15307416.7264   15307421.7404
  16192391.512   -29170751.74149 -22714678.94649  16192391.4414   16192397.8364
  17937572.846   -38184063.65849 -29365586.82649  17937574.1764   17937580.5724
  16774056.814   -20542232.53449 -15546744.80449  16774055.4234   16774064.3694
  17747814.784    -9043400.70649  -7028194.50849  17747813.5244   17747820.8774
  14930048.232   -46903243.55749 -36511809.44749  14930047.8134   14930053.0044
  14955872.212   -42190329.46549 -32849989.78949  14955872.0254   14955877.6934
 97  3 19 21 57 59.9780000  0  7  9  2 26 24  5  7  4
  15280961.758   -40098297.55749 -29945337.49549  15280961.1814   15280966.5314
  16187071.746   -29198707.44449 -22736462.62649  16187070.9944   16187076.9554
  17936251.405   -38191008.46549 -29370998.44849  17936251.0724   17936259.6034
  16738544.011   -20728852.95749 -15692163.23549  16738543.9574   16738550.9254
  17716422.172    -9208369.51249  -7156741.52849  17716421.4474   17716429.0844
  14925170.720   -46928875.29349 -36531782.23249  14925169.8904   14925175.5444
  14928676.055   -42333245.81049 -32961353.14549  14928676.1134   14928681.6884
 97  3 19 21 58 29.9780000  0  7  9  2 26 24  5  7  4
  15254593.271   -40236864.60149 -30053311.80249  15254592.8754   15254598.5114
  16181791.588   -29226454.85949 -22758084.01949  16181790.5404   16181797.4164
  17934938.935   -38197905.68849 -29376372.97449  17934939.3304   17934946.9654
  16703064.827   -20915297.01049 -15837444.23349  16703063.3704   16703071.6324
  17685028.365    -9373344.72749  -7285293.54049  17685027.3304   17685034.4284
  14920335.805   -46954283.09349 -36551580.51949  14920335.1074   14920340.7044
  14901580.765   -42475632.43249 -33072303.73549  14901580.3314   14901586.5564
 97  3 19 21 58 59.9780000  0  7  9  2 26 24  5  7  4
  15228316.700   -40374949.19749 -30160910.17549  15228316.4564   15228321.9544
  16176552.611   -29253985.62849 -22779536.58249  16176552.0864   16176558.1674
  17933638.509   -38204739.68749 -29381698.25349  17933638.8304   17933647.2954
  16667622.725   -21101546.35349 -15982573.51949  16667621.3364   16667629.9964
  17653633.832    -9538323.72449  -7413848.52249  17653632.6744   17653639.5884
  14915541.413   -46979477.76049 -36571212.73349  14915540.4964   14915546.3314
  14874585.689   -42617492.36949 -33182843.91549  14874585.7294   14874591.4834
 97  3 19 21 59 29.9780000  0  7  9  2 26 24  5  7  4
  15202126.220   -40512581.28449 -30268155.93749  15202125.7774   15202131.5224
  16171348.159   -29281335.26049 -22800848.01249  16171347.0894   16171353.6944
  17932349.361   -38211514.48649 -29386977.40549  17932349.4534   17932358.0224
  16632213.554   -21287622.22749 -16127567.64149  16632214.4384   16632221.4754
  17622234.743    -9703327.07049  -7542422.46949  17622233.9414   17622240.9944
  14910776.119   -47004519.41049 -36590725.71849  14910775.2354   14910780.7524
  14847682.998   -42758866.83549 -33293005.80649  14847683.0134   14847688.5414
 97  3 19 21 59 59.9780000  0  7  9  2 26 24  5  7  4
  15176029.332   -40649721.17949 -30375018.17449  15176028.7844   15176034.6014
  16166189.145   -29308446.05849 -22821973.33749  16166189.1904   16166194.7094
  17931081.949   -38218175.49949 -29392167.88149  17931081.9904   17931089.7574
  16596845.868   -21473480.41849 -16272392.13549  16596845.4634   16596852.5354
  17590842.400    -9868294.96249  -7670968.79249  17590841.9844   17590848.3344
  14906048.843   -47029361.43149 -36610083.13849  14906048.1084   14906053.8914
  14820882.453   -42899704.75249 -33402749.60249  14820882.2574   14820887.6104
 97  3 19 22  0 29.9780000  0  7  9  2 26 24  5  7  4
  15150014.277   -40786431.11549 -30481545.38149  15150013.9944   15150019.4714
  16161069.973   -29335347.56149 -22842935.56449  16161069.4844   16161076.1854
  17929828.489   -38224763.14749 -29397301.21449  17929829.4874   17929836.9254
  16561506.743   -21659188.53249 -16417099.69549  16561506.5284   16561513.8424
  17559443.525   -10033297.37049  -7799542.01049  17559442.8314   17559450.3834
  14901350.762   -47054050.00849 -36629320.99549  14901350.2704   14901355.9514
  14794171.052   -43040074.14849 -33512128.32149  14794171.1384   14794176.6954
 97  3 19 22  0 59.9780000  0  7  9  2 26 24  5  7  4
  15124083.574   -40922698.02349 -30587727.37649  15124083.3254   15124088.7664
  16155997.758   -29362002.58149 -22863705.73449  16155997.3864   16156004.5084
  17928593.233   -38231255.14149 -29402359.99949  17928593.7134   17928600.7904
  16526201.677   -21844717.95349 -16561668.01149  16526202.2184   16526208.9604
  17528042.915   -10198308.79249  -7928122.25749  17528042.9284   17528048.2154
  14896686.896   -47078558.97349 -36648418.89949  14896686.3694   14896691.6624
  14767549.641   -43179970.33649 -33621138.30749  14767549.1784   14767555.4394
 97  3 19 22  1 29.9780000  0  7  9  2 26 24  5  7  4
  15098232.316   -41058547.56049 -30693584.15249  15098231.8924   15098237.2064
  16150973.301   -29388406.48149 -22884280.22949  16150971.8454   16150979.1224
  17927370.248   -38237682.35249 -29407368.32149  17927370.5304   17927378.1314
  16490926.434   -22030090.49749 -16706114.08949  16490926.0294   16490933.6944
  17496639.624   -10363334.03849  -8056713.26749  17496638.3194   17496645.5364
  14892057.505   -47102886.61349 -36667375.51349  14892056.7044   14892062.2794
  14741017.576   -43319397.19849 -33729782.58649  14741017.4264   14741023.2194
 97  3 19 22  1 59.9780000  0  7  9  2 26 24  5  7  4
  15072460.504   -41193979.21849 -30799115.29449  15072460.0534   15072465.9154
  16145997.096   -29414556.46349 -22904656.86049  16145995.9804   16146003.1334
  17926153.053   -38244079.07549 -29412352.87249  17926152.4434   17926161.3824
  16455678.121   -22215321.70949 -16850450.02749  16455677.6314   16455685.4044
  17465231.127   -10528386.40749  -8185325.41249  17465230.8624   17465237.1684
  14887463.253   -47127029.61249 -36686188.24649  14887462.2944   14887468.1514
  14714574.658   -43458355.30349 -33838061.59349  14714574.9224   14714580.2844
 97  3 19 22  2 29.9780000  0  7  9  2 26 24  5  7  4
  15046772.190   -41328972.18249 -30904304.61349  15046771.7374   15046777.1604
  16141069.577   -29440450.68849 -22924834.20549  16141068.6214   16141075.7344
  17924942.216   -38250442.34549 -29417311.36749  17924942.1814   17924950.3584
  16420460.508   -22400391.35249 -16994660.07649  16420460.4724   16420467.7634
  17433819.756   -10693453.72849  -8313949.22149  17433818.5794   17433825.9574
  14882902.893   -47150994.35149 -36704862.08049  14882902.2414   14882907.8784
  14688223.747   -43596830.28249 -33945964.14449  14688223.5244   14688228.9694
 97  3 19 22  2 59.9780000  0  7  9  2 26 24  5  7  4
  15021165.163   -41463538.07949 -31009161.14649  15021164.6344   15021170.5994
  16136183.506   -29466126.91949 -22944841.69449  16136183.4734   16136189.2504
  17923730.016   -38256812.74649 -29422275.41349  17923730.4804   17923737.2794
  16385271.422   -22585310.97349 -17138753.21649  16385271.3134   16385277.8564
  17402403.652   -10858546.25049  -8442592.68049  17402402.5474   17402409.4914
  14878370.803   -47174810.60649 -36723420.21049  14878370.1594   14878375.6994
  14661963.476   -43734829.12749 -34053495.67849  14661963.3244   14661968.8904
 97  3 19 22  3 29.9780000  0  7  9  2 26 24  5  7  4
  14995639.298   -41597677.43249 -31113685.30849  14995639.0754   14995644.1924
  16131337.072   -29491595.37449 -22964687.26949  16131336.3084   16131342.4014
  17922516.056   -38263192.50849 -29427246.76049  17922516.1404   17922524.4394
  16350109.658   -22770086.98449 -17282734.44649  16350108.8354   16350115.9584
  17370983.308   -11023660.73749  -8571253.25149  17370982.6794   17370989.0924
  14873864.330   -47198492.48149 -36741873.62749  14873863.5594   14873869.4164
  14635797.120   -43872334.22349 -34160642.47349  14635797.1984   14635802.3344
 97  3 19 22  3 59.9780000  0  7  9  2 26 24  5  7  4
  14970199.954   -41731361.97749 -31217855.07749  14970199.6464   14970205.0164
  16126528.093   -29516866.97349 -22984379.44649  16126528.0274   16126534.5864
  17921304.085   -38269561.96949 -29432210.06949  17921304.3794   17921312.0334
  16314979.557   -22954696.62849 -17426586.04049  16314979.3354   16314986.7774
  17339560.589   -11188787.85049  -8699923.65549  17339560.2324   17339566.2814
  14869383.568   -47222038.98749 -36760221.56549  14869383.0404   14869388.5164
  14609727.433   -44009331.22949 -34267393.35649  14609727.3964   14609732.9254
 97  3 19 22  4 29.9780000  0  7  9  2 26 24  5  7  4
  14944850.428   -41864574.46849 -31321657.00749  14944849.9464   14944855.4264
  16121757.563   -29541936.07649 -23003913.83649  16121756.3504   16121763.4494
  17920101.483   -38275882.09849 -29437134.94149  17920101.7924   17920109.6194
  16279887.422   -23139107.00649 -17570282.35449  16279886.4994   16279895.3384
  17308141.304   -11353897.25149  -8828580.27149  17308140.9634   17308148.1754
  14864933.346   -47245425.14949 -36778444.56049  14864932.6514   14864938.6664
  14583760.268   -44145789.53249 -34373724.46549  14583760.3634   14583765.8854
 97  3 19 22  4 59.9780000  0  7  9  2 26 24  5  7  4
  14919583.828   -41997351.20049 -31425119.38549  14919583.7974   14919588.9174
  16117018.807   -29566838.59049 -23023318.41949  16117019.4204   16117025.1114
  17918903.439   -38282178.36149 -29442041.21149  17918903.2814   17918911.7244
  16244825.651   -23323357.58949 -17713854.15249  16244825.2324   16244832.9184
  17276715.829   -11519038.81949  -8957261.95149  17276714.7094   17276721.4054
  14860509.765   -47268671.30349 -36796558.45049  14860509.0344   14860514.6024
  14557886.531   -44281756.86349 -34479673.00649  14557886.5054   14557891.8304
 97  3 19 22  5 29.9780000  0  7  9  2 26 24  5  7  4
  14894413.319   -42129623.22749 -31528188.48749  14894413.1024   14894418.6994
  16112321.636   -29591522.46649 -23042552.62849  16112321.7024   16112327.4734
  17917722.099   -38288386.43949 -29446878.77349  17917722.6094   17917730.6234
  16209808.855   -23507371.81749 -17857241.78049  16209809.0534   16209815.9534
  17245294.731   -11684157.48549  -9085925.78449  17245294.0614   17245299.9674
  14856123.868   -47291719.28849 -36814517.93149  14856123.1904   14856128.9744
  14532117.858   -44417171.90649 -34585191.19649  14532118.1144   14532123.1684
 97  3 19 22  5 59.9780000  0  7  9  2 26 24  5  7  4
  14869337.142   -42261399.32949 -31630871.15049  14869337.0224   14869342.3944
  16107659.442   -29616022.55649 -23061643.63149  16107658.9704   16107665.1114
  17916552.317   -38294534.17149 -29451669.30249  17916552.6094   17916560.2744
  16174836.598   -23691152.20849 -18000447.18349  16174836.0144   16174843.0444
  17213873.200   -11849278.51449  -9214591.44649  17213871.9144   17213879.6284
  14851773.585   -47314580.11649 -36832331.57149  14851772.7524   14851778.5814
  14506450.255   -44552056.02049 -34690295.67249  14506450.3634   14506455.6324
 97  3 19 22  6 29.9780000  0  7  9  2 26 24  5  7  4
  14844340.485   -42392757.97049 -31733228.51949  14844340.2374   14844345.5254
  16103020.996   -29640397.65049 -23080637.22549  16103021.0314   16103026.4714
  17915378.674   -38300702.27849 -29456475.71449  17915379.0714   17915387.0324
  16139895.845   -23874767.02349 -18143523.57349  16139895.1134   16139902.4544
  17182437.458   -12014474.23249  -9343315.32349  17182436.3974   17182443.2284
  14847447.121   -47337315.73649 -36850047.64249  14847446.0874   14847452.3414
  14480868.177   -44686490.72249 -34795049.95349  14480868.1144   14480873.6304
 97  3 19 22  6 59.9770000  0  7  9  2 26 24  5  7  4
  14819425.990   -42523684.80849 -31835249.42449  14819425.5954   14819430.7164
  16098411.176   -29664622.71249 -23099513.91849  16098410.7924   16098417.2104
  17914198.069   -38306907.22049 -29461310.82649  17914197.8594   17914206.1454
  16104989.377   -24058201.47249 -18286459.42949  16104988.5984   16104996.1074
  17150990.095   -12179730.99749  -9472086.76049  17150989.9074   17150995.4324
  14843143.990   -47359928.63149 -36867668.09349  14843143.2264   14843148.9704
  14455372.638   -44820470.62349 -34899449.85049  14455372.6244   14455377.8794
 97  3 19 22  7 29.9770000  0  7  9  2 26 24  5  7  4
  14794594.747   -42654173.80349 -31936929.14749  14794594.1464   14794599.6944
  16093834.254   -29688675.03149 -23118256.00849  16093833.5914   16093839.3704
  17913012.210   -38313139.22249 -29466167.02749  17913012.0904   17913020.2794
  16070118.347   -24241449.98349 -18429250.37849  16070118.1794   16070124.8754
  17119535.036   -12345028.38449  -9600889.84549  17119533.9434   17119540.6644
  14838864.748   -47382416.00249 -36885190.73649  14838863.8984   14838869.5384
  14429969.761   -44953963.58649 -35003470.31249  14429970.0104   14429975.6004
 97  3 19 22  7 59.9770000  0  7  9  2 26 24  5  7  4
  14769852.877   -42784192.80249 -32038242.63549  14769852.8444   14769858.1014
  16089301.728   -29712493.56349 -23136815.94049  16089299.8894   16089307.3244
  17911827.446   -38319365.51849 -29471018.78449  17911827.5504   17911836.1674
  16035285.061   -24424499.96149 -18571886.65049  16035285.7434   16035291.9864
  17088079.629   -12510327.32949  -9729694.14549  17088078.7894   17088085.4894
  14834616.951   -47404738.43349 -36902584.84749  14834616.2294   14834621.8474
  14404665.902   -45086936.17149 -35107085.28449  14404665.6374   14404671.2904
 97  3 19 22  8 29.9770000  0  7  9  2 26 24  5  7  4
  14745208.832   -42913698.08549 -32139155.82449  14745208.6144   14745213.8654
  16084831.046   -29735987.43549 -23155122.88349  16084829.9244   16084836.3684
  17910653.837   -38325532.85549 -29475824.60649  17910653.3534   17910663.1534
  16000498.281   -24607305.48549 -18714332.43749  16000497.5864   16000505.1094
  17056634.587   -12675571.90649  -9858456.07449  17056634.1884   17056639.9464
  14830409.663   -47426848.22649 -36919813.26949  14830409.2114   14830414.4534
  14379472.094   -45219330.51349 -35210249.68049  14379472.1894   14379477.3044
 97  3 19 22  8 59.9770000  0  7  9  2 26 24  5  7  4
  14720644.934   -43042782.03049 -32239740.70649  14720644.7604   14720649.8744
  16080404.367   -29759249.75549 -23173249.39749  16080403.5784   16080409.4224
  17909474.384   -38331730.77349 -29480654.24449  17909473.5194   17909482.3844
  15965740.761   -24789956.87849 -18856658.12249  15965740.5184   15965746.9014
  17025182.118   -12840855.40349  -9987248.32849  17025181.4624   17025187.7694
  14826222.694   -47448851.11949 -36936958.39549  14826222.1604   14826227.4584
  14354374.152   -45351221.04649 -35313021.49749  14354374.2534   14354379.2104
 97  3 19 22  9 29.9770000  0  7  9  2 26 24  5  7  4
  14696166.752   -43171415.95549 -32339974.92549  14696166.5864   14696171.6794
  16076025.375   -29782261.60049 -23191180.72649  16076024.0304   16076030.8784
  17908296.552   -38337920.43849 -29485477.46249  17908296.0554   17908305.7494
  15931019.208   -24972419.35749 -18998836.60049  15931018.6454   15931025.6074
  16993727.921   -13006148.46149 -10116048.03849  16993727.2674   16993732.7784
  14822063.654   -47470707.32849 -36953989.21649  14822063.0794   14822068.4794
  14329376.243   -45482585.86749 -35415383.66149  14329376.2994   14329381.6094
 97  3 19 22  9 59.9770000  0  7  9  2 26 24  5  7  4
  14671783.163   -43299552.47949 -32439821.54749  14671782.6664   14671788.3324
  16071704.368   -29804968.67749 -23208874.57649  16071704.0514   16071709.5754
  17907125.899   -38344072.04249 -29490271.02749  17907125.5454   17907134.2934
  15896345.570   -25154630.14849 -19140818.94849  15896345.6994   15896352.0984
  16962282.091   -13171397.26249 -10244813.25349  16962280.4784   16962287.7894
  14817941.883   -47492367.45949 -36970867.24949  14817940.8434   14817946.1034
  14304483.398   -45613398.60949 -35517315.63049  14304483.6924   14304488.6334
 97  3 19 22 10 29.9770000  0  7  9  2 26 24  5  7  4
  14647486.200   -43427233.76349 -32539313.44049  14647485.6874   14647491.3364
  16067428.897   -29827436.60749 -23226382.07649  16067428.4114   16067433.4574
  17905953.737   -38350232.45349 -29495071.46349  17905953.5964   17905962.0084
  15861717.597   -25336600.91849 -19282614.28849  15861717.2724   15861723.3754
  16930838.849   -13336632.28549 -10373567.74349  16930838.6344   16930844.8534
  14813846.648   -47513888.14549 -36987636.62349  14813846.1884   14813851.6674
  14279685.494   -45743712.28949 -35618858.72649  14279685.4004   14279690.7324
 97  3 19 22 10 59.9770000  0  7  9  2 26 24  5  7  4
  14623275.852   -43554459.74349 -32638450.55449  14623275.3474   14623280.5864
  16063192.806   -29849697.87249 -23243728.53649  16063192.8234   16063198.9224
  17904779.022   -38356406.26749 -29499882.32549  17904779.0994   17904788.5464
  15827135.098   -25518332.62449 -19424223.33649  15827134.8334   15827141.7074
  16899397.896   -13501854.98049 -10502312.61549  16899397.3314   16899404.3174
  14809777.601   -47535271.26649 -37004298.80249  14809777.1354   14809782.5744
  14254979.910   -45873540.83649 -35720023.79449  14254979.8634   14254985.1264
 97  3 19 22 11 29.9770000  0  7  9  2 26 24  5  7  4
  14599161.230   -43681182.62649 -32737195.64149  14599160.8214   14599166.0954
  16059003.986   -29871710.37349 -23260881.15949  16059003.5834   16059010.4864
  17903607.635   -38362562.42349 -29504679.43549  17903607.6304   17903615.8304
  15792604.467   -25699791.55249 -19565619.83549  15792603.1184   15792611.1414
  16867967.076   -13667024.09249 -10631015.72149  16867966.7004   16867972.5444
  14805742.073   -47556478.33249 -37020823.79649  14805741.5384   14805747.0754
  14230375.428   -46002838.05049 -35820774.83649  14230375.2664   14230380.8804
 97  3 19 22 11 59.9770000  0  7  9  2 26 24  5  7  4
  14575141.358   -43807408.11649 -32835553.15749  14575141.2104   14575146.6374
  16054857.727   -29893499.10049 -23277859.41849  16054856.9444   16054864.2434
  17902435.455   -38368722.95049 -29509479.97349  17902435.6824   17902444.4754
  15758120.698   -25881004.54549 -19706824.69449  15758119.7314   15758127.3194
  16836539.634   -13832175.89949 -10759705.37549  16836538.7674   16836546.2134
  14801731.720   -47577552.91749 -37037245.55749  14801731.1854   14801736.4514
  14205873.107   -46131598.33449 -35921107.49649  14205873.1394   14205878.3004
 97  3 19 22 12 29.9770000  0  7  9  2 26 24  5  7  4
  14551212.487   -43933155.30349 -32933537.96449  14551212.1954   14551217.5034
  16050744.038   -29915116.72549 -23294704.35449  16050742.9824   16050750.5324
  17901258.839   -38374906.42849 -29514298.37749  17901258.9964   17901266.3544
  15723674.745   -26062018.93849 -19847874.81749  15723674.3574   15723681.1794
  16805104.639   -13997367.28349 -10888425.85649  16805103.4894   16805110.7124
  14797740.208   -47598528.53149 -37053590.19749  14797739.6284   14797745.0154
  14181470.971   -46259832.36249 -36021030.08149  14181470.7824   14181476.5374
 97  3 19 22 12 59.9770000  0  7  9  2 26 24  5  7  4
  14527380.911   -44058390.88149 -33031124.12349  14527380.7044   14527386.0084
  16046669.330   -29936529.51249 -23311389.66849  16046669.0124   16046676.0114
  17900081.777   -38381092.43249 -29519118.73849  17900081.7414   17900091.7574
  15689268.898   -26242822.47749 -19988760.63749  15689268.4054   15689275.4434
  16773663.688   -14162590.20949 -11017170.91949  16773663.1754   16773669.7694
  14793773.435   -47619373.94249 -37069833.38249  14793772.9544   14793778.2274
  14157178.779   -46387488.48649 -36120502.35549  14157178.9594   14157184.0124
 97  3 19 22 13 29.9770000  0  7  9  2 26 24  5  7  4
  14503647.227   -44183112.22349 -33128309.57149  14503646.8244   14503652.1394
  16042633.472   -29957738.79049 -23327916.40949  16042632.9964   16042639.9824
  17898904.141   -38387281.09549 -29523941.18849  17898904.9064   17898913.6594
  15654903.061   -26423415.66349 -20129482.54349  15654902.0574   15654909.8324
  16742216.849   -14327844.09949 -11145940.12249  16742216.9544   16742222.8854
  14789830.459   -47640094.59749 -37085979.35549  14789830.2044   14789835.3894
  14132997.627   -46514561.18749 -36219520.01149  14132997.7594   14133003.0544
 97  3 19 22 13 59.9770000  0  7  9  2 26 24  5  7  4
  14480012.729   -44307311.88849 -33225088.52149  14480012.2364   14480018.0054
  16038636.849   -29978741.28249 -23344282.02149  16038636.0734   16038643.4224
  17897729.103   -38393456.70049 -29528753.45549  17897728.5504   17897738.2394
  15620582.448   -26603771.42749 -20270019.44249  15620582.2064   15620589.4204
  16710767.981   -14493109.20749 -11274718.05949  16710767.9464   16710773.9024
  14785916.631   -47660661.96949 -37102005.88249  14785915.7244   14785921.8034
  14108927.081   -46641052.77349 -36318084.85249  14108927.2434   14108932.1714
 97  3 19 22 14 29.9770000  0  7  9  2 26 24  5  7  4
  14456472.550   -44431016.31749 -33321481.57049  14456472.3824   14456477.5994
  16034680.075   -29999534.45149 -23360484.51849  16034678.6634   16034685.9334
  17896553.251   -38399636.35049 -29533568.86749  17896553.7244   17896562.1724
  15586307.081   -26783889.59449 -20410371.20249  15586307.1744   15586313.6234
  16679318.475   -14658377.41749 -11403498.41449  16679317.9184   16679323.8834
  14782034.419   -47681063.13849 -37117902.90549  14782033.8614   14782039.2824
  14084962.103   -46766989.68249 -36416217.47649  14084962.1644   14084966.9684
 97  3 19 22 14 59.9770000  0  7  9  2 26 24  5  7  4
  14433029.161   -44554212.42849 -33417478.53349  14433028.7924   14433034.2324
  16030767.259   -30020096.38749 -23376506.84149  16030766.7614   16030774.3764
  17895377.888   -38405813.56549 -29538382.38549  17895379.0174   17895386.9134
  15552082.920   -26963738.62249 -20550513.24549  15552081.6984   15552089.2434
  16647877.070   -14823602.79749 -11532245.40849  16647876.2554   16647882.8974
  14778186.818   -47701282.53149 -37133658.28349  14778185.9354   14778191.3484
  14061104.316   -46892363.21449 -36513911.10449  14061104.2004   14061109.4784
 97  3 19 22 15 29.9770000  0  7  9  2 26 24  5  7  4
  14409678.119   -44676923.12749 -33513097.25249  14409677.9584   14409683.2004
  16026892.207   -30040459.96649 -23392374.59449  16026891.7344   16026897.9214
  17894198.548   -38412011.77349 -29543212.27649  17894199.1544   17894207.0974
  15517907.265   -27143332.82449 -20690456.72349  15517906.5274   15517913.5104
  16616441.411   -14988798.35649 -11660969.16249  16616441.0674   16616447.5354
  14774368.359   -47721348.64449 -37149294.22249  14774367.6884   14774373.0504
  14037345.975   -47017213.75949 -36611197.20849  14037345.8884   14037351.0484
 97  3 19 22 15 59.9770000  0  7  9  2 26 24  5  7  4
  14386413.617   -44799178.88449 -33608361.47049  14386413.1934   14386418.7744
  16023050.775   -30060647.06149 -23408104.83949  16023050.3734   16023057.3704
  17893004.657   -38418286.21149 -29548101.56549  17893004.3914   17893013.8444
  15483775.028   -27322698.81549 -20830222.36949  15483774.4664   15483781.3964
  16585003.338   -15154006.60649 -11789702.80049  16585002.4024   16585009.1864
  14770570.218   -47741307.94749 -37164846.92949  14770569.3184   14770574.8724
  14013679.940   -47141579.34549 -36708105.42349  14013679.8214   14013685.3134
 97  3 19 22 16 29.9760000  0  7  9  2 26 24  5  7  4
  14363238.783   -44920963.38949 -33703258.48049  14363238.6074   14363244.0474
  16019245.006   -30080646.59549 -23423688.92249  16019244.4784   16019251.0464
  17891795.262   -38424642.23749 -29553054.43149  17891793.7994   17891804.9554
  15449687.391   -27501830.64149 -20969805.55749  15449687.3744   15449693.7944
  16553563.150   -15319226.14449 -11918445.24349  16553562.4174   16553568.6144
  14766787.671   -47761185.11649 -37180335.64949  14766787.3764   14766792.9034
  13990106.132   -47265460.37849 -36804636.06249  13990106.0914   13990111.3944
 97  3 19 22 16 59.9760000  0  7  9  2 26 24  5  7  4
  14340157.778   -45042254.65649 -33797771.14249  14340157.6754   14340163.2154
  16015478.393   -30100440.77249 -23439112.98149  16015477.7954   16015485.3354
  17890572.794   -38431066.40949 -29558060.40249  17890573.1344   17890581.6704
  15415646.040   -27680718.87049 -21109198.91049  15415646.0304   15415653.4134
  16522119.914   -15484461.52349 -12047200.03149  16522119.2554   16522125.1434
  14763022.787   -47780969.75449 -37195752.25549  14763021.9834   14763027.5174
  13966626.805   -47388844.85149 -36900779.76949  13966626.9454   13966632.1604
 97  3 19 22 17 29.9760000  0  7  9  2 26 24  5  7  4
  14317169.350   -45163060.02949 -33891905.19749  14317168.9004   14317174.4224
  16011754.203   -30120011.21949 -23454362.70549  16011753.2644   16011760.7184
  17889335.606   -38437568.47749 -29563127.07349  17889336.2504   17889344.2514
  15381651.714   -27859360.14449 -21248399.84749  15381650.6454   15381657.6984
  16490672.063   -15649721.10849 -12175973.68149  16490672.2554   16490677.4084
  14759275.249   -47800663.31449 -37211097.89549  14759274.6374   14759280.1094
  13943242.243   -47511731.35049 -36996535.44749  13943242.2044   13943247.4104
 97  3 19 22 17 59.9760000  0  7  9  2 26 24  5  7  4
  14294279.281   -45283348.02949 -33985636.09749  14294279.0274   14294284.4584
  16008082.166   -30139307.77549 -23469399.02049  16008081.8264   16008088.3424
  17888088.269   -38444123.85249 -29568235.27749  17888088.0344   17888098.1594
  15347708.208   -28037734.01449 -21387392.42549  15347707.7534   15347714.2524
  16459224.689   -15814978.02949 -12304745.26149  16459224.1764   16459230.1264
  14755551.179   -47820233.50249 -37226347.39549  14755550.1954   14755555.4604
  13919959.260   -47634083.89349 -37091875.06349  13919959.4534   13919964.3964
 97  3 19 22 18 29.9760000  0  7  9  2 26 24  5  7  4
  14271488.106   -45403116.55249 -34078962.21249  14271487.8454   14271493.2194
  16004460.976   -30158337.26449 -23484227.23249  16004459.6734   16004467.4554
  17886835.701   -38450706.84549 -29573365.00649  17886836.4914   17886844.8614
  15313818.071   -28215827.60649 -21526166.58949  15313817.2354   15313824.5734
  16427781.168   -15980214.51249 -12433500.91849  16427780.5644   16427786.5804
  14751854.258   -47839660.88149 -37241485.62249  14751853.6944   14751858.7424
  13896784.244   -47755869.30749 -37186772.75849  13896784.2064   13896789.5244
 97  3 19 22 18 59.9760000  0  7  9  2 26 24  5  7  4
  14248792.077   -45522385.06649 -34171898.71249  14248791.6674   14248797.1394
  16000888.387   -30177111.41849 -23498856.48349  16000887.9764   16000894.1644
  17885576.341   -38457324.99849 -29578522.13549  17885576.0434   17885585.2674
  15279980.459   -28393644.83549 -21664725.41549  15279979.6304   15279986.8414
  16396340.967   -16145433.67149 -12562243.08049  16396340.3404   16396346.2764
  14748184.626   -47858945.03949 -37256512.25149  14748184.1154   14748189.3924
  13873722.966   -47877057.22249 -37281204.87349  13873723.1214   13873728.2024
 97  3 19 22 19 29.9760000  0  7  9  2 26 24  5  7  4
  14226178.225   -45641221.54049 -34264498.55749  14226177.8724   14226183.2204
  15997349.921   -30195706.25949 -23513346.00649  15997348.6864   15997356.2864
  17884296.418   -38464051.48749 -29583763.68349  17884296.0794   17884305.8044
  15246181.723   -28571258.07649 -21803125.28249  15246181.7784   15246188.4904
  16364893.749   -16310689.76749 -12691014.01349  16364893.0104   16364898.7274
  14744525.177   -47878175.80649 -37271497.27149  14744524.6984   14744529.7954
  13850765.090   -47997701.60549 -37375213.45849  13850765.1954   13850770.4044
 97  3 19 22 19 59.9760000  0  7  9  2 26 24  5  7  4
  14203654.783   -45759583.02049 -34356728.27449  14203654.3454   14203659.8464
  15993847.242   -30214113.05849 -23527689.01249  15993846.6004   15993853.3064
  17883003.355   -38470846.96449 -29589058.98949  17883003.8544   17883012.2674
  15212429.150   -28748628.82849 -21941336.19949  15212428.5654   15212435.6484
  16333445.480   -16475951.41149 -12819789.27349  16333444.0024   16333451.4564
  14740881.388   -47897324.28849 -37286418.17549  14740880.4814   14740886.1854
  13827918.621   -48117760.79649 -37468766.05149  13827918.6714   13827923.4924
 97  3 19 22 20 29.9760000  0  6  9  2 24  5  7  4
  14181224.159   -45877456.46549 -34448577.70849  14181223.9334   14181229.4704
  15990380.525   -30232331.02149 -23541884.86849  15990381.0604   15990386.3594
  15178729.804   -28925719.83049 -22079329.13749  15178729.5544   15178736.3804
  16302000.603   -16641195.19249 -12948550.61049  16302000.0904   16302005.9664
  14737255.726   -47916377.15049 -37301264.57849  14737255.0314   14737260.1834
  13805188.132   -48237210.39649 -37561843.64149  13805188.4074   13805193.3664
 97  3 19 22 20 59.9760000  0  6  9  2 24  5  7  4
  14158882.473   -45994862.64249 -34540063.03549  14158882.2604   14158887.8664
  15986946.619   -30250377.07149 -23555946.76749  15986946.6074   15986953.2694
  15145075.719   -29102573.01249 -22217136.75849  15145075.2734   15145081.5354
  16270552.557   -16806455.43249 -13077324.76549  16270551.5924   16270558.5814
  14733640.771   -47935373.78949 -37316067.16749  14733640.2834   14733645.6574
  13782560.840   -48356117.57649 -37654498.56549  13782560.8824   13782566.0674
 97  3 19 22 21 29.9760000  0  6  9  2 24  5  7  4
  14136652.116   -46111683.88849 -34631092.57949  14136651.7804   14136657.2194
  15983566.517   -30268139.95949 -23569788.02649  15983566.4174   15983572.1554
  15111486.782   -29279083.70949 -22354677.49949  15111486.0464   15111493.0434
  16239122.601   -16971620.63049 -13206024.88049  16239121.0804   16239128.4204
  14730057.619   -47954203.36749 -37330739.58249  14730056.8044   14730062.5404
  13760049.225   -48474416.75149 -37746679.72549  13760049.2264   13760054.2084
 97  3 19 22 21 59.9760000  0  6  9  2 24  5  7  4
  14114530.359   -46227934.41449 -34721677.40349  14114529.9144   14114535.3314
  15980238.597   -30285628.54049 -23583415.52349  15980238.1214   15980244.4684
  15077961.601   -29455259.39749 -22491957.19249  15077961.3054   15077968.3344
  16207705.064   -17136720.41049 -13334674.00949  16207703.6404   16207711.2804
  14726506.721   -47972863.45949 -37345279.92249  14726505.6724   14726511.3284
  13737648.319   -48592134.17449 -37838407.56549  13737648.1644   13737653.2244
 97  3 19 22 22 29.9760000  0  6  9  2 24  5  7  4
  14092508.973   -46343657.23349 -34811851.02549  14092508.7794   14092514.0524
  15976957.647   -30302870.59849 -23596850.94049  15976957.3434   15976964.2434
  15044492.355   -29631141.44249 -22629008.07549  15044492.2654   15044498.4654
  16176293.781   -17301787.27249 -13463297.50049  16176292.6764   16176299.8394
  14722979.582   -47991398.61549 -37359722.92249  14722978.4644   14722984.7294
  13715349.997   -48709312.58649 -37929715.40649  13715349.9614   13715355.1144
 97  3 19 22 22 59.9760000  0  6  9  2 24  5  7  4
  14070593.769   -46458822.53249 -34901590.21649  14070593.3814   14070598.7494
  15973728.257   -30319841.47249 -23610075.03849  15973727.3494   15973734.5044
  15011081.638   -29806715.93849 -22765819.31049  15011081.0854   15011088.1904
  16144892.267   -17466803.00749 -13591881.13949  16144891.7544   16144898.4854
  14719482.892   -48009773.89949 -37374041.33749  14719481.9854   14719487.2344
  13693158.902   -48825927.42149 -38020584.09049  13693158.6644   13693163.8274
 97  3 19 22 23 29.9760000  0  6  9  2 24  5  7  4
  14048768.996   -46573512.59449 -34990959.09349  14048768.8804   14048774.2874
  15970532.172   -30336637.28449 -23623162.72549  15970531.3214   15970537.3844
  14977717.355   -29982046.39849 -22902440.37849  14977717.3624   14977723.4644
  16113485.741   -17631845.49749 -13720485.62649  16113485.5564   16113492.3004
  14716003.439   -48028058.39549 -37388289.00949  14716002.9534   14716008.4084
  13671066.139   -48942025.52449 -38111050.12749  13671066.2684   13671071.3544
 97  3 19 22 23 59.9760000  0  6  9  2 24  5  7  4
  14027046.908   -46687662.89549 -35079907.37449  14027046.5484   14027052.0564
  15967376.249   -30353221.45349 -23636085.49249  15967375.8564   15967382.2944
  14944412.730   -30157063.37049 -23038817.16149  14944412.5184   14944419.0604
  16082085.108   -17796856.60049 -13849065.64649  16082084.1854   16082092.0074
  14712550.752   -48046202.21549 -37402427.06549  14712549.8844   14712556.1084
  13649088.278   -49057519.72649 -38201045.59049  13649088.2134   13649093.4834
 97  3 19 22 24 29.9760000  0  6  9  2 24  5  7  4
  14005444.183   -46801186.15949 -35168367.06549  14005443.9834   14005449.1114
  15964273.640   -30369525.76349 -23648790.18349  15964273.4834   15964280.7554
  14911185.455   -30331673.71749 -23174877.10249  14911185.0214   14911191.4734
  16050709.862   -17961734.60249 -13977541.94949  16050709.4054   16050716.5474
  14709141.048   -48064120.30749 -37416389.23549  14709140.5544   14709145.9354
  13627243.540   -49172314.43749 -38290495.99849  13627243.4464   13627248.7234
 97  3 19 22 24 59.9760000  0  6  9  2 24  5  7  4
  13983932.848   -46914229.12749 -35256452.49849  13983932.4354   13983937.7314
  15961193.494   -30385712.15749 -23661403.00849  15961193.2064   15961199.4974
  14878007.730   -30506023.75449 -23310734.19849  14878007.4404   14878013.5594
  16019329.974   -18126636.81249 -14106037.12049  16019329.0194   16019336.3264
  14705745.120   -48081966.11749 -37430295.07849  14705744.5054   14705750.5604
  13605503.839   -49286557.18649 -38379516.30449  13605503.9364   13605509.1254
 97  3 19 22 25 29.9760000  0  6  9  2 24  5  7  4
  13962526.785   -47026718.49749 -35344106.55149  13962526.3844   13962531.8504
  15958152.522   -30401692.81849 -23673855.50849  15958152.2614   15958159.2984
  14844897.313   -30680020.09349 -23446315.68149  14844896.6524   14844903.4764
  15987962.096   -18291475.89449 -14234483.09549  15987961.1054   15987968.0334
  14702372.419   -48099690.13949 -37444106.01649  14702371.9304   14702377.0394
  13583882.179   -49400179.57549 -38468053.20849  13583882.3644   13583887.2084
 97  3 19 22 25 59.9750000  0  6  9  2 24  5  7  4
  13941227.517   -47138647.23249 -35431323.74749  13941227.5994   13941232.6154
  15955156.540   -30417436.89149 -23686123.67449  15955156.3754   15955162.6284
  14811855.413   -30853656.15649 -23581616.43149  14811855.5364   14811860.8124
  15956609.413   -18456235.16549 -14362866.88549  15956608.1204   15956615.2934
  14699021.763   -48117298.14549 -37457826.55549  14699020.6104   14699026.8144
  13562377.809   -49513186.01649 -38556110.15349  13562378.0114   13562382.8994
